[[{"header":{"parameterUnit":"m.s-1","parameterCategory":1,"la1":30.6,"la2":29.2853,"lo1":-89.7004,"lo2":-87.6739,"dx":0.0162,"dy":0.0183,"nx":112,"ny":82,"refTime":"2022-11-06T00:00:00:Z","depth":0,"parameterNumber":2,"parameterNumberName":"U-component_of_WINDS"},"data":[0.0,0.0,0.0,0.0,0.0,0.0,0.0,0.0,0.0,0.0,0.0,0.0,0.0,0.0,0.0,0.0,0.0,0.0,0.0,0.0,0.0,0.0,0.0,0.0,0.0,0.0,0.0,0.0,0.0,0.0,0.0,0.0,0.0,0.0,0.0,0.0,0.0,0.0,0.0,0.0,0.0,0.0,0.0,0.0,0.0,0.0,0.0,0.0,0.0,0.0,0.0,0.0,0.0,0.0,0.0,0.0,0.0,0.0,0.0,0.0,0.0,0.0,0.0,0.0,0.0,0.0,0.0,0.0,0.0,0.0,0.0,0.0,0.0,0.0,0.0,0.0,0.0,0.0,0.0,0.0,0.0,0.0,0.0,0.0,0.0,0.0,0.0,0.0,0.0,0.0,2.3311,2.4506,2.5904,2.6751,2.6751,2.6675,2.5653,2.3371,0.0,0.0,0.0,0.0,0.0,0.0,0.0,0.0,0.0,0.0,0.0,0.0,0.0,0.0,0.0,0.0,0.0,0.0,0.0,0.0,0.0,0.0,0.0,0.0,0.0,0.0,0.0,0.0,0.0,0.0,0.0,0.0,0.0,0.0,0.0,0.0,0.0,0.0,0.0,0.0,0.0,0.0,0.0,0.0,0.0,0.0,0.0,0.0,0.0,0.0,0.0,0.0,0.0,0.0,0.0,0.0,0.0,0.0,0.0,0.0,0.0,0.0,0.0,0.0,0.0,0.0,0.0,0.0,0.0,0.0,0.0,0.0,0.0,0.0,0.0,0.0,0.0,0.0,0.0,0.0,0.0,0.0,0.0,0.0,0.0,0.0,0.0,0.0,0.0,0.0,0.0,0.0,0.0,0.0,0.0,0.0,0.0,0.0,0.0,0.0,0.0,0.0,0.0,0.0,2.3226,2.7067,2.772,2.7871,2.7871,2.7437,2.6231,2.4004,0.0,0.0,0.0,0.0,0.0,0.0,0.0,0.0,0.0,0.0,0.0,0.0,0.0,0.0,0.0,0.0,0.0,0.0,0.0,0.0,0.0,0.0,0.0,0.0,0.0,0.0,0.0,0.0,0.0,0.0,0.0,0.0,0.0,0.0,0.0,0.0,0.0,0.0,0.0,0.0,0.0,0.0,0.0,0.0,0.0,0.0,0.0,0.0,0.0,0.0,0.0,0.0,0.0,0.0,0.0,0.0,0.0,0.0,0.0,0.0,0.0,0.0,0.0,0.0,0.0,0.0,0.0,0.0,0.0,0.0,0.0,0.0,0.0,0.0,0.0,0.0,0.0,0.0,0.0,0.0,0.0,0.0,0.0,0.0,0.0,0.0,0.0,0.0,0.0,0.0,0.0,0.0,0.0,0.0,0.0,0.0,0.0,0.0,0.0,0.0,0.0,0.0,0.0,2.31,2.4833,2.7795,2.8097,2.8097,2.8097,2.7871,2.6666,2.4155,2.2698,0.0,0.0,0.0,0.0,0.0,0.0,0.0,0.0,0.0,0.0,0.0,0.0,0.0,0.0,0.0,0.0,0.0,0.0,0.0,0.0,0.0,0.0,0.0,0.0,0.0,0.0,0.0,0.0,0.0,0.0,0.0,0.0,0.0,0.0,0.0,0.0,0.0,0.0,0.0,0.0,0.0,0.0,0.0,0.0,0.0,0.0,0.0,0.0,0.0,0.0,0.0,0.0,0.0,0.0,0.0,0.0,0.0,0.0,0.0,0.0,0.0,0.0,0.0,0.0,0.0,0.0,0.0,0.0,0.0,0.0,0.0,0.0,0.0,0.0,0.0,0.0,0.0,0.0,0.0,0.0,0.0,0.0,0.0,0.0,0.0,0.0,0.0,0.0,0.0,0.0,0.0,0.0,0.0,0.0,0.0,0.0,0.0,0.0,0.0,0.0,0.0,0.0,2.5912,2.6917,2.8348,2.8499,2.8499,2.8499,2.8355,2.7118,2.4356,2.2985,0.0,0.0,0.0,0.0,0.0,0.0,0.0,0.0,0.0,0.0,0.0,0.0,0.0,0.0,0.0,0.0,0.0,0.0,0.0,0.0,0.0,0.0,0.0,0.0,0.0,0.0,0.0,0.0,0.0,0.0,0.0,0.0,0.0,0.0,0.0,0.0,0.0,0.0,0.0,0.0,0.0,0.0,0.0,0.0,0.0,0.0,0.0,0.0,0.0,0.0,0.0,0.0,0.0,0.0,0.0,0.0,0.0,0.0,0.0,0.0,0.0,0.0,0.0,0.0,0.0,0.0,0.0,0.0,0.0,0.0,0.0,0.0,0.0,0.0,0.0,0.0,0.0,0.0,0.0,0.0,0.0,0.0,0.0,0.0,0.0,0.0,0.0,0.0,0.0,0.0,0.0,0.0,0.0,0.0,0.0,0.0,0.0,0.0,0.0,0.0,0.0,0.0,2.6774,2.8932,2.9603,2.9679,2.9679,2.9679,2.9157,2.7677,2.4917,2.3211,0.0,0.0,0.0,0.0,0.0,0.0,0.0,0.0,0.0,0.0,0.0,0.0,0.0,0.0,0.0,0.0,0.0,0.0,0.0,0.0,0.0,0.0,0.0,0.0,0.0,0.0,0.0,0.0,0.0,0.0,0.0,0.0,0.0,0.0,0.0,0.0,0.0,0.0,0.0,0.0,0.0,0.0,0.0,0.0,0.0,0.0,0.0,0.0,0.0,0.0,0.0,0.0,0.0,0.0,0.0,0.0,0.0,0.0,0.0,0.0,0.0,0.0,0.0,0.0,0.0,0.0,0.0,0.0,0.0,0.0,0.0,0.0,0.0,0.0,0.0,0.0,0.0,0.0,0.0,0.0,0.0,0.0,0.0,0.0,0.0,0.0,0.0,0.0,0.0,0.0,0.0,0.0,0.0,0.0,0.0,0.0,0.0,0.0,0.0,0.0,0.0,0.0,2.6992,2.9026,0.0,3.0803,3.0658,3.0331,3.0086,2.848,2.5017,0.0,0.0,0.0,0.0,0.0,0.0,0.0,0.0,0.0,0.0,0.0,0.0,0.0,0.0,0.0,0.0,0.0,0.0,0.0,0.0,0.0,0.0,0.0,0.0,0.0,0.0,0.0,0.0,0.0,0.0,0.0,0.0,0.0,0.0,0.0,0.0,0.0,0.0,0.0,0.0,0.0,0.0,0.0,0.0,0.0,0.0,0.0,0.0,0.0,0.0,0.0,0.0,0.0,0.0,0.0,0.0,0.0,0.0,0.0,0.0,0.0,0.0,0.0,0.0,0.0,0.0,0.0,0.0,0.0,0.0,0.0,0.0,0.0,0.0,0.0,0.0,0.0,0.0,0.0,0.0,0.0,0.0,0.0,0.0,0.0,0.0,0.0,0.0,0.0,0.0,0.0,0.0,0.0,0.0,0.0,0.0,0.0,0.0,0.0,0.0,0.0,0.0,2.5259,2.767,2.9729,0.0,3.1406,3.1093,3.0334,3.0613,2.891,2.4437,0.0,0.0,0.0,0.0,0.0,0.0,0.0,0.0,0.0,0.0,0.0,0.0,0.0,0.0,0.0,0.0,0.0,0.0,0.0,0.0,0.0,0.0,0.0,0.0,0.0,0.0,0.0,0.0,0.0,0.0,0.0,0.0,0.0,0.0,0.0,0.0,0.0,0.0,0.0,0.0,0.0,0.0,0.0,0.0,0.0,0.0,0.0,0.0,0.0,0.0,0.0,0.0,0.0,0.0,0.0,0.0,0.0,0.0,0.0,0.0,0.0,0.0,0.0,0.0,0.0,0.0,0.0,0.0,0.0,0.0,0.0,0.0,0.0,0.0,0.0,0.0,0.0,0.0,0.0,0.0,0.0,0.0,0.0,0.0,0.0,0.0,0.0,0.0,0.0,0.0,0.0,0.0,0.0,0.0,0.0,0.0,0.0,0.0,0.0,0.0,0.0,0.0,2.546,2.9001,3.1432,3.1432,3.1432,3.0935,2.974,3.0725,2.8924,0.0,0.0,0.0,0.0,0.0,0.0,0.0,0.0,0.0,0.0,0.0,0.0,0.0,0.0,0.0,0.0,0.0,0.0,0.0,0.0,0.0,0.0,0.0,0.0,0.0,0.0,0.0,0.0,0.0,0.0,0.0,0.0,0.0,0.0,0.0,0.0,0.0,0.0,0.0,0.0,0.0,0.0,0.0,0.0,0.0,0.0,0.0,0.0,0.0,0.0,0.0,0.0,0.0,0.0,0.0,0.0,0.0,0.0,0.0,0.0,0.0,0.0,0.0,0.0,0.0,0.0,0.0,0.0,0.0,0.0,0.0,0.0,0.0,0.0,0.0,0.0,0.0,0.0,0.0,0.0,0.0,0.0,0.0,0.0,0.0,0.0,0.0,0.0,0.0,0.0,0.0,0.0,0.0,0.0,0.0,0.0,0.0,0.0,0.0,0.0,0.0,0.0,0.0,2.6047,2.9597,3.2139,3.2562,3.2612,3.2289,3.1508,3.1776,2.9895,2.5056,0.0,0.0,0.0,0.0,0.0,0.0,0.0,0.0,0.0,0.0,0.0,0.0,0.0,0.0,0.0,0.0,0.0,0.0,0.0,0.0,0.0,0.0,0.0,0.0,0.0,0.0,0.0,0.0,0.0,0.0,0.0,0.0,0.0,0.0,0.0,0.0,0.0,0.0,0.0,0.0,0.0,0.0,0.0,0.0,0.0,0.0,0.0,0.0,0.0,0.0,0.0,0.0,0.0,0.0,0.0,0.0,0.0,0.0,0.0,0.0,0.0,0.0,0.0,0.0,0.0,0.0,0.0,0.0,0.0,0.0,0.0,0.0,0.0,0.0,0.0,0.0,0.0,0.0,0.0,0.0,0.0,0.0,0.0,0.0,0.0,0.0,0.0,0.0,0.0,0.0,0.0,0.0,0.0,0.0,0.0,0.0,0.0,0.0,0.0,0.0,0.0,0.0,2.5837,2.9016,3.1218,3.1599,3.1623,3.128,3.0442,3.0791,2.9237,2.4918,0.0,0.0,0.0,0.0,0.0,0.0,0.0,0.0,0.0,0.0,0.0,0.0,0.0,0.0,0.0,0.0,0.0,0.0,0.0,0.0,0.0,0.0,0.0,0.0,0.0,0.0,0.0,0.0,0.0,0.0,0.0,0.0,0.0,0.0,0.0,0.0,0.0,0.0,0.0,0.0,0.0,0.0,0.0,0.0,0.0,0.0,0.0,0.0,0.0,0.0,0.0,0.0,0.0,0.0,0.0,0.0,0.0,0.0,0.0,0.0,0.0,0.0,0.0,0.0,0.0,0.0,0.0,0.0,0.0,0.0,0.0,0.0,0.0,0.0,0.0,0.0,0.0,0.0,0.0,0.0,0.0,0.0,0.0,0.0,0.0,0.0,0.0,0.0,0.0,0.0,0.0,0.0,0.0,0.0,0.0,0.0,0.0,0.0,0.0,0.0,0.0,0.0,2.5357,2.8027,2.9738,2.9738,2.9738,2.9258,2.8049,2.8958,2.7828,2.3723,0.0,0.0,0.0,0.0,0.0,0.0,0.0,0.0,0.0,0.0,0.0,0.0,0.0,0.0,0.0,0.0,0.0,0.0,0.0,0.0,0.0,0.0,0.0,0.0,0.0,0.0,0.0,0.0,0.0,0.0,0.0,0.0,0.0,0.0,0.0,0.0,0.0,0.0,0.0,0.0,0.0,0.0,0.0,0.0,0.0,0.0,0.0,0.0,0.0,0.0,0.0,0.0,0.0,0.0,0.0,0.0,0.0,0.0,0.0,0.0,2.299,0.0,0.0,0.0,0.0,0.0,0.0,0.0,0.0,0.0,0.0,0.0,0.0,0.0,0.0,0.0,0.0,0.0,0.0,0.0,0.0,0.0,0.0,0.0,0.0,0.0,0.0,0.0,0.0,0.0,0.0,0.0,0.0,0.0,0.0,0.0,0.0,0.0,0.0,0.0,0.0,0.0,2.6739,3.0052,3.2305,3.2305,3.2305,3.1799,3.053,3.0664,2.9273,2.5696,2.427,0.0,0.0,0.0,0.0,0.0,0.0,0.0,0.0,0.0,0.0,0.0,0.0,0.0,0.0,0.0,0.0,0.0,0.0,0.0,0.0,0.0,0.0,0.0,0.0,0.0,0.0,0.0,0.0,0.0,0.0,0.0,0.0,0.0,0.0,0.0,0.0,0.0,0.0,0.0,0.0,0.0,0.0,0.0,0.0,0.0,0.0,0.0,0.0,0.0,0.0,0.0,0.0,0.0,0.0,0.0,0.0,0.0,0.0,0.0,0.0,2.3819,0.0,0.0,0.0,0.0,0.0,0.0,0.0,0.0,0.0,0.0,0.0,0.0,0.0,0.0,0.0,0.0,0.0,0.0,0.0,0.0,0.0,0.0,0.0,0.0,0.0,0.0,0.0,0.0,0.0,0.0,0.0,0.0,0.0,0.0,0.0,0.0,0.0,0.0,0.0,0.0,2.5436,2.8128,2.978,2.9578,2.9533,2.9281,2.8612,2.8543,2.7808,2.6014,2.4429,0.0,0.0,0.0,0.0,0.0,0.0,0.0,0.0,0.0,0.0,0.0,0.0,0.0,0.0,0.0,0.0,0.0,0.0,0.0,0.0,0.0,0.0,0.0,0.0,0.0,0.0,0.0,0.0,0.0,0.0,0.0,0.0,0.0,0.0,0.0,0.0,0.0,0.0,0.0,0.0,0.0,0.0,0.0,0.0,0.0,0.0,0.0,0.0,0.0,0.0,0.0,0.0,0.0,2.6615,2.7085,2.7656,2.7656,2.8256,2.922,2.7605,2.7946,2.9327,0.0,0.0,0.0,0.0,0.0,0.0,0.0,0.0,0.0,0.0,0.0,0.0,0.0,0.0,0.0,0.0,0.0,0.0,0.0,0.0,0.0,0.0,0.0,0.0,0.0,2.4877,2.5822,0.0,0.0,0.0,0.0,0.0,0.0,0.0,0.0,0.0,0.0,0.0,0.0,2.4347,2.6081,2.6997,2.6612,2.6552,2.6499,2.6255,2.6231,2.6114,2.5835,2.4641,2.3563,0.0,0.0,0.0,0.0,0.0,0.0,0.0,0.0,0.0,0.0,0.0,0.0,0.0,0.0,0.0,0.0,0.0,0.0,0.0,0.0,0.0,0.0,0.0,0.0,0.0,0.0,0.0,0.0,0.0,0.0,0.0,0.0,2.3988,2.4114,0.0,0.0,0.0,0.0,0.0,0.0,0.0,0.0,0.0,0.0,0.0,0.0,0.0,2.5452,2.6273,2.767,2.8656,2.9252,3.0658,3.1637,3.2236,3.2236,3.1741,3.0939,3.1769,0.0,2.8982,2.8304,0.0,0.0,0.0,0.0,0.0,0.0,0.0,0.0,0.0,0.0,0.0,0.0,0.0,0.0,0.0,0.0,0.0,0.0,0.0,0.0,0.0,0.0,2.6248,2.5481,2.6379,2.7123,0.0,2.3643,2.1468,2.1026,2.0769,0.0,0.0,0.0,0.0,0.0,0.0,0.0,2.7327,2.9102,3.0112,3.0071,3.0024,2.9589,2.8483,2.8384,2.7794,2.6403,2.6133,2.5142,2.3197,2.292,0.0,0.0,0.0,0.0,0.0,0.0,0.0,0.0,0.0,0.0,0.0,0.0,0.0,0.0,0.0,0.0,0.0,0.0,0.0,0.0,0.0,0.0,0.0,0.0,0.0,0.0,0.0,0.0,0.0,2.2332,2.3738,2.4691,2.3587,2.2433,0.0,0.0,0.0,0.0,0.0,0.0,0.0,0.0,0.0,2.7896,2.7946,2.8693,3.0175,3.0929,3.1386,3.1658,3.2365,3.2842,3.309,3.309,3.281,3.2305,3.2874,3.2411,3.1099,2.9155,2.722,2.5378,0.0,0.0,0.0,0.0,2.4018,2.3881,2.4716,2.4777,0.0,2.3248,0.0,0.0,0.0,0.0,0.0,0.0,0.0,0.0,0.0,0.0,2.5963,2.6354,2.6849,2.7182,2.6825,2.5654,2.4456,0.0,2.333,2.2287,1.9553,0.0,0.0,0.0,0.0,2.5415,2.6648,2.811,2.891,2.8661,2.8641,2.8391,2.7834,2.7784,2.7497,2.6763,2.6738,2.6309,2.5371,2.4609,2.3411,0.0,0.0,0.0,0.0,0.0,0.0,0.0,0.0,0.0,0.0,0.0,0.0,0.0,0.0,0.0,0.0,0.0,0.0,0.0,0.0,0.0,0.0,0.0,0.0,0.0,0.0,0.0,0.0,2.3662,2.4616,2.572,2.5101,2.4114,0.0,0.0,0.0,0.0,0.0,0.0,2.7329,2.7462,2.8492,3.0577,3.0633,3.1432,3.309,3.3241,3.3316,3.3316,3.3115,3.3011,3.2989,3.2634,3.2299,3.2032,3.2344,3.2121,3.1417,2.9867,2.836,2.683,2.5189,2.4164,2.3787,2.4869,2.4978,2.4839,2.605,2.6235,2.579,2.518,2.4393,2.3546,2.2971,0.0,0.0,0.0,0.0,2.3664,2.543,2.5742,2.5864,2.6934,2.7187,2.7246,2.7435,2.7422,2.7047,0.0,2.5643,2.466,2.2168,0.0,0.0,0.0,0.0,2.5864,2.6596,2.7559,2.8054,2.7695,2.7578,2.75,2.75,2.7402,2.7305,2.7187,2.7187,2.7129,2.6986,2.6289,2.5527,2.4742,0.0,0.0,0.0,0.0,0.0,0.0,0.0,0.0,0.0,0.0,0.0,0.0,0.0,0.0,0.0,0.0,0.0,0.0,0.0,0.0,0.0,0.0,0.0,0.0,0.0,0.0,0.0,0.0,0.0,2.8737,2.8637,0.0,0.0,0.0,0.0,2.6373,2.6909,2.7964,2.9553,3.0131,3.1185,3.2889,3.2939,3.2989,3.309,3.3617,3.3847,3.385,3.3104,3.2721,3.2698,3.1381,3.0158,2.9081,3.0279,2.9474,2.7568,3.1307,3.15,2.9411,2.9295,2.7909,2.6065,2.7145,2.7521,2.7546,2.7948,2.8073,2.7897,2.7132,2.5732,2.4421,2.4824,2.469,0.0,0.0,2.5936,2.6935,2.6942,2.692,2.7031,2.7545,2.7663,2.7878,2.8652,2.8516,2.7949,0.0,2.6926,2.6593,2.559,0.0,2.5825,2.6582,2.6816,2.7519,2.9188,2.9461,2.95,2.9461,2.9062,2.8801,2.8801,2.8457,2.8066,2.7682,2.7663,2.7467,2.7006,2.7734,2.7363,2.5679,2.5996,0.0,0.0,0.0,0.0,0.0,0.0,0.0,0.0,0.0,0.0,0.0,0.0,0.0,0.0,0.0,0.0,0.0,0.0,0.0,0.0,0.0,0.0,0.0,0.0,0.0,0.0,0.0,0.0,2.9503,2.9478,0.0,2.7663,2.8499,2.9126,2.9126,3.0326,3.1457,3.239,3.2616,3.3169,3.4098,3.4148,3.4148,3.4148,3.3465,3.3129,3.3106,3.1949,3.1425,3.1401,3.0923,3.0464,3.0052,3.0513,3.0198,2.9492,3.0943,3.0112,2.7932,2.7932,2.741,2.673,2.7108,2.7255,2.7264,2.7381,2.7437,2.7382,2.708,2.6576,2.6089,2.6269,2.6463,2.666,2.7061,2.7726,2.8337,2.8604,2.8652,2.8718,2.8875,2.8914,2.8992,2.9305,2.9246,2.9051,2.8738,2.8437,2.7845,2.6732,2.748,2.793,2.7103,2.7949,2.8914,2.952,2.9598,2.9598,2.9598,2.9461,2.9336,2.9336,2.9227,2.907,2.8933,2.8633,2.8535,2.8679,2.8691,2.8535,2.8203,2.8359,2.6724,0.0,0.0,0.0,0.0,0.0,0.0,0.0,0.0,0.0,0.0,0.0,0.0,0.0,0.0,0.0,0.0,0.0,0.0,0.0,0.0,0.0,0.0,0.0,0.0,0.0,2.8574,3.0005,2.9804,3.0477,3.0382,2.9076,3.0613,3.1692,3.1692,3.2918,3.3796,3.4148,3.3747,3.3648,3.4017,3.358,3.3422,3.3545,3.3362,3.3101,3.2712,3.2042,3.1487,3.0986,3.0532,3.035,3.035,3.035,3.035,3.035,3.035,2.9374,2.7865,2.7668,2.7348,2.6986,2.6986,2.6986,2.7025,2.7344,2.7539,2.7676,2.7832,2.7871,2.7871,2.7871,2.8086,2.8406,2.866,2.8926,2.9199,2.952,2.9598,2.9637,2.9774,2.9931,3.0087,3.0224,3.038,3.0478,3.0478,2.9746,2.8906,2.8203,2.9023,2.9453,2.8476,2.9297,3.0048,3.0048,3.0048,3.0048,3.0048,2.9911,2.9813,2.9813,2.954,2.9442,2.9579,2.916,2.918,2.9794,2.9219,2.9121,2.9598,2.9598,2.7995,2.4691,0.0,0.0,0.0,0.0,0.0,0.0,0.0,0.0,0.0,0.0,0.0,0.0,0.0,0.0,0.0,0.0,0.0,0.0,0.0,0.0,0.0,0.0,0.0,2.9955,3.0331,3.0487,2.9955,3.1808,3.2487,3.0839,3.2599,3.3853,3.3922,3.4335,3.4613,3.4728,3.3468,3.2746,3.277,3.154,3.1018,3.1365,3.3341,3.3779,3.2783,3.3376,3.2908,3.1502,3.019,2.9598,2.9598,2.9598,2.9598,2.9598,2.9598,2.9598,2.9533,2.9024,2.8097,2.7064,2.7064,2.7064,2.7207,2.8047,2.8594,2.9004,2.9461,2.9598,2.9598,2.9598,2.9618,2.9618,2.9637,2.9657,2.9657,2.9676,2.9676,2.9774,3.0156,3.0605,3.1035,3.1445,3.1875,3.2198,3.2198,3.083,2.9813,3.0195,3.0254,3.041,3.0859,3.0937,0.0,3.0937,3.0937,3.0918,3.0918,3.0508,3.0234,3.0215,2.9453,2.916,2.9618,2.9199,2.9336,3.0195,2.9434,2.9199,2.9676,2.9618,2.8953,2.7702,0.0,0.0,0.0,0.0,0.0,0.0,0.0,0.0,0.0,0.0,0.0,0.0,0.0,0.0,0.0,0.0,0.0,0.0,0.0,0.0,0.0,2.9047,2.9732,3.0313,3.1888,3.2792,3.2261,3.2738,3.3065,3.2993,3.2661,3.3015,3.4385,3.2814,3.2818,3.5165,3.4435,3.4075,3.4358,3.4388,3.394,3.2975,3.2582,3.2211,3.1912,3.1134,3.053,3.0135,2.9766,2.9598,2.9598,2.9598,2.9598,2.9598,2.9598,2.9598,2.9587,2.9434,2.9174,2.8894,2.8894,2.8894,2.8933,2.9168,2.9324,2.9442,2.9559,2.9598,2.9598,2.9598,2.9813,3.0098,3.0458,3.0742,3.1055,3.1397,3.1475,3.1514,3.1631,3.1749,3.1885,3.1983,3.212,3.2198,3.2198,3.1807,3.1514,3.1631,3.1651,3.169,3.1827,3.1846,0.0,3.1846,3.1846,3.1699,3.1367,3.123,3.1035,3.0723,3.0488,3.041,3.0508,3.0098,3.0234,3.1113,3.0625,3.0703,3.1475,2.9902,2.8769,0.0,0.0,0.0,0.0,0.0,0.0,0.0,0.0,0.0,0.0,0.0,0.0,0.0,0.0,0.0,0.0,0.0,0.0,0.0,0.0,0.0,0.0,3.0202,3.082,3.0954,3.2008,3.2923,3.3376,3.3442,3.3424,3.341,3.29,3.3121,3.4471,3.2781,3.2835,3.5502,3.4115,3.3324,3.3569,3.3337,3.2862,3.2184,3.202,3.1733,3.132,3.1305,3.098,3.0391,3.0595,3.0693,0.0,3.0693,3.0693,3.0693,3.0693,3.0693,0.0,0.0,0.0,0.0,0.0,2.9598,2.9657,3.0028,3.0146,3.0204,3.0576,3.0693,3.0693,3.0693,3.0849,3.1074,3.1377,3.1601,3.1855,3.214,3.2198,3.2198,3.2198,3.2335,3.2452,3.2452,3.2559,3.2695,3.2695,3.2695,0.0,3.2695,3.2433,3.2198,3.2198,3.2198,3.2198,3.2198,3.2198,3.2101,3.1816,3.1797,3.1699,3.1445,3.125,0.0,0.0,0.0,3.0976,3.1474,3.1465,0.0,0.0,0.0,0.0,0.0,0.0,0.0,0.0,2.6894,2.6562,0.0,0.0,0.0,0.0,0.0,0.0,0.0,0.0,0.0,0.0,0.0,0.0,0.0,0.0,0.0,0.0,3.1525,3.2975,3.1798,3.1412,3.1875,3.3568,3.364,3.3344,3.2911,3.303,3.3451,3.4259,3.3246,3.3491,3.5448,0.0,0.0,0.0,0.0,3.0159,3.0332,3.173,3.1974,3.1064,3.2831,3.2935,3.1572,3.2081,3.2237,3.2198,3.2198,3.2198,3.2198,3.2198,3.2198,3.2042,3.0497,2.9891,2.9891,2.9891,2.9891,3.0009,3.0791,0.0,0.0,3.1944,3.2198,3.2198,3.2198,3.2198,3.2218,3.2257,3.2276,3.2276,3.2335,3.2335,3.2335,3.2335,3.2598,3.2871,3.2871,3.3164,3.3386,3.3386,3.3386,3.3386,3.3386,3.2793,3.2335,3.2335,3.2335,3.2335,3.2335,3.2335,3.2316,3.2276,0.0,0.0,3.2198,3.1816,3.1777,3.2237,3.1973,3.1767,3.1767,3.2257,3.2492,3.2492,3.1699,3.1875,3.3008,3.2667,3.2667,3.291,2.9004,2.8249,0.0,0.0,0.0,0.0,0.0,0.0,0.0,0.0,0.0,0.0,0.0,0.0,0.0,0.0,0.0,3.0002,3.1602,3.2657,3.2581,3.2009,3.1941,3.2836,3.1973,3.1989,3.374,3.2004,3.1584,3.3607,3.1584,3.1364,3.3892,3.2901,3.221,3.21,3.2633,3.2368,3.1269,3.2235,3.2452,3.1964,0.0,0.0,3.2081,3.248,3.2511,3.2198,3.2198,3.2198,3.2198,3.2198,3.2198,3.2159,3.1827,3.169,3.169,3.169,3.169,3.171,3.1885,3.1944,3.1983,3.214,3.2198,3.2198,3.2198,3.2198,0.0,3.2578,3.2676,3.2754,3.3086,3.3184,3.3184,3.3184,3.3242,3.3269,3.3269,3.3359,3.3386,3.3386,3.3386,3.3386,3.3386,3.3281,3.3184,3.3184,3.3184,3.3184,3.3184,3.3184,3.3047,3.2715,3.2676,3.2539,3.2237,3.212,3.2257,3.2656,3.3274,3.3606,3.3606,3.3984,3.4219,3.4219,3.4043,3.4082,3.4336,3.4258,3.4258,3.4297,3.2773,3.2461,0.0,0.0,0.0,0.0,0.0,0.0,0.0,0.0,0.0,0.0,0.0,2.4973,2.5661,0.0,2.8736,2.986,3.1156,3.1916,3.1554,3.1753,3.216,3.2708,3.197,3.1845,3.2801,3.1853,3.1659,3.2912,3.1299,3.124,3.3514,3.2556,3.2122,3.2509,3.3012,3.2995,3.2461,3.2891,3.3008,3.2793,3.3437,3.3535,3.3176,3.3555,3.3516,3.3156,3.3156,3.3019,3.2793,3.2793,3.2793,3.2793,3.2793,3.2539,3.2198,3.2198,3.2198,3.2237,3.2433,3.2511,3.2519,3.2734,3.2793,3.2793,3.2793,3.2793,3.2832,3.3047,3.3105,3.3164,3.3359,3.3386,3.3386,3.3386,3.3386,3.3386,3.3386,3.3386,3.3386,3.3386,3.3386,3.3386,3.3386,3.3386,3.3386,3.3386,3.3386,3.3386,3.3386,3.3386,3.3308,3.3125,3.3105,3.3027,3.2812,3.3019,3.3332,3.3711,3.4375,3.4759,3.4759,3.4941,3.5039,3.5039,3.4824,3.4707,3.4707,3.4707,3.4824,3.5039,3.4609,3.4394,0.0,0.0,0.0,0.0,0.0,0.0,0.0,2.237,2.3325,2.4047,2.5328,2.6528,2.7237,2.7734,2.8425,2.954,3.0933,3.1553,3.0591,3.1617,3.2551,3.2679,3.2227,3.1937,3.1952,3.2037,3.2158,3.2457,3.1716,3.1939,3.3561,3.2515,3.2177,3.2891,3.3008,3.3203,3.3535,3.3679,3.3718,3.364,3.4199,3.4388,3.4251,3.4648,3.459,3.4231,3.4231,3.3945,3.3555,3.3555,3.3464,3.3386,3.3386,3.3008,3.2452,3.2452,3.2452,3.2492,3.2793,3.291,3.2969,3.3289,3.3386,3.3386,3.3386,3.3386,3.3386,3.3386,3.3386,3.3386,3.3386,3.3386,3.3386,3.3386,3.3386,3.3386,3.3386,3.3386,3.3386,3.3386,3.3386,3.3386,3.3386,3.3386,3.3386,3.3386,3.3386,3.3386,3.3386,3.3386,3.3386,3.3386,3.3386,3.3425,3.3535,3.4023,3.4505,3.4824,3.5254,3.5508,3.5508,3.5508,3.5508,3.5508,3.5156,3.4961,3.4961,3.4961,3.5156,3.5508,3.5508,3.5312,2.0742,2.0566,2.1075,2.242,2.2518,2.3184,0.0,2.63,2.58,2.7409,2.8165,2.8584,2.8672,2.9062,2.9559,3.0039,3.1722,3.2558,3.1496,3.261,3.3236,3.2366,3.1543,3.1638,3.3152,3.223,3.1919,3.2717,3.2651,3.2847,3.3383,3.3266,3.323,3.3308,3.373,3.3977,3.4036,3.4785,3.4961,3.457,3.541,3.5391,3.4648,3.5098,3.5059,3.4629,3.4629,3.4394,3.4036,3.4036,3.3769,3.3386,3.3386,3.3328,3.3281,3.3281,3.3281,3.325,3.3308,3.3328,3.3328,3.3367,3.3386,3.3386,3.3386,3.3386,3.3386,3.3386,3.3386,3.3386,3.3386,3.3386,3.3386,3.3386,3.3386,3.3386,3.3386,3.3386,3.3386,3.3386,3.3386,3.3386,3.3386,3.3386,3.3386,3.3386,3.3386,3.3386,3.3386,3.3386,3.3386,3.3386,3.3386,3.3574,3.3997,3.4766,3.5273,3.5312,3.5723,3.5923,3.5923,3.5923,3.5923,3.5923,3.5864,3.5845,3.5845,3.5845,3.5864,3.5923,3.5923,3.5884,2.473,2.4141,2.3809,2.4785,2.5054,2.5488,2.6875,2.7012,2.7207,2.8418,2.9004,2.9375,2.9609,2.9805,3.0156,3.0859,3.165,3.2185,3.2259,3.2803,3.3214,3.3278,3.3,3.2844,3.3065,3.3034,3.3047,3.3144,3.3398,3.3645,3.3789,3.3809,3.4043,3.4551,3.4746,3.4961,3.5195,3.5566,3.5664,3.5469,3.584,3.582,3.5469,3.5664,3.5508,3.5078,3.4824,3.4609,3.4434,3.4434,3.4336,3.4141,3.3906,3.3945,3.4101,3.3581,3.3386,3.3386,3.3386,3.3386,3.3386,3.3386,3.3386,3.3386,3.3386,3.3386,3.3386,3.3386,3.3386,3.3386,3.3386,3.3386,3.3386,3.3386,3.3386,3.3464,3.375,3.3809,3.3867,3.4121,3.416,3.416,3.416,3.416,3.416,3.416,3.3699,3.3386,3.3386,3.3386,3.3516,3.3769,3.4023,3.4355,3.4837,3.5176,3.5488,3.5742,3.5918,3.5982,3.5982,3.5982,3.5982,3.5982,3.5982,3.5982,3.5982,3.5982,3.5982,3.5982,3.5982,3.5982,2.649,2.6172,2.5815,2.6289,2.6973,2.7461,2.7168,2.7682,2.8386,2.8965,2.9434,2.9891,3.0312,3.0488,3.082,3.1582,3.1797,3.209,3.2715,3.3008,3.3379,3.4036,3.4329,3.4231,3.3574,3.3965,3.416,3.3984,3.4258,3.4525,3.4609,3.4609,3.4902,3.5547,3.5566,3.5723,3.6016,3.5982,3.5982,3.5982,3.5982,3.5982,3.5982,3.5982,3.5859,3.5547,3.5215,3.5,3.4883,3.4883,3.4824,3.4668,3.4388,3.4434,3.4648,3.4141,3.3809,3.3574,3.3425,3.3386,3.3386,3.3386,3.3496,3.3594,3.3594,3.3691,3.3769,3.3769,3.3769,3.3769,3.3769,3.3769,3.3769,3.3769,3.3769,3.3887,3.4368,3.4466,3.4603,3.498,3.5059,3.5059,3.5059,3.5059,3.5059,3.5059,3.4499,3.4069,3.3984,3.403,3.416,3.4238,3.4726,3.5156,3.5371,3.5508,3.5703,3.5962,3.5982,3.5982,3.5982,3.5982,3.5982,3.5982,3.6133,3.6191,3.6191,3.6309,3.6367,3.6367,3.6367,3.6367,2.4023,2.4781,2.5815,2.6289,2.7637,2.882,2.882,2.918,2.954,2.9579,2.9911,3.0312,3.0781,3.1211,3.1621,3.2101,3.2531,3.2773,3.2793,3.3547,3.4075,3.4095,3.4857,3.5351,3.5312,3.4922,3.4863,3.5293,3.5351,3.5527,3.5903,3.5923,3.5942,3.5962,3.5962,3.5982,3.5982,3.5982,3.5982,3.5982,3.5982,3.5982,3.5982,3.5982,3.5982,3.5962,3.5996,3.5742,3.5371,3.5371,3.5098,3.4707,3.4687,3.4687,3.4746,3.5176,3.4785,3.4016,3.3574,3.3386,3.3386,3.3386,3.3711,3.4095,3.4095,3.4336,3.4668,3.4668,3.4668,3.4668,3.4668,3.4668,3.4668,3.4668,3.4668,3.4785,3.5254,3.5351,3.5488,3.5864,3.5942,3.5942,3.5942,3.5942,3.5942,3.5942,3.5923,3.5801,3.5391,3.5684,3.5591,3.4766,3.5449,3.582,3.543,3.5762,3.5982,3.5982,3.5982,3.5982,3.5982,3.5982,3.5982,3.5982,3.6445,3.6695,3.6695,3.7051,3.7266,3.7266,3.7266,3.7266,2.5723,2.6465,2.7187,2.7891,2.8711,2.9355,2.9355,2.9687,2.998,2.998,3.0566,3.1035,3.0918,3.1465,3.2022,3.2179,3.255,3.2988,3.3586,3.3919,3.4329,3.4883,3.5215,3.5508,3.5781,3.5664,3.5644,3.5801,3.5801,3.5879,3.5982,3.5982,3.5982,3.5982,3.5982,3.5982,3.5982,3.5982,3.5982,3.5982,3.5982,3.5982,3.5982,3.5982,3.6172,3.6445,3.6445,3.6523,3.666,3.666,3.6562,3.6406,3.6113,3.6172,3.6367,3.5957,3.5801,3.5776,3.5293,3.5123,3.5123,3.5123,3.5059,3.4941,3.4941,3.5059,3.5098,3.4785,3.4922,3.5078,3.4785,3.4707,3.4766,3.5078,3.5156,3.5351,3.6074,3.6284,3.6367,3.6777,3.6875,3.6875,3.6875,3.6875,3.6875,3.6875,3.6387,3.5942,3.582,3.6191,3.6328,3.6069,3.6523,3.6816,3.666,3.6777,3.6875,3.6875,3.6875,3.6875,3.6875,3.6875,3.6875,3.6875,3.7012,3.709,3.709,3.7226,3.7305,3.7305,3.7305,3.7305,2.6934,2.7585,2.8112,2.8945,2.9473,2.9813,2.9813,3.0137,3.0488,3.0644,3.0742,3.0879,3.1074,3.1445,3.1885,3.2355,3.2734,3.332,3.418,3.4297,3.457,3.5312,3.5527,3.5723,3.5962,3.5982,3.5982,3.5982,3.5982,3.5982,3.5982,3.5982,3.5982,3.5982,3.5982,3.5982,3.5982,3.5982,3.6094,3.625,3.6406,3.6484,3.6484,3.6484,3.6621,3.6894,3.6894,3.7051,3.7305,3.7305,3.7305,3.7266,3.7047,3.7051,3.7246,3.6855,3.6875,3.7012,3.6269,3.5982,3.5982,3.5982,3.5937,3.5859,3.5859,3.5957,3.6016,3.5703,3.584,3.5996,3.5703,3.5625,3.5703,3.5996,3.6074,3.6269,3.6973,3.7129,3.7246,3.7676,3.7754,3.7754,3.7754,3.7754,3.7754,3.7754,3.7285,3.6816,3.6504,3.6992,3.7262,3.6968,3.7266,3.7461,3.7305,3.7305,3.7305,3.7305,3.7305,3.7305,3.7305,3.7305,3.7305,3.7305,3.7441,3.7519,3.7519,3.7676,3.7754,3.7754,3.7754,3.7754,2.7506,2.8073,2.8621,2.9422,2.995,3.0234,3.0234,3.0586,3.1016,3.1367,3.0488,3.0028,3.1172,3.1152,3.1348,3.2539,3.3164,3.3757,3.4609,3.4726,3.4902,3.5371,3.5781,3.5982,3.5982,3.5982,3.5982,3.5982,0.0,3.5982,3.5982,3.5982,3.5982,3.5982,3.5982,3.5982,3.5982,3.6001,3.6269,3.6734,3.7109,3.7305,3.7305,3.7305,3.7305,3.7324,3.7324,3.7344,3.7363,3.7363,3.7363,3.7363,3.7363,3.7363,3.7402,3.7812,3.7933,3.7757,3.6528,3.6118,3.6118,3.6118,3.6406,3.6773,3.6773,3.7012,3.7324,3.7305,3.7305,3.7324,3.7305,3.7305,3.7305,3.7324,3.7324,3.7441,3.7835,3.7933,3.8086,3.8552,3.8669,3.8689,3.8689,3.8689,3.8689,3.8689,3.865,3.8301,3.748,3.8102,3.8298,3.7441,3.7715,3.7793,3.7402,3.7363,3.7363,3.7363,3.7363,3.7363,3.7363,3.7363,3.7363,3.7363,3.7754,3.7933,3.7933,3.8379,3.863,3.865,3.865,3.865,2.8015,2.8906,2.9766,2.998,3.0371,3.0703,3.0703,3.1055,3.1211,3.0644,3.0547,3.0351,2.9707,3.082,3.1866,3.1836,3.3262,3.457,3.5137,3.5215,3.5371,3.5801,3.5923,3.5982,3.5982,3.5982,3.5982,3.5982,3.5982,3.5982,3.5982,3.5982,3.5982,3.5982,3.5982,3.5982,3.5982,3.6348,3.6719,3.7148,3.7246,3.7305,3.7305,3.7305,3.7461,3.7773,3.7773,3.7949,3.8278,3.8278,3.8278,3.8278,3.8278,3.8278,3.8298,3.8359,3.8418,3.8359,3.8027,3.793,3.793,3.793,3.7773,3.7598,3.7598,3.7676,3.7695,3.7383,3.7519,3.7695,3.7383,3.7305,3.7383,3.7695,3.7773,3.7891,3.832,3.8418,3.8535,3.8965,3.9316,3.9551,3.9551,3.9551,3.9551,3.9551,3.9258,3.8848,3.8356,3.8474,3.8496,3.8281,3.834,3.8359,3.8298,3.8278,3.8278,3.8278,3.8278,3.8278,3.8278,3.8278,3.8278,3.8278,3.8359,3.8418,3.8418,3.8552,3.873,3.9043,3.9043,3.9219,2.873,2.9668,3.0508,3.0508,3.0703,3.084,3.0625,3.0762,3.0684,2.9824,2.9551,2.9285,2.8496,3.0009,3.1348,3.1474,3.3301,3.4922,3.5566,3.5508,3.5547,3.5942,3.5982,3.5982,3.5982,3.5982,3.5982,3.5982,3.5982,3.5982,3.5982,3.5982,3.5982,3.5982,3.5982,3.6113,3.6309,3.6914,3.7344,3.7578,3.7773,3.7851,3.7851,3.7851,3.7988,3.8203,0.0,3.8359,3.8611,3.8611,3.8611,3.8611,3.8611,3.8611,3.863,3.8826,3.8848,3.8887,3.9082,3.916,3.9101,3.8728,3.8418,3.8203,3.8203,3.8203,3.8203,3.8144,3.8301,3.8476,3.8437,3.8437,3.8496,3.873,3.8789,3.8867,3.9101,3.916,3.9219,3.9453,3.9726,3.9902,3.9902,3.9902,3.9902,3.9902,3.9668,3.9414,3.918,3.8984,3.8926,3.9141,3.916,3.916,3.916,3.916,3.916,3.916,3.916,3.916,3.916,3.916,3.916,3.916,3.916,3.916,3.916,3.916,3.9277,3.9512,3.9512,3.9648,2.95,3.0243,3.0898,3.0898,3.0898,3.0762,3.0234,3.0117,2.9863,2.8945,2.8125,2.7585,2.7526,2.8914,3.0332,3.1289,3.3223,3.4941,3.5845,3.5703,3.5605,3.5976,3.5982,3.5982,3.5982,3.5982,3.5982,3.5982,3.5982,3.5982,3.5982,3.5982,3.6035,3.6094,3.6118,3.6406,3.6871,3.7559,3.7913,3.8008,3.8398,3.8611,3.8611,3.8611,3.8611,3.8611,3.8611,0.0,3.8611,3.8611,3.865,3.8689,3.8689,3.8728,3.8789,3.916,3.9297,3.9355,3.9766,3.9902,3.9766,3.9041,3.875,3.875,3.875,3.875,3.8865,3.9199,3.9297,3.9394,3.9785,3.9902,3.9902,3.9902,3.9902,3.9902,3.9902,3.9941,3.998,3.998,4.0019,4.0059,4.0059,4.0059,4.0059,4.0059,4.0019,4.0,4.0059,3.9609,3.9453,3.9863,3.9902,3.9902,3.9902,3.9902,3.9902,3.9902,3.9902,3.9902,3.9902,3.9902,3.9902,3.9902,3.9902,3.9902,3.9902,3.9902,3.9922,3.998,3.998,4.0019,2.9579,3.0243,3.0898,3.0898,3.0898,3.0684,2.9891,2.9696,2.9364,2.8151,2.748,2.7012,2.6705,2.7988,2.9551,3.0801,3.2793,3.4609,3.5806,3.5923,3.5903,3.5982,3.5982,3.5982,3.5982,3.5982,3.5982,3.5982,3.5982,3.5982,3.5982,3.5982,3.6191,3.6577,3.6894,3.7285,3.7695,3.7816,3.8105,3.8457,3.8571,3.8611,3.8611,3.8611,3.8611,3.8611,3.8611,0.0,3.8611,3.8611,3.8826,3.9101,3.9101,3.9336,3.9668,3.9746,3.9766,3.9785,3.9863,3.9902,3.9883,3.9726,3.9668,3.9668,3.9668,3.9668,3.9687,3.9766,3.9766,3.9785,3.9883,3.9902,3.9902,3.9902,3.9902,3.9902,3.9902,4.0176,4.041,4.041,4.0703,4.0957,4.0957,4.0957,4.0957,4.0957,4.0644,4.0547,4.0898,4.0254,3.9805,3.9883,3.9902,3.9902,3.9902,3.9902,3.9902,3.9902,3.9902,3.9902,3.9902,3.9902,3.9902,3.9902,3.9902,3.9902,3.9902,3.9902,4.0078,4.041,4.041,4.0605,2.9598,3.0243,3.0898,3.0898,3.0898,3.0605,2.9492,2.9062,2.8445,2.6705,2.6177,2.5879,2.5449,2.7129,2.8945,3.0048,3.2413,3.4407,3.5215,3.5723,3.5982,3.5982,3.5982,3.5982,3.5982,3.5982,3.5982,3.5982,3.5982,3.5982,3.5982,3.623,3.6562,3.6992,3.7402,3.7679,3.7894,3.8144,3.8359,3.8611,3.8611,3.8611,3.8611,3.8611,3.8611,3.8611,3.8611,0.0,3.863,3.8845,3.9023,3.9219,3.9473,3.9707,3.9922,4.0137,4.0215,4.0254,4.0488,4.0605,4.0605,4.0605,4.0254,3.9902,3.9902,3.9902,3.9941,4.0156,4.0215,4.0273,4.0508,4.0605,4.0605,4.0605,4.0605,4.0605,4.0605,4.0723,4.0859,4.0859,4.1035,4.1211,4.1211,4.1211,4.1211,4.1211,4.0996,4.0937,4.1191,4.0859,4.0605,4.0605,4.0605,4.0605,4.0605,4.0605,4.0605,4.0605,4.0605,4.0605,4.0605,4.0605,4.0605,4.0605,4.0605,4.0605,4.0605,4.0605,4.0664,4.0859,4.0859,4.0976,2.9598,3.0243,3.0898,3.0898,3.0898,3.0488,2.8984,2.832,2.7461,2.5493,2.4945,2.4789,2.4684,2.6445,2.8288,2.9403,3.1827,3.3809,3.459,3.5391,3.5884,3.5982,3.5982,3.5982,3.5982,3.5982,3.5982,3.5982,3.6079,0.0,3.6152,3.666,3.709,3.7422,3.7832,3.8066,3.8066,3.8398,3.8611,3.8611,3.8611,3.8611,3.8611,3.8611,3.8611,3.8611,3.8708,0.0,0.0,3.918,3.9394,3.9531,3.9883,4.0078,4.0215,4.0547,4.0664,4.0703,4.1055,4.1211,4.1211,4.1211,4.0723,4.0176,4.0176,4.0176,4.0234,4.0566,4.0664,4.0742,4.1074,4.1211,4.1211,4.1211,4.1211,4.1211,4.1211,4.1211,4.1211,4.1211,4.1211,4.1211,4.1211,4.1211,4.1211,4.1211,4.1211,4.1211,4.1211,4.1211,4.1211,4.1211,4.1211,4.1211,4.1211,4.1211,4.1211,4.1211,4.1211,4.1211,4.1211,4.1211,4.1211,4.1211,4.1211,4.1211,4.1211,4.1211,4.1211,4.1211,4.1211,4.1211,2.9598,3.0243,3.0898,3.0898,3.0898,3.038,2.8288,2.7441,2.6738,2.5375,2.4476,2.4258,2.5386,2.6133,2.7252,2.9266,3.0801,3.2441,3.4414,3.5137,3.5586,3.5976,3.5982,3.5982,3.5982,3.5982,3.5982,3.5982,3.6387,0.0,3.6656,3.7363,3.7832,3.7835,3.8281,3.8552,3.8552,3.8591,3.8611,3.8611,3.8611,3.8611,3.8611,3.8611,3.8611,3.863,3.8984,0.0,0.0,3.9648,4.0059,4.0372,4.0449,4.0703,4.1055,4.1132,4.1152,4.1152,4.1211,4.1211,4.1211,4.1211,4.1152,4.1093,4.1093,4.1093,4.1093,4.1152,4.1152,4.1152,4.1211,4.1211,4.1211,4.1211,4.1211,4.1211,4.1211,4.1211,4.1211,4.1211,4.1211,4.1211,4.1211,4.1211,4.1211,4.1211,4.1211,4.1211,4.1211,4.1211,4.1211,4.1211,4.1211,4.1211,4.1211,4.1211,4.1211,4.1211,4.1211,4.1211,4.1211,4.1211,4.1211,4.1211,4.1211,4.1211,4.1211,4.1211,4.1211,4.1211,4.1211,4.1211,2.952,3.0243,3.0898,3.0898,3.0684,3.0039,2.8445,2.7305,2.6348,2.5317,2.4418,2.4124,2.5137,2.5918,2.6914,2.8535,3.0117,3.1621,3.3019,3.4219,3.5039,3.5215,3.5684,3.5982,3.5982,3.5982,3.6133,3.6387,0.0,0.0,3.7422,3.7734,3.8047,3.8301,3.8476,3.8611,3.8611,3.8611,3.8611,3.8611,3.8611,3.8611,3.8611,3.8611,3.8747,3.8965,3.9121,0.0,0.0,4.0098,4.0371,4.0547,4.082,4.1016,4.1211,4.1211,4.1211,4.1211,4.1211,4.1211,4.1211,4.1211,4.1211,4.1211,4.1211,4.1211,4.1211,4.1211,4.1211,4.1211,4.1211,4.1211,4.1211,4.1211,4.1211,4.1211,4.1211,4.1211,4.1211,4.1211,4.1211,4.1211,4.1211,4.1211,4.1211,4.1211,4.1211,4.1211,4.1211,4.1211,4.1211,4.1211,4.1211,4.1211,4.1211,4.1211,4.1211,4.1211,4.1211,4.1211,4.1211,4.1211,4.1211,4.1211,4.1211,4.1348,4.1543,4.1543,4.168,4.1933,4.1933,4.1933,2.9481,3.0243,3.0898,3.0898,3.0449,2.9648,2.8242,2.7129,2.6099,2.4945,2.4316,2.4238,2.5121,2.5781,2.666,2.8066,2.9531,3.0967,3.2198,3.3625,3.4648,3.5039,3.5644,3.5982,3.5982,3.6133,3.6387,3.6816,0.0,0.0,3.8105,3.8125,3.8262,3.8591,3.8611,3.8611,3.8611,3.8611,3.8611,3.8611,3.8611,3.8611,3.8611,3.8711,3.8926,3.9219,3.9473,0.0,0.0,4.0547,4.0723,4.0742,4.1055,4.1211,4.1211,4.1211,4.1211,4.1211,4.1211,4.1211,4.1211,4.1211,4.0763,4.0217,4.0217,4.0685,4.1055,4.0392,3.9786,3.9295,3.9295,3.9295,3.9295,3.9295,3.9295,3.9295,3.9295,3.9295,3.9295,3.9295,3.9295,3.9295,3.9295,3.9295,3.9295,3.9295,3.9295,3.9295,3.9295,3.9295,3.9295,3.9295,3.9295,3.9786,4.1094,4.0588,4.0509,4.1172,3.9982,3.9588,4.0329,3.9719,3.944,3.9512,3.9531,3.9999,4.0979,4.0979,4.1471,4.2382,4.2382,4.2382,2.9481,3.0243,3.0898,3.0898,3.0263,2.9149,2.7422,2.6699,2.5898,2.416,2.4121,2.4664,2.5542,2.5693,2.6284,2.8008,2.9051,3.0361,3.248,3.3567,3.4551,3.5859,3.5982,3.5982,3.5982,3.6406,3.6871,0.0,0.0,0.0,3.8591,3.8611,3.8611,3.8611,3.8611,3.8611,3.8611,3.8611,3.8611,3.8611,3.8611,3.8611,3.863,3.9004,3.9199,0.0,0.0,0.0,0.0,4.0976,4.1211,4.1211,4.1211,4.1211,4.1211,4.1211,4.1211,4.1211,4.1211,4.1211,4.1211,4.1211,3.9728,3.7935,3.7935,3.9453,4.0724,3.8548,3.6402,3.4773,3.4773,3.4773,3.4773,3.4773,3.4773,3.4773,3.4773,3.4773,3.4773,3.4773,3.4773,3.4773,3.4773,3.4773,3.4773,3.4773,3.4773,3.4773,3.4773,3.4773,3.4773,3.4773,3.4773,3.6522,4.0841,3.9198,3.8882,4.1055,3.7139,3.5831,3.8253,3.6287,3.5303,3.5541,3.5583,3.6724,3.9027,3.9027,4.0206,4.2382,4.2382,4.2382,2.8496,2.9364,3.0009,3.0009,2.9364,2.8398,2.7266,2.644,2.5703,2.4867,2.4789,2.5137,2.6016,2.6381,2.724,2.9258,3.0098,3.1113,3.2969,3.3965,3.4648,3.5059,3.5644,3.5982,3.5982,3.668,3.7148,0.0,0.0,0.0,3.8611,3.8611,3.8611,3.8611,3.8611,3.8611,3.8611,3.8611,3.8611,3.8611,3.8867,3.9004,3.9023,3.9473,3.9844,0.0,0.0,0.0,0.0,4.1152,4.1211,4.1211,4.1211,4.1211,4.1211,4.1211,4.1211,4.1211,4.1211,4.0236,3.8922,3.8922,3.7498,3.5753,3.5927,3.6368,3.6602,3.592,3.5505,3.5204,3.5039,3.5114,3.5253,3.5253,3.5253,3.5253,3.5253,3.5253,3.5253,3.5253,3.5253,3.5253,3.5253,3.5253,3.5253,3.5253,3.5253,3.5253,3.5253,3.5253,3.5253,3.5253,3.5253,3.5648,3.6654,3.6264,3.6296,3.6986,3.5904,3.5593,3.6331,3.5709,3.54,3.5515,3.5515,3.6801,3.9424,3.9424,4.0763,4.326,4.1681,4.0939,2.7402,2.8437,2.9109,2.9109,2.8347,2.7383,2.6674,2.5971,2.5312,2.473,2.5004,2.5547,2.6275,2.6602,2.7363,2.918,2.9863,3.0801,3.2676,3.3691,3.4453,3.5117,3.5684,3.5982,3.5982,3.6797,0.0,0.0,0.0,0.0,3.8611,3.8611,3.8611,3.8611,3.8611,3.8611,3.8611,3.8611,3.8689,3.8809,3.9082,3.9297,3.9473,3.9922,4.0273,0.0,0.0,0.0,0.0,4.1211,4.1211,4.1211,4.1211,4.1211,4.1211,4.1211,4.0685,3.9943,3.9943,3.8618,3.6851,3.6851,3.5479,3.367,3.3013,3.3255,3.3788,3.3788,3.3437,3.2998,3.2842,3.2934,3.3059,3.3059,3.3059,3.3059,3.3059,3.3059,3.3059,3.3059,3.3059,3.3059,3.3059,3.3059,3.3059,3.3059,3.3059,3.3059,3.3059,3.3059,3.3059,3.3059,3.3059,3.2934,3.2605,3.3495,3.4398,3.5187,3.385,3.3488,3.4419,3.3669,3.3261,3.3383,3.3383,3.4676,3.725,3.814,3.9418,4.1076,3.9649,3.904,0.0,2.7363,2.8066,2.8105,2.7187,2.6191,2.5757,2.5371,0.0,2.4066,2.4859,2.5874,2.6387,2.647,2.6875,2.8262,2.8828,2.9863,3.2022,3.3047,3.4186,3.5845,3.6001,3.6001,3.6079,3.6836,0.0,0.0,0.0,0.0,3.8611,3.8611,3.8611,3.8611,3.8611,3.8611,3.8611,3.865,3.8809,3.9199,3.9258,3.9531,3.9961,4.0371,4.0528,0.0,0.0,0.0,0.0,4.1211,4.1211,4.1211,4.1211,4.1094,4.0977,4.0977,3.957,3.7697,3.7693,3.646,3.4825,3.4718,3.3515,3.1711,2.9653,3.0448,3.2124,3.2052,3.0621,2.9055,2.9028,2.9041,2.9055,2.9055,2.9055,2.9055,2.9055,2.9055,2.9055,2.9055,2.9055,2.9055,2.9055,2.9055,2.9055,2.9055,2.9055,2.9055,2.9055,2.9055,2.9055,2.9055,2.9055,2.9055,2.9055,3.0923,3.2962,3.4961,3.1267,3.0122,3.2411,3.0588,2.9646,2.9913,3.0048,3.1226,3.3395,3.5663,3.6804,3.682,3.6648,3.6758,2.3376,0.0,2.5923,2.6225,2.5859,2.5375,0.0,2.516,2.5024,2.4828,2.5293,2.605,2.7194,2.709,2.7617,2.9902,3.0625,3.1543,3.3391,3.4648,3.5684,3.6426,3.623,3.6269,3.6934,3.7187,0.0,0.0,0.0,3.8611,3.8611,3.8611,3.8611,3.8611,3.8611,3.8611,3.8611,3.8887,3.9101,3.9199,3.9883,4.0235,4.0352,4.082,4.1016,0.0,0.0,0.0,4.1211,4.1211,4.1211,4.1211,4.1211,4.0197,3.8666,3.8666,3.7299,3.547,3.5699,3.4373,3.2335,3.0895,3.0316,3.0055,2.9555,2.9761,3.0088,2.9854,2.9748,2.9659,2.9432,2.9539,2.9713,2.9713,2.9713,2.9713,2.9713,2.9713,2.9713,2.9713,2.9713,2.9713,2.9713,2.9713,2.9713,2.9713,2.9713,2.9713,2.9713,2.9713,2.9713,2.9713,2.9713,2.9713,2.9713,2.9971,3.0348,3.0858,3.0141,2.9949,3.0551,3.0074,2.9847,2.9913,3.1657,3.2867,3.3395,3.5663,3.6936,3.7129,3.5332,3.4676,2.1796,2.332,2.4824,2.5054,2.4941,2.4766,2.4766,2.4766,2.4766,2.4766,2.5269,2.605,2.7168,2.7656,2.8418,3.0048,3.1309,3.2715,3.4434,3.5625,3.6406,3.6675,3.6465,3.6504,0.0,0.0,0.0,0.0,0.0,3.8611,3.8611,3.8611,3.8611,3.8611,3.8611,3.8611,3.8611,3.8984,3.9316,3.9531,4.0195,4.0625,4.084,4.1074,4.1211,0.0,0.0,0.0,4.1133,4.0099,4.0275,4.1016,3.9001,3.8112,3.7795,3.6915,3.5225,3.3388,3.3693,3.2468,3.0593,2.9677,2.9553,2.9686,2.9686,2.9686,2.9646,2.9442,2.9673,2.9887,2.9726,2.9793,2.9913,2.9913,2.9913,2.9913,2.9913,2.9913,2.9913,2.9913,2.9913,2.9913,2.9913,2.9913,2.9913,2.9913,2.9913,2.9913,2.9913,2.9913,2.9913,2.9913,2.9913,2.9913,2.9913,2.9766,2.9686,2.9686,2.9833,2.9913,2.9913,2.9913,2.9913,2.9913,3.1137,3.1776,3.179,3.3028,3.3734,3.3871,3.2757,3.237,2.1113,2.283,2.4297,2.4137,2.4196,2.4316,2.4316,2.4352,2.443,2.4567,2.5249,2.6147,2.7285,2.8254,2.918,2.997,3.1749,3.3555,3.5176,3.6108,3.6597,3.6597,3.6597,0.0,3.6792,0.0,0.0,0.0,0.0,3.8611,3.8611,3.8611,3.8611,3.8611,3.8611,3.865,3.8708,3.9101,3.9531,4.0,4.043,4.082,4.1211,4.1211,4.1211,4.1211,0.0,0.0,4.0568,3.8666,3.8803,3.9825,3.6161,3.5615,3.6764,3.5187,3.3239,3.1429,3.1751,3.0861,2.9593,2.9833,2.9913,2.9913,2.9913,2.9913,2.9913,2.9913,2.9913,2.9913,2.9913,2.9913,2.9913,2.9913,2.9913,2.9913,2.9913,2.9913,2.9913,2.9913,2.9913,2.9913,2.9913,2.9913,2.9913,2.9913,2.9913,2.9913,2.9913,2.9913,2.9913,2.9913,2.9913,2.9913,2.9913,2.9913,2.9913,2.9913,2.9913,2.9913,2.9913,2.9913,2.9913,2.9913,2.9913,2.9913,2.9913,2.9913,2.9967,3.006,3.0314,3.0654,2.1777,2.3086,2.3711,2.2988,2.3359,2.3887,2.3887,2.416,2.4606,2.5367,2.5913,2.6992,2.9277,2.9277,2.9668,3.1934,3.3184,3.4271,3.5254,3.582,3.6113,3.6113,0.0,3.6406,0.0,0.0,0.0,0.0,0.0,3.8611,3.8611,3.8611,3.8611,3.8611,3.8611,3.875,3.9101,3.9551,4.0,4.0391,4.0859,4.1152,4.1211,4.1211,4.1211,4.1211,0.0,4.0138,3.839,3.8015,3.7042,3.5638,3.4935,3.3893,3.2714,3.24,3.1063,2.9469,2.9825,2.9903,2.986,2.99,2.9913,2.9913,2.9913,2.9913,2.9913,2.9913,2.9913,2.9913,2.9913,2.9913,2.9913,2.9913,2.9913,2.9913,2.9913,2.9913,2.9913,2.9913,2.9913,2.9913,2.9913,2.9913,2.9913,2.9913,2.9913,2.9913,2.9913,2.9913,2.9913,2.9913,2.9913,2.9913,2.9913,2.9913,2.9913,2.9913,2.9913,2.9913,2.9913,2.9913,2.9913,2.9913,2.9913,2.9913,2.9913,2.9913,3.0167,3.0662,3.0702,3.1022,2.0996,2.2266,2.3223,2.3769,2.5082,2.6211,2.6211,2.6543,2.6869,2.709,2.7461,2.8262,2.9902,3.0449,3.1523,3.4121,3.4473,3.4726,3.5605,3.5703,3.5762,0.0,0.0,0.0,0.0,0.0,0.0,0.0,0.0,0.0,3.8611,3.8611,3.8611,3.8611,3.8789,3.9121,3.957,4.0019,4.0332,4.0489,4.0976,4.1211,4.1211,4.1211,4.1211,4.1211,0.0,3.9943,3.7816,3.6642,3.5581,3.4465,3.2266,3.1556,3.172,3.0866,3.0106,2.9495,2.9673,2.9806,2.9913,2.9913,2.9913,2.9913,2.9913,2.9913,2.9913,2.9913,2.9913,2.9913,2.9913,2.9913,2.9913,2.9913,2.9913,2.9913,2.9913,2.9913,2.9913,2.9913,2.9913,2.9913,2.9913,2.9913,2.9913,2.9913,2.9913,2.9913,2.9913,2.9913,2.9913,2.9913,2.9913,2.9913,2.9913,2.9913,2.9913,2.9913,2.9913,2.9913,2.9913,2.9913,2.9913,2.9913,2.9913,2.9993,3.0154,3.0154,3.0381,3.0795,3.0955,3.1169,2.1035,2.2129,2.3281,2.5219,2.6724,2.7793,2.8203,2.8457,2.8652,2.873,2.9082,2.9707,3.0762,3.1983,3.3379,3.5254,3.5078,3.4941,3.5591,3.543,3.5312,3.5547,0.0,0.0,0.0,0.0,0.0,0.0,0.0,0.0,3.8611,3.8611,3.8611,3.8611,3.8984,3.9434,3.9883,4.0312,4.0586,4.0684,4.1016,4.1211,4.1211,4.1211,4.0919,4.0431,4.0431,3.8882,3.6224,3.4611,3.3658,3.2948,2.9845,2.9672,3.1151,3.0025,2.9726,2.9913,2.9913,2.9913,2.9913,2.9913,2.9913,2.9913,2.9913,2.9913,2.9913,2.9913,2.9913,2.9913,2.9913,2.9913,2.9913,2.9913,2.9913,2.9913,2.9913,2.9913,2.9913,2.9913,2.9913,2.9913,2.9913,2.9913,2.9913,2.9913,2.9913,2.9913,2.9913,2.9913,2.9913,2.9913,2.9913,2.9913,2.9913,2.9913,2.9913,2.9913,2.9913,2.9913,2.9913,2.9913,2.9913,2.9913,2.9913,3.006,3.04,3.04,3.0587,3.0902,3.1196,3.137,2.3337,2.3926,2.432,2.6881,2.6699,2.6303,2.793,2.8034,2.823,2.9746,3.043,3.125,3.2859,3.3926,3.4453,3.4271,3.4492,3.4726,3.4785,0.0,3.4609,0.0,0.0,0.0,0.0,0.0,0.0,0.0,0.0,0.0,3.8611,3.8611,3.8611,3.8611,3.8984,3.9434,3.9883,4.0312,4.0723,4.1172,4.1191,4.1211,4.1211,4.1211,4.006,3.8134,3.8134,3.5742,3.1846,3.1681,3.0614,2.8992,2.8719,2.9025,2.9666,2.9811,2.99,2.9913,2.9913,2.9913,2.9913,2.9913,2.9913,2.9913,2.9913,2.9913,2.9913,2.9913,2.9913,2.9913,2.9913,2.9913,2.9913,2.9913,2.9913,2.9913,2.9913,2.9913,2.9913,2.9913,2.9913,2.9913,2.9913,2.9913,2.9913,2.9913,2.9913,2.9913,2.9913,2.9913,2.9913,2.9913,2.9913,2.9913,2.9913,2.9913,2.9913,2.9913,2.9913,2.9913,2.9913,2.9913,2.9913,2.9913,2.9913,3.006,3.04,3.04,3.0648,3.1196,3.1503,3.1784,2.2845,2.414,2.5459,2.689,2.7695,2.8437,2.9629,3.0224,3.083,3.1953,3.2344,3.2754,3.3652,3.4297,3.4648,3.4492,3.4375,3.4349,3.4349,3.4082,0.0,0.0,0.0,0.0,0.0,0.0,0.0,0.0,0.0,0.0,3.8611,3.8611,3.8611,3.8611,3.9258,3.9726,3.9902,4.0586,4.0317,3.9158,4.0548,4.047,3.9158,3.9158,3.8666,3.7816,3.6482,3.4205,3.1407,3.1575,3.0423,2.8644,2.9005,2.9392,2.9766,2.9873,2.9913,2.9913,2.9913,2.9913,2.9913,2.9913,2.9913,2.9913,2.9913,2.9913,2.9913,2.9913,2.9913,2.9913,2.9913,2.9913,2.9913,2.9913,2.9913,2.9913,2.9913,2.9913,2.9913,2.9913,2.9913,2.9913,2.9913,2.9913,2.9913,2.9913,2.9913,2.9913,2.9913,2.9913,2.9913,2.9913,2.9913,2.9913,2.9913,2.9913,2.9913,2.9913,2.9913,2.9913,2.9913,2.9913,3.0007,3.0194,3.0368,3.0702,3.1216,3.1403,3.165,3.2051,3.2206,3.2326,2.3901,2.4889,2.6131,2.7302,2.8398,2.954,3.0801,3.169,3.2511,3.3594,3.3828,3.3926,3.4251,3.4277,3.4297,3.4297,3.4062,3.3867,3.3867,0.0,0.0,0.0,0.0,0.0,0.0,0.0,0.0,0.0,0.0,0.0,0.0,3.8611,3.8669,3.8806,3.9512,3.9961,4.0098,4.082,3.9746,3.6922,3.9119,3.9001,3.6882,3.6882,3.6522,3.5782,3.4286,3.2443,3.0516,3.0733,3.0041,2.8938,2.9432,2.974,2.9913,2.9913,2.9913,2.9913,2.9913,2.9913,2.9913,2.9913,2.9913,2.9913,2.9913,2.9913,2.9913,2.9913,2.9913,2.9913,2.9913,2.9913,2.9913,2.9913,2.9913,2.9913,2.9913,2.9993,3.006,3.006,3.0127,3.0167,3.0074,3.0127,3.0167,3.0074,3.014,3.0194,3.0194,3.0194,3.0194,3.0194,3.0114,3.0087,3.0181,3.0114,3.01,3.0181,3.01,3.006,3.006,3.006,3.0234,3.0621,3.0822,3.1223,3.181,3.2011,3.2251,3.2594,3.2688,3.2728,2.7149,2.648,2.6269,2.8352,2.8613,2.8906,3.1035,3.1875,3.2687,3.4355,3.4687,3.4687,3.4687,3.4004,3.3386,3.3386,3.3386,3.3386,3.3386,0.0,0.0,0.0,0.0,0.0,0.0,0.0,0.0,0.0,0.0,0.0,0.0,3.8611,3.8769,3.9199,3.9648,4.0098,4.0527,4.0957,3.9001,3.4732,3.6842,3.6722,3.4651,3.4651,3.3472,3.1392,3.1366,3.0335,2.8604,2.8617,2.8965,2.9513,2.9806,2.9913,2.9913,2.9913,2.9913,2.9913,2.9913,2.9913,2.9913,2.9913,2.9913,2.9913,2.9913,2.9913,2.9913,2.9913,2.9913,2.9913,2.9913,2.9913,2.9913,2.9913,2.9927,2.9927,2.9927,3.0154,3.0413,3.0413,3.0641,3.0702,3.0467,3.0595,3.0702,3.0453,3.0608,3.0795,3.0795,3.0795,3.0795,3.0795,3.0587,3.052,3.0768,3.0574,3.0533,3.0768,3.0574,3.0413,3.0413,3.0413,3.0635,3.1223,3.1189,3.153,3.2104,3.2118,3.2265,3.2607,3.2902,3.2986,2.615,2.7537,2.9095,2.8245,2.9766,3.1621,3.2266,3.2519,3.3008,3.4414,3.4473,3.429,3.429,3.3789,3.3386,3.3386,3.3386,3.3386,0.0,0.0,0.0,0.0,0.0,0.0,0.0,0.0,0.0,0.0,0.0,0.0,0.0,3.8611,3.8769,3.9199,3.9648,4.0098,4.0527,3.9403,3.7458,3.4692,3.3757,3.2981,3.2381,3.2381,3.2011,3.1324,3.0014,2.9094,2.8644,2.9058,2.9446,2.9793,2.9887,2.9913,2.9913,2.9913,2.9913,2.9913,2.9913,2.9913,2.9913,2.9913,2.9913,2.9913,2.9913,2.9913,2.9913,2.9913,2.9913,2.9967,3.0181,3.0266,3.0266,3.0266,3.0381,3.0528,3.0528,3.0608,3.0662,3.0662,3.0742,3.0768,3.0675,3.0742,3.0768,3.0675,3.0742,3.0795,3.0795,3.0795,3.0795,3.0795,3.0715,3.0702,3.0782,3.0715,3.0702,3.0782,3.0715,3.0755,3.0955,3.0969,3.1249,3.1837,3.2051,3.2393,3.2719,3.2919,3.3066,3.316,3.324,3.328,2.7846,2.9189,3.07,3.0102,3.1133,3.2461,3.3144,3.3437,3.3769,3.4551,3.4388,3.4114,3.4114,3.3711,3.3386,3.3386,3.3386,0.0,0.0,0.0,0.0,0.0,0.0,0.0,0.0,0.0,0.0,0.0,0.0,0.0,0.0,3.8611,3.8884,3.9453,3.9746,4.0176,4.0781,3.8871,3.6802,3.4651,3.2463,3.0951,3.0135,3.0135,3.0135,3.008,2.9176,2.8845,2.8991,2.9459,2.9753,2.9913,2.9913,2.9913,2.9913,2.9913,2.9913,2.9913,2.9913,2.9913,2.9913,2.9913,2.9913,2.9913,2.9913,2.9993,3.01,3.01,3.0181,3.0301,3.0533,3.0667,3.0675,3.0555,3.0662,3.0795,3.0795,3.0889,3.0969,3.0969,3.1062,3.1102,3.0982,3.1062,3.1102,3.0982,3.1062,3.1142,3.1142,3.1036,3.1009,3.1129,3.1036,3.1009,3.1129,3.1036,3.1062,3.1303,3.1209,3.137,3.1904,3.1583,3.1677,3.2265,3.2621,3.2915,3.3146,3.332,3.3414,3.3414,3.3414,3.3414,3.0893,3.0958,3.1417,3.2851,3.25,3.2148,3.3743,3.4375,3.4648,3.4648,3.4297,3.4055,3.4055,3.3691,3.3386,3.3386,0.0,0.0,0.0,0.0,0.0,0.0,0.0,0.0,0.0,0.0,0.0,0.0,0.0,0.0,0.0,3.865,3.9023,3.9863,3.9941,4.0256,4.088,3.8706,3.6522,3.4367,3.2176,3.0107,2.8179,2.8179,2.8219,2.8299,2.8831,2.9245,2.9539,2.9806,2.9913,2.9913,2.9913,2.9913,2.9913,2.9913,2.9913,2.9913,2.9913,2.9913,2.9913,2.9913,2.9913,2.9927,2.9953,3.014,3.0413,3.044,3.0595,3.0795,3.0822,3.1022,3.1169,3.0929,3.0875,3.0875,3.0875,3.1076,3.1263,3.1263,3.149,3.1583,3.1316,3.149,3.1583,3.1303,3.149,3.1711,3.1711,3.1436,3.137,3.1684,3.1423,3.1383,3.1724,3.1463,3.1543,3.2104,3.1938,3.2152,3.2906,3.2246,3.2099,3.2661,3.2929,3.3146,3.3414,3.3414,3.3414,3.3414,3.3414,3.3414,2.9404,3.07,3.2131,3.1948,3.2734,3.3645,3.4016,3.4173,3.4251,3.4251,3.3867,3.3555,3.3555,3.3464,3.3386,0.0,0.0,0.0,0.0,0.0,0.0,0.0,0.0,0.0,0.0,0.0,0.0,0.0,0.0,0.0,3.8611,3.8887,3.9316,3.9883,4.0215,3.9797,3.8627,3.6482,3.4286,0.0,2.9941,2.8628,2.8179,2.8179,2.8446,2.8871,2.9232,2.9553,2.9833,2.9887,2.9913,2.9913,2.9913,2.9913,2.9913,2.9913,2.9913,2.9913,2.9913,2.9913,2.9913,2.9913,2.9913,2.9967,3.0194,3.036,3.0453,3.0635,3.0742,3.0849,3.1076,3.1183,3.1276,3.1436,3.1524,3.1524,3.1524,3.153,3.157,3.157,3.1671,3.1698,3.1583,3.1623,3.1698,3.1583,3.1623,3.1711,3.1711,3.1657,3.1597,3.1711,3.1657,3.169,3.1984,3.1944,3.2064,3.2474,3.2447,3.2487,3.2688,3.2728,3.2866,3.3213,3.328,3.3347,3.3414,3.3414,3.3414,3.3414,3.3414,3.3414,2.982,3.1339,3.2846,3.2767,3.3262,3.3809,3.4055,3.3938,3.375,3.375,3.3574,3.3386,3.3386,3.3386,0.0,0.0,0.0,0.0,0.0,0.0,0.0,0.0,0.0,0.0,0.0,0.0,0.0,0.0,0.0,3.8611,3.8611,3.8965,3.9414,3.9883,4.0312,3.968,3.7935,3.5759,3.3594,3.1351,2.9244,2.8259,2.8406,2.8406,2.8617,2.9015,2.9352,2.9646,2.9913,2.9913,2.9913,2.9913,2.9913,2.9913,2.9913,2.9913,2.9913,2.9913,2.9913,2.9913,2.994,3.0087,3.0127,3.0181,3.0474,3.0662,3.0808,3.0955,3.1102,3.1249,3.1396,3.1436,3.1476,3.1684,3.1711,3.1711,3.1711,3.1711,3.1711,3.1711,3.1711,3.1711,3.1711,3.1711,3.1711,3.1711,3.1711,3.1711,3.1711,3.1711,3.1711,3.1711,3.1797,3.1931,3.2091,3.2238,3.2487,3.2781,3.2795,3.2862,3.3009,3.3106,3.3187,3.32,3.3334,3.3414,3.3414,3.3414,3.3414,3.3414,3.3414,3.3414,3.0329,3.1684,3.3109,3.3977,3.3848,3.3652,3.4114,3.3848,3.3516,3.3406,3.3386,3.3386,3.3386,0.0,0.0,0.0,0.0,0.0,0.0,0.0,0.0,0.0,0.0,0.0,0.0,0.0,0.0,0.0,0.0,3.8611,3.8611,3.9043,3.9492,3.9883,4.0008,3.9174,3.7361,3.5218,3.3022,3.0827,2.9034,2.8353,2.8604,2.8657,2.8801,2.9081,2.9432,2.9686,2.9913,2.9913,2.9913,2.9913,2.9913,2.9913,2.9913,2.9913,2.9913,2.9927,2.998,2.9993,3.0047,3.0341,3.048,3.0533,3.0782,3.1036,3.1189,3.1289,3.1476,3.1711,3.1711,3.1711,3.1711,3.1711,3.1711,3.1711,3.1711,3.1711,3.1711,3.1711,3.1711,3.1711,3.1711,3.1711,3.1711,3.1711,3.1711,3.1711,3.1711,3.1764,3.1791,3.1791,3.2011,3.2198,3.2251,3.2527,3.2795,3.304,3.3053,3.316,3.34,3.3414,3.3293,3.3053,3.3293,3.3414,3.3414,3.3414,3.3414,3.3414,3.3414,3.3414,2.8419,2.9865,3.1751,3.4036,3.4297,3.4101,3.4512,3.4297,3.3887,3.3464,3.3386,3.3386,3.3386,0.0,0.0,0.0,0.0,0.0,0.0,0.0,0.0,0.0,0.0,0.0,0.0,0.0,0.0,0.0,3.8611,3.8611,3.8611,3.9355,3.9824,3.9902,3.8848,3.7228,3.5137,3.294,3.0744,2.8628,2.8347,2.8353,2.8617,2.8828,2.9095,2.9446,2.9726,2.9887,2.9913,2.9913,2.9913,2.9913,2.9913,2.9913,2.9913,2.9913,2.9913,2.9953,3.0207,3.0346,3.04,3.0635,3.0742,3.0795,3.1076,3.1196,3.1276,3.153,3.1684,3.1711,3.1711,3.1711,3.1711,3.1711,3.1711,3.1711,3.1711,3.1711,3.1711,3.1711,3.1711,3.1711,3.1711,3.1711,3.1711,3.1711,3.1711,3.1711,3.1711,3.1891,3.2051,3.2051,3.2353,3.2634,3.2839,3.2893,3.304,3.3334,3.336,3.3374,3.3414,3.3414,3.3387,3.336,3.3387,3.3414,3.3414,3.3414,3.3414,3.3414,3.3414,3.3414,2.9588,3.0512,3.1504,3.4062,3.4394,3.429,3.4941,3.4746,3.4375,3.418,3.4141,3.3984,0.0,0.0,0.0,0.0,0.0,0.0,0.0,0.0,0.0,0.0,0.0,0.0,0.0,0.0,0.0,0.0,3.8611,3.8611,3.8611,3.9414,3.9902,3.9902,3.8613,3.6882,3.4732,3.2505,3.0301,2.8179,2.8179,2.8433,2.8815,2.8935,2.9161,2.9499,2.9793,2.9913,2.9913,2.9913,2.9913,2.9913,2.9913,2.9913,2.9913,2.9913,2.9913,2.9967,3.0306,3.04,3.048,3.0889,3.1036,3.1089,3.1383,3.1476,3.1503,3.1684,3.1711,3.1711,3.1711,3.1711,3.1711,3.1711,3.1711,3.1711,3.1711,3.1711,3.1711,3.1711,3.1711,3.1711,3.1711,3.1711,3.1711,3.1711,3.1711,3.1711,3.1711,3.1917,3.2104,3.2104,3.2519,3.2888,3.2973,3.3133,3.328,3.34,3.3414,3.3414,3.3414,3.3414,3.3414,3.3414,3.3414,3.3414,3.3414,3.3414,3.3414,3.3414,3.3414,3.3414,2.9927,3.0248,3.0516,3.3677,3.4189,3.416,3.5176,3.5137,3.4844,3.4726,3.4707,0.0,0.0,0.0,0.0,0.0,0.0,0.0,0.0,0.0,0.0,0.0,0.0,0.0,0.0,0.0,0.0,0.0,3.8611,3.8611,3.8611,3.9414,3.9902,3.9902,3.8048,3.6322,3.4732,3.197,2.9774,2.8179,2.8259,2.8537,2.9001,2.9068,2.9312,2.9606,2.982,2.9913,2.9913,2.9913,2.9913,2.9913,2.9913,2.9913,2.9913,2.9913,2.9967,3.0074,3.0368,3.056,3.0662,3.1169,3.1343,3.1383,3.1597,3.1711,3.1711,3.1711,3.1711,3.1711,3.1711,3.1711,3.1711,3.1711,3.1711,3.1711,3.1711,3.1711,3.1711,3.1711,3.1711,3.1711,3.1711,3.1778,3.1784,3.1784,3.1885,3.1938,3.1938,3.2144,3.2318,3.2318,3.2786,3.3093,3.3093,3.3293,3.3414,3.3414,3.3414,3.3414,3.3414,3.3414,3.3414,3.3414,3.3414,3.3414,3.3414,3.3414,3.3414,3.3414,3.3414,3.3414,2.748,2.7526,2.7805,3.2647,3.3635,3.3789,3.5098,3.5371,3.5234,3.4785,3.4707,0.0,0.0,0.0,0.0,0.0,0.0,0.0,0.0,0.0,0.0,0.0,0.0,0.0,0.0,0.0,0.0,0.0,3.8611,3.8611,3.8611,3.9414,3.9902,3.9902,3.6614,3.4813,3.4692,3.0509,2.8305,2.8192,2.8444,2.8751,2.9001,2.9325,2.9619,2.99,2.9913,2.9913,2.9913,2.9913,2.9913,2.9913,2.9913,2.9913,2.9913,2.9913,3.01,3.0426,3.0675,3.0955,3.1236,3.1543,3.165,3.1698,3.1711,3.1711,3.1711,3.1711,3.1711,3.1711,3.1711,3.1711,3.1711,3.1711,3.1711,3.1711,3.1711,3.1711,3.1711,3.1711,3.1711,3.1711,3.1711,3.1891,3.2078,3.2078,3.2367,3.2554,3.2554,3.2808,3.2933,3.2933,3.32,3.3387,3.3387,3.34,3.3414,3.3414,3.3414,3.3414,3.3414,3.3414,3.3414,3.3414,3.3414,3.3414,3.3414,3.3414,3.3414,3.3414,3.3414,3.3414,2.679,2.7139,2.7839,3.1244,3.2353,3.2949,3.429,3.5195,3.5742,3.5586,3.5513,0.0,0.0,0.0,0.0,0.0,0.0,0.0,0.0,0.0,0.0,0.0,0.0,0.0,0.0,0.0,0.0,0.0,0.0,3.8691,3.8965,3.957,3.9394,3.8262,3.5943,3.3349,3.0551,2.8964,2.8179,2.8192,2.8457,2.8764,2.9001,2.9352,2.9646,2.9913,2.9913,2.9913,2.9913,2.9913,2.9913,2.9913,2.9913,3.0034,3.0207,3.0207,3.0381,3.0675,3.0969,3.1142,3.1276,3.157,3.1711,3.1711,3.1711,3.1711,3.1711,3.1711,3.1711,3.1711,3.1711,3.1711,3.1711,3.1711,3.1711,3.1711,3.1711,3.1711,3.1711,3.1711,3.1711,3.1711,3.1711,3.1904,3.2104,3.2104,3.2407,3.2594,3.2594,3.2848,3.2973,3.2973,3.3066,3.3213,3.34,3.324,3.3213,3.34,3.3414,3.3414,3.3414,3.3414,3.3414,3.3414,3.3414,3.3414,3.3414,3.3414,3.3414,3.3414,3.3414,3.3414,2.6355,2.656,2.7254,3.026,3.0855,3.1319,3.3762,3.4726,3.5279,3.5864,3.5982,0.0,0.0,0.0,0.0,0.0,0.0,0.0,0.0,0.0,0.0,0.0,0.0,0.0,0.0,0.0,0.0,0.0,0.0,0.0,3.918,3.9648,3.8841,3.6496,3.456,3.1846,2.8221,2.8179,2.8232,2.8353,2.8604,2.8898,2.9205,2.9499,2.9726,2.9913,2.9913,2.9913,2.9913,2.9913,2.9913,2.9913,2.9913,3.01,3.04,3.04,3.0654,3.0969,3.1156,3.1289,3.141,3.161,3.1711,3.1711,3.1711,3.1711,3.1711,3.1711,3.1711,3.1711,3.1711,3.1711,3.1711,3.1711,3.1711,3.1711,3.1711,3.1711,3.1711,3.1711,3.1711,3.1751,3.1797,3.2064,3.2278,3.2385,3.2652,3.2848,3.2755,3.2915,3.2995,3.2888,3.2888,3.2946,3.324,3.3093,3.3106,3.3387,3.3414,3.3414,3.3414,3.3414,3.3414,3.3414,3.3414,3.3414,3.3414,3.3414,3.3414,3.3414,3.3414,3.3414,0.0,0.0,0.0,2.9693,2.9145,2.8855,3.3457,3.3906,3.3796,3.5572,3.5923,0.0,0.0,0.0,0.0,0.0,0.0,0.0,0.0,0.0,0.0,0.0,0.0,0.0,0.0,0.0,0.0,0.0,0.0,3.8769,3.9199,3.9555,3.8185,3.4797,3.2489,3.0301,2.8221,2.8179,2.8339,2.8604,2.8855,2.9192,2.9499,2.978,2.9913,2.9913,2.9913,2.9913,2.9913,2.9913,2.9913,2.9913,2.9927,3.0114,3.0426,3.0426,3.0742,3.1189,3.1189,3.1423,3.1711,3.1711,3.1711,3.1711,3.1711,3.1711,3.1711,3.1711,3.1711,3.1711,3.1711,3.1711,3.1711,3.1711,3.1711,3.1711,3.1711,3.1711,3.1711,3.1711,3.1711,3.1757,3.2038,3.2393,3.2688,3.2969,3.3213,3.3307,3.3026,3.2986,3.2929,3.2634,3.2594,3.2714,3.2995,3.3009,3.3093,3.3374,3.3414,3.3414,3.3414,3.3414,3.3414,3.3414,3.3414,3.3414,3.3414,3.3414,3.3414,3.3414,3.3414,3.3414,2.5977,0.0,0.0,0.0,0.0,0.0,2.9473,3.0586,3.1758,3.4121,3.4355,0.0,0.0,0.0,0.0,0.0,0.0,0.0,0.0,0.0,0.0,0.0,0.0,0.0,0.0,0.0,0.0,0.0,3.8611,3.8906,3.9668,3.7444,3.5697,3.4732,3.1034,2.8796,2.8234,2.8179,2.8339,2.8604,2.8855,2.9192,2.9499,2.978,2.9913,2.9913,2.9913,2.9913,2.9913,2.9913,2.9913,2.994,3.0154,3.0467,3.0702,3.0902,3.1223,3.1543,3.1543,3.1597,3.1711,3.1711,3.1711,3.1711,3.1711,3.1711,3.1711,3.1711,3.1711,3.1711,3.1711,3.1711,3.1711,3.1711,3.1711,3.1711,3.1711,3.1711,3.1711,3.1711,3.1711,3.1738,3.1818,3.226,3.2621,3.2701,3.3093,3.3387,3.3307,3.3293,3.3187,3.2942,3.2728,3.2621,3.2701,3.2714,3.2835,3.308,3.3293,3.3414,3.3414,3.3414,3.3414,3.3414,3.3414,3.3414,3.3414,3.3414,3.3414,3.3414,3.3414,3.3414,2.6355,2.606,2.6162,2.6712,0.0,0.0,2.8976,2.9922,3.1094,0.0,3.4687,0.0,0.0,0.0,0.0,0.0,0.0,0.0,0.0,0.0,0.0,0.0,0.0,0.0,0.0,0.0,0.0,3.8611,3.8611,3.9002,3.9844,3.6597,3.4692,3.4692,3.0468,2.8179,2.8179,2.8312,2.8484,2.8791,2.9085,2.9379,2.9673,2.9847,2.9913,2.9913,2.9913,2.9913,2.9913,2.9913,2.9913,2.994,3.0293,3.0587,3.0822,3.1116,3.141,3.1711,3.1711,3.1711,3.1711,3.1711,3.1711,3.1711,3.1711,3.1711,3.1711,3.1711,3.1711,3.1711,3.1711,3.1711,3.1711,3.1711,3.1711,3.1711,3.1711,3.1711,3.1711,3.1711,3.1711,3.1751,3.1824,3.2286,3.2634,3.2755,3.312,3.3374,3.324,3.3227,3.312,3.2875,3.2701,3.2648,3.2768,3.2781,3.2902,3.3146,3.332,3.3414,3.3414,3.3414,3.3414,3.3414,3.3414,3.3414,3.3414,3.3414,3.3414,3.3414,3.3414,3.3414,2.7361,2.7305,2.7664,2.7532,2.626,0.0,2.9782,3.0156,3.0742,0.0,0.0,0.0,0.0,0.0,0.0,0.0,0.0,0.0,0.0,0.0,0.0,0.0,0.0,0.0,0.0,3.8611,3.8611,3.8611,3.8708,3.9062,3.9863,3.6597,3.4692,3.4692,3.0468,2.8179,2.8179,2.8457,2.8751,2.9001,2.9339,2.9633,2.9913,2.9913,2.9913,2.9913,2.9913,2.9913,2.9913,2.9913,2.9913,2.9953,3.0274,3.0614,3.0835,3.1156,3.1436,3.1711,3.1711,3.1711,3.1711,3.1711,3.1711,3.1711,3.1711,3.1711,3.1711,3.1711,3.1711,3.1711,3.1711,3.1711,3.1711,3.1711,3.1711,3.1711,3.1711,3.1711,3.1711,3.1711,3.1711,3.1805,3.2011,3.238,3.2688,3.2942,3.32,3.332,3.3066,3.3026,3.2919,3.2674,3.2648,3.2741,3.2955,3.2959,3.3093,3.3347,3.3387,3.3414,3.3414,3.3414,3.3414,3.3414,3.3414,3.3414,3.3414,3.3414,3.3414,3.3414,3.3414,3.3414,3.0131,2.9292,2.8478,2.7128,2.6715,0.0,2.5528,2.5952,2.7181,0.0,2.9805,0.0,0.0,0.0,0.0,0.0,0.0,0.0,0.0,0.0,0.0,0.0,0.0,0.0,0.0,3.8611,3.8611,3.8611,3.9238,3.9707,3.9883,3.6597,3.4692,3.4692,3.0468,2.8179,2.8179,2.8457,2.8751,2.9001,2.9339,2.9633,2.9913,2.9913,2.9913,2.9913,2.9913,2.9913,2.9913,2.9913,2.9913,2.9967,3.0501,3.0742,3.0862,3.1383,3.1623,3.1711,3.1711,3.1711,3.1711,3.1711,3.1711,3.1711,3.1711,3.1711,3.1711,3.1711,3.1711,3.1711,3.1711,3.1711,3.1711,3.1711,3.1711,3.1711,3.1711,3.1711,3.1711,3.1711,3.1711,3.1738,3.1791,3.2246,3.2607,3.2674,3.308,3.3387,3.3334,3.3334,3.3213,3.2969,3.2942,3.2875,3.2701,3.2888,3.3,3.3053,3.328,3.3414,3.3414,3.3414,3.3414,3.3414,3.3414,3.3414,3.3414,3.3414,3.3414,3.3414,3.3414,3.3414,3.1115,3.0442,2.9835,2.8029,2.7413,0.0,0.0,2.5898,2.6713,2.9101,2.9266,2.9364,0.0,0.0,0.0,0.0,0.0,0.0,0.0,0.0,0.0,0.0,0.0,0.0,0.0,3.8437,3.8611,3.8611,3.9394,3.9902,3.9902,3.6597,3.4692,3.4692,3.0468,2.8179,2.8179,2.8591,2.8855,2.9001,2.9486,2.978,2.9913,2.9913,2.9913,2.9913,2.9913,2.9913,2.9913,2.9913,3.0007,3.0181,3.0621,3.0795,3.0862,3.1497,3.1711,3.1711,3.1711,3.1711,3.1711,3.1711,3.1711,3.1711,3.1711,3.1711,3.1711,3.1711,3.1711,3.1711,3.1711,3.1711,3.1711,3.1711,3.1711,3.1711,3.1711,3.1711,3.1764,3.1851,3.1891,3.1891,3.1891,3.23,3.2648,3.2795,3.3133,3.3414,3.3414,3.3414,3.336,3.3213,3.32,3.3133,3.2986,3.3106,3.32,3.32,3.3334,3.3414,3.3414,3.3414,3.3414,3.3414,3.3414,3.3414,3.3414,3.3414,3.3414,3.3414,3.3414,3.3414,3.2169,3.1788,3.1618,2.9256,2.8342,2.7787,0.0,0.0,0.0,0.0,0.0,0.0,0.0,0.0,0.0,0.0,0.0,0.0,0.0,0.0,0.0,0.0,0.0,0.0,0.0,3.8008,3.8376,3.8708,3.9062,3.9453,3.9883,3.6526,3.4626,3.4692,3.0468,2.8179,2.8179,2.8738,2.9001,2.9001,2.9588,2.9913,2.9913,2.9913,2.9913,2.9913,2.9913,2.9913,2.9913,2.9913,3.0087,3.044,3.0675,3.0822,3.0942,3.1524,3.1711,3.1711,3.1711,3.1711,3.1711,3.1711,3.1711,3.1711,3.1711,3.1711,3.1711,3.1711,3.1711,3.1711,3.1711,3.1711,3.1711,3.1711,3.1711,3.1711,3.1711,3.1711,3.1744,3.1971,3.2024,3.2038,3.2091,3.2398,3.2728,3.2875,3.316,3.3414,3.3414,3.3414,3.3414,3.3414,3.3414,3.3414,3.3414,3.3414,3.3414,3.3414,3.3414,3.3414,3.3414,3.3414,3.3414,3.3414,3.3414,3.3414,3.3414,3.3414,3.3414,3.3414,3.3414,3.3414,3.513,3.4628,3.4033,2.9891,2.9736,2.9376,2.4694,0.0,2.5121,2.4711,0.0,0.0,0.0,0.0,0.0,0.0,0.0,0.0,0.0,0.0,0.0,0.0,0.0,0.0,0.0,0.0,3.7555,3.9023,3.7868,3.7871,3.9785,3.6184,3.4281,3.4692,3.0468,2.8179,2.8179,2.8738,2.9001,2.9001,2.9588,2.9913,2.9913,2.9913,2.9913,2.9913,2.9913,2.9913,2.9913,2.9913,3.0087,3.044,3.0675,3.0955,3.1209,3.1543,3.1711,3.1711,3.1711,3.1711,3.1711,3.1711,3.1711,3.1711,3.1711,3.1711,3.1711,3.1711,3.1711,3.1711,3.1711,3.1711,3.1711,3.1711,3.1711,3.1711,3.1711,3.1711,3.1724,3.1764,3.1764,3.1797,3.2064,3.2559,3.2848,3.2447,3.2946,3.3414,3.3414,3.3414,3.3414,3.3414,3.3414,3.3414,3.3414,3.3414,3.3414,3.3414,3.3414,3.3414,3.3414,3.3414,3.3414,3.3414,3.3414,3.3414,3.3414,3.3414,3.3414,3.3414,3.3414,3.3414,3.533,3.5556,3.5532,3.1638,3.1436,3.0927,2.5974,2.4874,2.4777,0.0,0.0,0.0,0.0,0.0,0.0,0.0,2.6172,0.0,0.0,0.0,0.0,0.0,0.0,0.0,0.0,0.0,0.0,0.0,0.0,3.7988,4.0137,3.6522,3.4503,3.4692,3.0468,2.8179,2.8179,2.8738,2.9001,2.9001,2.9588,2.9913,2.9913,2.9913,2.9913,2.9913,2.9913,2.9913,2.9913,2.9913,3.0194,3.0621,3.0742,3.0969,3.1263,3.1557,3.1711,3.1711,3.1711,3.1711,3.1711,3.1711,3.1711,3.1711,3.1711,3.1711,3.1711,3.1711,3.1711,3.1711,3.1711,3.1711,3.1711,3.1711,3.1711,3.1711,3.1711,3.1711,3.1818,3.2152,3.2219,3.2313,3.2559,3.2679,3.2822,3.2906,3.32,3.3414,3.3414,3.3414,3.3414,3.3414,3.3414,3.3414,3.3414,3.3414,3.3414,3.3414,3.3414,3.3414,3.3414,3.3414,3.3414,3.3414,3.3414,3.3414,3.3414,3.3414,3.3414,3.3414,3.3414,3.3414,3.6433,3.6734,3.672,3.2734,3.2193,3.1522,2.7172,2.5654,2.5092,2.4917,0.0,0.0,0.0,0.0,2.4336,2.4391,0.0,2.6172,0.0,0.0,0.0,0.0,0.0,0.0,0.0,0.0,0.0,0.0,0.0,0.0,4.0547,3.7417,3.5349,3.4881,3.1209,2.892,2.8234,2.8738,2.9001,2.9001,2.9588,2.9913,2.9913,2.9913,2.9913,2.9913,2.9913,2.9913,2.9927,3.0007,3.0341,3.0795,3.0875,3.1089,3.137,3.1583,3.1711,3.1711,3.1711,3.1711,3.1711,3.1711,3.1711,3.1711,3.1711,3.1711,3.1711,3.1711,3.1711,3.1711,3.1711,3.1711,3.1711,3.1711,3.1711,3.1738,3.177,3.1784,3.1992,3.25,3.2594,3.2688,3.2933,3.2915,3.2915,3.3133,3.3307,3.3414,3.3414,3.3414,3.3414,3.3414,3.3414,3.3414,3.3414,3.3414,3.3414,3.3414,3.3414,3.3414,3.3414,3.3414,3.3414,3.3414,3.3414,3.3414,3.3414,3.3414,3.3414,3.3414,3.3414,3.3414,3.9647,0.0,3.7667,3.2676,0.0,0.0,0.0,2.626,2.606,2.6036,2.5812,2.564,2.5635,2.5659,2.5367,2.4528,2.4824,0.0,0.0,0.0,0.0,0.0,0.0,0.0,0.0,0.0,0.0,0.0,0.0,0.0,4.0917,3.904,3.7018,3.5328,3.3052,3.0688,2.8234,2.8738,2.9001,2.9001,2.9588,2.9913,2.9913,2.9913,2.9913,2.9913,2.9913,2.9913,2.994,3.0266,3.0574,3.0822,3.1102,3.1396,3.1698,3.1711,3.1711,3.1711,3.1711,3.1711,3.1711,3.1711,3.1711,3.1711,3.1711,3.1711,3.1711,3.1711,3.1711,3.1711,3.1711,3.1711,3.1711,3.1711,3.1711,3.1791,3.2024,3.2091,3.2185,3.2541,3.2594,3.2688,3.2933,3.32,3.32,3.2701,3.3053,3.3414,3.3414,3.3414,3.3414,3.3414,3.3414,3.3414,3.3414,3.3414,3.3414,3.3414,3.3414,3.3414,3.3414,3.3414,3.3414,3.3414,3.3414,3.3414,3.3414,3.3414,3.3414,3.3414,3.3414,3.3414,0.0,0.0,4.1023,3.6402,0.0,0.0,0.0,0.0,0.0,2.6301,2.6141,0.0,2.5776,2.5693,2.5523,2.4941,2.4727,2.4336,0.0,0.0,0.0,0.0,0.0,0.0,0.0,0.0,0.0,0.0,0.0,0.0,0.0,3.8653,3.6776,3.3409,3.268,3.1078,2.85,2.9032,2.9232,2.9001,2.9588,2.9913,2.9913,2.9913,2.9913,2.9913,2.9913,2.9913,2.994,3.0234,3.0574,3.0822,3.1116,3.141,3.1711,3.1711,3.1711,3.1711,3.1711,3.1711,3.1711,3.1711,3.1711,3.1711,3.1711,3.1711,3.1711,3.1711,3.1711,3.1711,3.1711,3.1711,3.1764,3.1904,3.1957,3.2038,3.238,3.2447,3.2527,3.2822,3.2875,3.2969,3.3213,3.3347,3.3347,3.3146,3.328,3.3414,3.3414,3.3414,3.3414,3.3414,3.3414,3.3414,3.3414,3.3414,3.3414,3.3414,3.3414,3.3414,3.3414,3.3414,3.3414,3.3414,3.3414,3.3414,3.3414,3.3414,3.3414,3.3414,3.3414,3.3414,4.2356,4.2958,0.0,3.828,3.7438,0.0,3.1365,0.0,2.8943,0.0,0.0,0.0,0.0,2.7318,2.6367,2.6255,2.5332,2.4297,0.0,2.3144,0.0,0.0,0.0,0.0,0.0,0.0,0.0,0.0,0.0,0.0,0.0,0.0,3.6734,3.2506,3.2556,3.1368,2.8764,2.9245,2.9392,2.9161,2.9686,2.9913,2.9913,2.9913,2.9913,2.9913,2.9913,2.9913,2.994,3.0354,3.0621,3.0835,3.1223,3.1503,3.1711,3.1711,3.1711,3.1711,3.1711,3.1711,3.1711,3.1711,3.1711,3.1711,3.1711,3.1711,3.1738,3.1845,3.1744,3.1738,3.1845,3.1791,3.1791,3.2038,3.2104,3.2211,3.2661,3.2755,3.2835,3.308,3.3133,3.3187,3.3374,3.3414,3.3414,3.3414,3.3414,3.3414,3.3414,3.3414,3.3414,3.3414,3.3414,3.3414,3.3414,3.3414,3.3414,3.3414,3.3414,3.3414,3.3414,3.3414,3.3414,3.3414,3.3414,3.3414,3.3414,3.3414,3.3414,3.3414,3.3414,3.3414]},{"header":{"parameterUnit":"m.s-1","parameterCategory":1,"la1":30.6,"la2":29.2853,"lo1":-89.7004,"lo2":-87.6739,"dx":0.0162,"dy":0.0183,"nx":112,"ny":82,"refTime":"2022-11-06T00:00:00:Z","depth":0,"parameterNumber":3,"parameterNumberName":"V-component_of_WINDS"},"data":[0.0,0.0,0.0,0.0,0.0,0.0,0.0,0.0,0.0,0.0,0.0,0.0,0.0,0.0,0.0,0.0,0.0,0.0,0.0,0.0,0.0,0.0,0.0,0.0,0.0,0.0,0.0,0.0,0.0,0.0,0.0,0.0,0.0,0.0,0.0,0.0,0.0,0.0,0.0,0.0,0.0,0.0,0.0,0.0,0.0,0.0,0.0,0.0,0.0,0.0,0.0,0.0,0.0,0.0,0.0,0.0,0.0,0.0,0.0,0.0,0.0,0.0,0.0,0.0,0.0,0.0,0.0,0.0,0.0,0.0,0.0,0.0,0.0,0.0,0.0,0.0,0.0,0.0,0.0,0.0,0.0,0.0,0.0,0.0,0.0,0.0,0.0,0.0,0.0,0.0,2.7812,2.9205,3.0837,3.1809,3.1809,3.172,3.0538,2.7914,0.0,0.0,0.0,0.0,0.0,0.0,0.0,0.0,0.0,0.0,0.0,0.0,0.0,0.0,0.0,0.0,0.0,0.0,0.0,0.0,0.0,0.0,0.0,0.0,0.0,0.0,0.0,0.0,0.0,0.0,0.0,0.0,0.0,0.0,0.0,0.0,0.0,0.0,0.0,0.0,0.0,0.0,0.0,0.0,0.0,0.0,0.0,0.0,0.0,0.0,0.0,0.0,0.0,0.0,0.0,0.0,0.0,0.0,0.0,0.0,0.0,0.0,0.0,0.0,0.0,0.0,0.0,0.0,0.0,0.0,0.0,0.0,0.0,0.0,0.0,0.0,0.0,0.0,0.0,0.0,0.0,0.0,0.0,0.0,0.0,0.0,0.0,0.0,0.0,0.0,0.0,0.0,0.0,0.0,0.0,0.0,0.0,0.0,0.0,0.0,0.0,0.0,0.0,0.0,2.7679,3.2258,3.3036,3.3215,3.3215,3.2662,3.1226,2.8607,0.0,0.0,0.0,0.0,0.0,0.0,0.0,0.0,0.0,0.0,0.0,0.0,0.0,0.0,0.0,0.0,0.0,0.0,0.0,0.0,0.0,0.0,0.0,0.0,0.0,0.0,0.0,0.0,0.0,0.0,0.0,0.0,0.0,0.0,0.0,0.0,0.0,0.0,0.0,0.0,0.0,0.0,0.0,0.0,0.0,0.0,0.0,0.0,0.0,0.0,0.0,0.0,0.0,0.0,0.0,0.0,0.0,0.0,0.0,0.0,0.0,0.0,0.0,0.0,0.0,0.0,0.0,0.0,0.0,0.0,0.0,0.0,0.0,0.0,0.0,0.0,0.0,0.0,0.0,0.0,0.0,0.0,0.0,0.0,0.0,0.0,0.0,0.0,0.0,0.0,0.0,0.0,0.0,0.0,0.0,0.0,0.0,0.0,0.0,0.0,0.0,0.0,0.0,2.753,2.9594,3.3125,3.3484,3.3484,3.3484,3.3215,3.1779,2.8786,2.7051,0.0,0.0,0.0,0.0,0.0,0.0,0.0,0.0,0.0,0.0,0.0,0.0,0.0,0.0,0.0,0.0,0.0,0.0,0.0,0.0,0.0,0.0,0.0,0.0,0.0,0.0,0.0,0.0,0.0,0.0,0.0,0.0,0.0,0.0,0.0,0.0,0.0,0.0,0.0,0.0,0.0,0.0,0.0,0.0,0.0,0.0,0.0,0.0,0.0,0.0,0.0,0.0,0.0,0.0,0.0,0.0,0.0,0.0,0.0,0.0,0.0,0.0,0.0,0.0,0.0,0.0,0.0,0.0,0.0,0.0,0.0,0.0,0.0,0.0,0.0,0.0,0.0,0.0,0.0,0.0,0.0,0.0,0.0,0.0,0.0,0.0,0.0,0.0,0.0,0.0,0.0,0.0,0.0,0.0,0.0,0.0,0.0,0.0,0.0,0.0,0.0,0.0,3.0881,3.2078,3.3784,3.3963,3.3963,3.3963,3.3829,3.2317,2.9026,2.7423,0.0,0.0,0.0,0.0,0.0,0.0,0.0,0.0,0.0,0.0,0.0,0.0,0.0,0.0,0.0,0.0,0.0,0.0,0.0,0.0,0.0,0.0,0.0,0.0,0.0,0.0,0.0,0.0,0.0,0.0,0.0,0.0,0.0,0.0,0.0,0.0,0.0,0.0,0.0,0.0,0.0,0.0,0.0,0.0,0.0,0.0,0.0,0.0,0.0,0.0,0.0,0.0,0.0,0.0,0.0,0.0,0.0,0.0,0.0,0.0,0.0,0.0,0.0,0.0,0.0,0.0,0.0,0.0,0.0,0.0,0.0,0.0,0.0,0.0,0.0,0.0,0.0,0.0,0.0,0.0,0.0,0.0,0.0,0.0,0.0,0.0,0.0,0.0,0.0,0.0,0.0,0.0,0.0,0.0,0.0,0.0,0.0,0.0,0.0,0.0,0.0,0.0,3.1943,3.4518,3.528,3.537,3.537,3.537,3.4787,3.3021,2.9728,2.7692,0.0,0.0,0.0,0.0,0.0,0.0,0.0,0.0,0.0,0.0,0.0,0.0,0.0,0.0,0.0,0.0,0.0,0.0,0.0,0.0,0.0,0.0,0.0,0.0,0.0,0.0,0.0,0.0,0.0,0.0,0.0,0.0,0.0,0.0,0.0,0.0,0.0,0.0,0.0,0.0,0.0,0.0,0.0,0.0,0.0,0.0,0.0,0.0,0.0,0.0,0.0,0.0,0.0,0.0,0.0,0.0,0.0,0.0,0.0,0.0,0.0,0.0,0.0,0.0,0.0,0.0,0.0,0.0,0.0,0.0,0.0,0.0,0.0,0.0,0.0,0.0,0.0,0.0,0.0,0.0,0.0,0.0,0.0,0.0,0.0,0.0,0.0,0.0,0.0,0.0,0.0,0.0,0.0,0.0,0.0,0.0,0.0,0.0,0.0,0.0,0.0,0.0,3.2168,3.4592,0.0,3.6669,3.6537,3.6148,3.5895,3.3979,2.9847,0.0,0.0,0.0,0.0,0.0,0.0,0.0,0.0,0.0,0.0,0.0,0.0,0.0,0.0,0.0,0.0,0.0,0.0,0.0,0.0,0.0,0.0,0.0,0.0,0.0,0.0,0.0,0.0,0.0,0.0,0.0,0.0,0.0,0.0,0.0,0.0,0.0,0.0,0.0,0.0,0.0,0.0,0.0,0.0,0.0,0.0,0.0,0.0,0.0,0.0,0.0,0.0,0.0,0.0,0.0,0.0,0.0,0.0,0.0,0.0,0.0,0.0,0.0,0.0,0.0,0.0,0.0,0.0,0.0,0.0,0.0,0.0,0.0,0.0,0.0,0.0,0.0,0.0,0.0,0.0,0.0,0.0,0.0,0.0,0.0,0.0,0.0,0.0,0.0,0.0,0.0,0.0,0.0,0.0,0.0,0.0,0.0,0.0,0.0,0.0,0.0,0.0,3.0103,3.2976,3.5429,0.0,3.7387,3.7344,3.721,3.693,3.4993,3.0825,0.0,0.0,0.0,0.0,0.0,0.0,0.0,0.0,0.0,0.0,0.0,0.0,0.0,0.0,0.0,0.0,0.0,0.0,0.0,0.0,0.0,0.0,0.0,0.0,0.0,0.0,0.0,0.0,0.0,0.0,0.0,0.0,0.0,0.0,0.0,0.0,0.0,0.0,0.0,0.0,0.0,0.0,0.0,0.0,0.0,0.0,0.0,0.0,0.0,0.0,0.0,0.0,0.0,0.0,0.0,0.0,0.0,0.0,0.0,0.0,0.0,0.0,0.0,0.0,0.0,0.0,0.0,0.0,0.0,0.0,0.0,0.0,0.0,0.0,0.0,0.0,0.0,0.0,0.0,0.0,0.0,0.0,0.0,0.0,0.0,0.0,0.0,0.0,0.0,0.0,0.0,0.0,0.0,0.0,0.0,0.0,0.0,0.0,0.0,0.0,0.0,0.0,3.0342,3.4562,3.7417,3.7417,3.7417,3.7778,3.8627,3.7899,3.6039,0.0,0.0,0.0,0.0,0.0,0.0,0.0,0.0,0.0,0.0,0.0,0.0,0.0,0.0,0.0,0.0,0.0,0.0,0.0,0.0,0.0,0.0,0.0,0.0,0.0,0.0,0.0,0.0,0.0,0.0,0.0,0.0,0.0,0.0,0.0,0.0,0.0,0.0,0.0,0.0,0.0,0.0,0.0,0.0,0.0,0.0,0.0,0.0,0.0,0.0,0.0,0.0,0.0,0.0,0.0,0.0,0.0,0.0,0.0,0.0,0.0,0.0,0.0,0.0,0.0,0.0,0.0,0.0,0.0,0.0,0.0,0.0,0.0,0.0,0.0,0.0,0.0,0.0,0.0,0.0,0.0,0.0,0.0,0.0,0.0,0.0,0.0,0.0,0.0,0.0,0.0,0.0,0.0,0.0,0.0,0.0,0.0,0.0,0.0,0.0,0.0,0.0,0.0,3.0972,3.5234,3.8302,3.8763,3.8823,3.8737,3.8521,3.8249,3.6105,3.143,0.0,0.0,0.0,0.0,0.0,0.0,0.0,0.0,0.0,0.0,0.0,0.0,0.0,0.0,0.0,0.0,0.0,0.0,0.0,0.0,0.0,0.0,0.0,0.0,0.0,0.0,0.0,0.0,0.0,0.0,0.0,0.0,0.0,0.0,0.0,0.0,0.0,0.0,0.0,0.0,0.0,0.0,0.0,0.0,0.0,0.0,0.0,0.0,0.0,0.0,0.0,0.0,0.0,0.0,0.0,0.0,0.0,0.0,0.0,0.0,0.0,0.0,0.0,0.0,0.0,0.0,0.0,0.0,0.0,0.0,0.0,0.0,0.0,0.0,0.0,0.0,0.0,0.0,0.0,0.0,0.0,0.0,0.0,0.0,0.0,0.0,0.0,0.0,0.0,0.0,0.0,0.0,0.0,0.0,0.0,0.0,0.0,0.0,0.0,0.0,0.0,0.0,3.2156,3.6765,4.0002,4.0399,4.043,4.0399,4.0352,4.0037,3.8275,3.4573,0.0,0.0,0.0,0.0,0.0,0.0,0.0,0.0,0.0,0.0,0.0,0.0,0.0,0.0,0.0,0.0,0.0,0.0,0.0,0.0,0.0,0.0,0.0,0.0,0.0,0.0,0.0,0.0,0.0,0.0,0.0,0.0,0.0,0.0,0.0,0.0,0.0,0.0,0.0,0.0,0.0,0.0,0.0,0.0,0.0,0.0,0.0,0.0,0.0,0.0,0.0,0.0,0.0,0.0,0.0,0.0,0.0,0.0,0.0,0.0,0.0,0.0,0.0,0.0,0.0,0.0,0.0,0.0,0.0,0.0,0.0,0.0,0.0,0.0,0.0,0.0,0.0,0.0,0.0,0.0,0.0,0.0,0.0,0.0,0.0,0.0,0.0,0.0,0.0,0.0,0.0,0.0,0.0,0.0,0.0,0.0,0.0,0.0,0.0,0.0,0.0,0.0,3.3422,3.8399,4.174,4.174,4.174,4.2125,4.2986,4.2332,4.1305,3.9975,0.0,0.0,0.0,0.0,0.0,0.0,0.0,0.0,0.0,0.0,0.0,0.0,0.0,0.0,0.0,0.0,0.0,0.0,0.0,0.0,0.0,0.0,0.0,0.0,0.0,0.0,0.0,0.0,0.0,0.0,0.0,0.0,0.0,0.0,0.0,0.0,0.0,0.0,0.0,0.0,0.0,0.0,0.0,0.0,0.0,0.0,0.0,0.0,0.0,0.0,0.0,0.0,0.0,0.0,0.0,0.0,0.0,0.0,0.0,0.0,2.7368,0.0,0.0,0.0,0.0,0.0,0.0,0.0,0.0,0.0,0.0,0.0,0.0,0.0,0.0,0.0,0.0,0.0,0.0,0.0,0.0,0.0,0.0,0.0,0.0,0.0,0.0,0.0,0.0,0.0,0.0,0.0,0.0,0.0,0.0,0.0,0.0,0.0,0.0,0.0,0.0,0.0,3.2581,3.6987,3.9937,3.9937,3.9937,4.0291,4.1164,4.1064,4.0245,3.8548,3.6495,0.0,0.0,0.0,0.0,0.0,0.0,0.0,0.0,0.0,0.0,0.0,0.0,0.0,0.0,0.0,0.0,0.0,0.0,0.0,0.0,0.0,0.0,0.0,0.0,0.0,0.0,0.0,0.0,0.0,0.0,0.0,0.0,0.0,0.0,0.0,0.0,0.0,0.0,0.0,0.0,0.0,0.0,0.0,0.0,0.0,0.0,0.0,0.0,0.0,0.0,0.0,0.0,0.0,0.0,0.0,0.0,0.0,0.0,0.0,0.0,2.8355,0.0,0.0,0.0,0.0,0.0,0.0,0.0,0.0,0.0,0.0,0.0,0.0,0.0,0.0,0.0,0.0,0.0,0.0,0.0,0.0,0.0,0.0,0.0,0.0,0.0,0.0,0.0,0.0,0.0,0.0,0.0,0.0,0.0,0.0,0.0,0.0,0.0,0.0,0.0,0.0,3.497,3.9434,4.2284,4.1949,4.1885,4.2061,4.2519,4.2566,4.2163,4.1229,3.8811,0.0,0.0,0.0,0.0,0.0,0.0,0.0,0.0,0.0,0.0,0.0,0.0,0.0,0.0,0.0,0.0,0.0,0.0,0.0,0.0,0.0,0.0,0.0,0.0,0.0,0.0,0.0,0.0,0.0,0.0,0.0,0.0,0.0,0.0,0.0,0.0,0.0,0.0,0.0,0.0,0.0,0.0,0.0,0.0,0.0,0.0,0.0,0.0,0.0,0.0,0.0,0.0,0.0,3.1719,3.2243,3.2886,3.2886,3.3861,3.5446,3.3081,3.3305,3.4951,0.0,0.0,0.0,0.0,0.0,0.0,0.0,0.0,0.0,0.0,0.0,0.0,0.0,0.0,0.0,0.0,0.0,0.0,0.0,0.0,0.0,0.0,0.0,0.0,0.0,3.7452,3.8418,0.0,0.0,0.0,0.0,0.0,0.0,0.0,0.0,0.0,0.0,0.0,0.0,3.8355,4.2613,4.5209,4.462,4.4519,4.4596,4.474,4.4754,4.4778,4.4804,4.152,3.907,0.0,0.0,0.0,0.0,0.0,0.0,0.0,0.0,0.0,0.0,0.0,0.0,0.0,0.0,0.0,0.0,0.0,0.0,0.0,0.0,0.0,0.0,0.0,0.0,0.0,0.0,0.0,0.0,0.0,0.0,0.0,0.0,2.862,2.877,0.0,0.0,0.0,0.0,0.0,0.0,0.0,0.0,0.0,0.0,0.0,0.0,0.0,3.0299,3.1241,3.2976,3.4188,3.4861,3.6537,3.7704,3.8374,3.8374,3.8936,3.9824,3.8711,0.0,3.4578,3.3769,0.0,0.0,0.0,0.0,0.0,0.0,0.0,0.0,0.0,0.0,0.0,0.0,0.0,0.0,0.0,0.0,0.0,0.0,0.0,0.0,0.0,0.0,4.1451,4.2883,4.2889,4.2884,0.0,3.9203,3.4397,3.3245,3.3037,0.0,0.0,0.0,0.0,0.0,0.0,0.0,4.0418,4.2943,4.4382,4.4268,4.4252,4.4545,4.5306,4.5368,4.5411,4.5558,4.5037,4.3219,3.9876,3.945,0.0,0.0,0.0,0.0,0.0,0.0,0.0,0.0,0.0,0.0,0.0,0.0,0.0,0.0,0.0,0.0,0.0,0.0,0.0,0.0,0.0,0.0,0.0,0.0,0.0,0.0,0.0,0.0,0.0,2.6644,2.8321,2.9458,2.8141,2.6764,0.0,0.0,0.0,0.0,0.0,0.0,0.0,0.0,0.0,3.3245,3.3305,3.4157,3.5922,3.6819,3.7404,3.7686,3.8571,3.914,3.9391,3.9391,3.9625,3.9937,3.9571,3.8584,3.7186,3.6205,3.5194,3.414,0.0,0.0,0.0,0.0,3.257,3.2719,3.6005,3.6907,0.0,3.6229,0.0,0.0,0.0,0.0,0.0,0.0,0.0,0.0,0.0,0.0,4.337,4.5361,4.5524,4.5462,4.6171,4.3825,4.0903,0.0,3.7839,3.6279,3.2182,0.0,0.0,0.0,0.0,4.0821,4.2906,4.4986,4.6098,4.5701,4.5668,4.5824,4.621,4.624,4.6275,4.6297,4.6312,4.5568,4.3944,4.2625,4.0294,0.0,0.0,0.0,0.0,0.0,0.0,0.0,0.0,0.0,0.0,0.0,0.0,0.0,0.0,0.0,0.0,0.0,0.0,0.0,0.0,0.0,0.0,0.0,0.0,0.0,0.0,0.0,0.0,2.8231,2.9368,3.0686,2.9981,2.877,0.0,0.0,0.0,0.0,0.0,0.0,3.2497,3.2691,3.3918,3.64,3.6507,3.7417,3.9391,3.9571,3.966,3.966,4.0082,4.0269,4.0287,4.0525,4.0742,4.0953,4.0707,4.0883,4.1083,3.853,3.7763,3.8008,3.6057,3.5199,3.5266,3.661,3.6772,3.6913,4.0743,4.1782,4.1323,4.1241,4.0348,3.8851,3.6451,0.0,0.0,0.0,0.0,3.9874,4.2323,4.3592,4.4742,4.665,4.709,4.7192,4.7579,4.7496,4.6494,0.0,4.2468,4.0688,3.6398,0.0,0.0,0.0,0.0,4.4742,4.6123,4.7733,4.8529,4.797,4.7767,4.7631,4.7631,4.7462,4.7293,4.709,4.709,4.6989,4.68,4.5534,4.4215,4.2909,0.0,0.0,0.0,0.0,0.0,0.0,0.0,0.0,0.0,0.0,0.0,0.0,0.0,0.0,0.0,0.0,0.0,0.0,0.0,0.0,0.0,0.0,0.0,0.0,0.0,0.0,0.0,0.0,0.0,3.4324,3.4204,0.0,0.0,0.0,0.0,3.1361,3.2033,3.329,3.522,3.5908,3.7165,3.9152,3.9212,3.9272,3.9391,4.0019,4.0337,4.0385,4.1899,4.2643,4.266,4.3541,4.4397,4.5157,4.4315,4.4902,4.6051,4.1264,3.903,3.8634,3.8525,3.8194,3.7969,3.9312,3.9764,4.0174,4.3191,4.4225,4.4429,4.5946,4.4457,4.2192,4.2726,4.099,0.0,0.0,4.3112,4.3739,4.5967,4.6568,4.6819,4.765,4.7853,4.8225,4.9627,4.939,4.8409,0.0,4.6519,4.5945,4.4268,0.0,4.4674,4.6041,4.6447,4.7665,5.0491,5.0964,5.1032,5.0964,5.0338,4.9947,4.9947,4.9289,4.8612,4.7887,4.7853,4.7515,4.6834,4.8037,4.7394,4.4533,4.5026,0.0,0.0,0.0,0.0,0.0,0.0,0.0,0.0,0.0,0.0,0.0,0.0,0.0,0.0,0.0,0.0,0.0,0.0,0.0,0.0,0.0,0.0,0.0,0.0,0.0,0.0,0.0,0.0,3.516,3.513,0.0,3.2931,3.3963,3.4711,3.4711,3.6101,3.7447,3.8601,3.8871,3.9529,4.0636,4.0696,4.0696,4.0696,4.1511,4.1929,4.1947,4.3127,4.3703,4.372,4.406,4.4378,4.4658,4.4344,4.456,4.4983,4.3231,4.3054,4.3898,4.3898,4.3812,4.3727,4.4183,4.4367,4.4545,4.557,4.5947,4.6025,4.661,4.609,4.5244,4.55,4.5207,4.5091,4.6577,4.7364,4.8047,4.9294,4.9627,4.9679,4.995,5.0017,5.0153,5.0694,5.0592,5.0254,4.9713,4.9255,4.8289,4.636,4.7597,4.8376,4.7003,4.8409,5.0017,5.1066,5.1201,5.1201,5.1201,5.0964,5.0811,5.0811,5.0558,5.0288,5.0051,4.9593,4.9424,4.9612,4.9695,4.9424,4.8849,4.912,4.623,0.0,0.0,0.0,0.0,0.0,0.0,0.0,0.0,0.0,0.0,0.0,0.0,0.0,0.0,0.0,0.0,0.0,0.0,0.0,0.0,0.0,0.0,0.0,0.0,0.0,3.4053,3.5759,3.5519,3.6281,3.6207,3.4651,3.6523,3.7811,3.7811,3.923,4.0277,4.0696,4.1029,4.1413,4.1868,4.2169,4.2444,4.2695,4.3234,4.3777,4.436,4.5182,4.576,4.6101,4.6403,4.6569,4.6569,4.6569,4.6569,4.6569,4.6569,4.7237,4.8142,4.6854,4.6544,4.68,4.68,4.68,4.6868,4.7361,4.7699,4.7936,4.8206,4.8274,4.8274,4.8274,4.8646,4.9138,4.9578,5.0101,5.0574,5.1066,5.1201,5.1269,5.1505,5.1776,5.2046,5.2283,5.2554,5.2723,5.2723,5.1522,5.0067,4.8849,5.027,5.1014,4.9323,5.0744,5.1979,5.1979,5.1979,5.1979,5.1979,5.1742,5.1573,5.1573,5.11,5.093,5.1167,5.0507,5.0541,5.1539,5.0608,5.0439,5.1201,5.1201,4.8428,4.2713,0.0,0.0,0.0,0.0,0.0,0.0,0.0,0.0,0.0,0.0,0.0,0.0,0.0,0.0,0.0,0.0,0.0,0.0,0.0,0.0,0.0,0.0,0.0,3.5699,3.6148,3.6374,3.5699,3.7866,3.8673,3.6793,3.8936,4.0434,4.0427,4.11,4.1479,4.1433,4.2358,4.2869,4.29,4.3812,4.466,4.537,4.5109,4.5806,4.7477,4.8111,4.8904,4.9867,5.0809,5.1201,5.1201,5.1201,5.1201,5.1201,5.1201,5.1201,5.0832,4.7132,4.6188,4.6936,4.6936,4.6936,4.7124,4.8578,4.9526,5.0236,5.0964,5.1201,5.1201,5.1201,5.1235,5.1235,5.1269,5.1302,5.1302,5.1336,5.1336,5.1505,5.2232,5.301,5.3754,5.4465,5.5209,5.5699,5.5699,5.3332,5.1573,5.23,5.2401,5.2672,5.345,5.3585,0.0,5.3585,5.3585,5.3551,5.3551,5.2841,5.2367,5.2334,5.1014,5.0507,5.1235,5.0574,5.0811,5.23,5.098,5.0574,5.1336,5.1235,5.0085,4.7921,0.0,0.0,0.0,0.0,0.0,0.0,0.0,0.0,0.0,0.0,0.0,0.0,0.0,0.0,0.0,0.0,0.0,0.0,0.0,0.0,0.0,3.599,3.7294,3.6367,3.8003,3.908,3.8404,3.8973,3.9361,3.932,4.0604,4.1321,4.116,4.2571,4.306,4.2188,4.3485,4.4508,4.503,4.5791,4.6608,4.7533,4.8134,4.8665,4.9141,5.0006,5.056,5.0842,5.1104,5.1201,5.1201,5.1201,5.1201,5.1201,5.1201,5.1201,5.1117,5.0031,4.9776,4.9984,4.9984,4.9984,5.0051,5.0457,5.0728,5.093,5.1133,5.1201,5.1201,5.1201,5.1573,5.2131,5.2689,5.3247,5.3788,5.4312,5.4448,5.4515,5.4718,5.4921,5.5158,5.5327,5.5564,5.5699,5.5699,5.5023,5.4515,5.4718,5.4752,5.482,5.5056,5.509,0.0,5.509,5.509,5.4905,5.4329,5.4093,5.3754,5.3213,5.2807,5.2672,5.2841,5.2131,5.2367,5.389,5.3044,5.3179,5.4448,5.1792,4.983,0.0,0.0,0.0,0.0,0.0,0.0,0.0,0.0,0.0,0.0,0.0,0.0,0.0,0.0,0.0,0.0,0.0,0.0,0.0,0.0,0.0,0.0,3.9405,4.0211,4.0158,4.0375,4.0341,3.9865,3.981,4.0232,4.1304,4.2158,4.268,4.2807,4.4503,4.5142,4.4334,4.5946,4.7098,4.7499,4.828,4.9123,5.0035,5.014,5.0599,5.136,5.178,5.2202,5.2638,5.2926,5.3095,0.0,5.3095,5.3095,5.3095,5.3095,5.3095,0.0,0.0,0.0,0.0,0.0,5.1201,5.1302,5.1945,5.2148,5.2249,5.2892,5.3095,5.3095,5.3095,5.3365,5.3822,5.4279,5.4735,5.5175,5.5597,5.5699,5.5699,5.5699,5.5936,5.6139,5.6139,5.6393,5.663,5.663,5.663,0.0,5.663,5.6105,5.5699,5.5699,5.5699,5.5699,5.5699,5.5699,5.553,5.5108,5.5074,5.4905,5.4465,5.4126,0.0,0.0,0.0,5.3653,5.4583,5.4499,0.0,0.0,0.0,0.0,0.0,0.0,0.0,0.0,4.6583,4.6007,0.0,0.0,0.0,0.0,0.0,0.0,0.0,0.0,0.0,0.0,0.0,0.0,0.0,0.0,0.0,0.0,4.3341,4.436,4.5307,4.2988,4.1075,4.0721,4.0763,4.1407,4.2891,4.3782,4.4492,4.5154,4.6771,4.7554,4.7095,0.0,0.0,0.0,0.0,5.1779,5.2536,5.1842,5.2242,5.3737,5.3641,5.3943,5.4753,5.5496,5.5767,5.5699,5.5699,5.5699,5.5699,5.5699,5.5699,5.5428,5.2757,5.1708,5.1708,5.1708,5.1708,5.1911,5.3264,0.0,0.0,5.5259,5.5699,5.5699,5.5699,5.5699,5.5733,5.58,5.5834,5.5834,5.5936,5.5936,5.5936,5.5936,5.6461,5.6934,5.6934,5.7442,5.79,5.79,5.79,5.79,5.79,5.6799,5.5936,5.5936,5.5936,5.5936,5.5936,5.5936,5.5902,5.5834,0.0,0.0,5.5699,5.5108,5.504,5.5767,5.5378,5.5091,5.5091,5.58,5.6206,5.6206,5.4905,5.5209,5.7171,5.6511,5.6511,5.7002,5.0236,4.8868,0.0,0.0,0.0,0.0,0.0,0.0,0.0,0.0,0.0,0.0,0.0,0.0,0.0,0.0,0.0,4.3653,4.4871,4.5943,4.6856,4.5397,4.3763,4.2504,4.3012,4.3728,4.442,4.5973,4.7158,4.7663,4.9399,4.977,4.8179,4.9707,5.0621,5.0691,5.1971,5.3145,5.416,5.5135,5.5506,5.5293,0.0,0.0,5.5496,5.6258,5.624,5.5699,5.5699,5.5699,5.5699,5.5699,5.5699,5.5631,5.5056,5.482,5.482,5.482,5.482,5.4853,5.5158,5.5259,5.5327,5.5597,5.5699,5.5699,5.5699,5.5699,0.0,5.6427,5.6596,5.6731,5.7306,5.7476,5.7476,5.7476,5.7577,5.7697,5.7697,5.778,5.79,5.79,5.79,5.79,5.79,5.7645,5.7476,5.7476,5.7476,5.7476,5.7476,5.7476,5.7239,5.6664,5.6596,5.6359,5.5767,5.5564,5.58,5.6562,5.7559,5.8134,5.8134,5.8863,5.9268,5.9268,5.8964,5.9032,5.9471,5.9336,5.9336,5.9404,5.6765,5.6224,0.0,0.0,0.0,0.0,0.0,0.0,0.0,0.0,0.0,0.0,0.0,4.0405,4.2548,0.0,4.5654,4.744,4.7862,4.8391,4.9649,4.8779,4.7288,4.533,4.5185,4.5798,4.7227,4.8526,4.9397,4.9606,5.1327,5.1865,5.0754,5.1974,5.3066,5.3837,5.4537,5.5322,5.6224,5.6968,5.7171,5.6799,5.7915,5.8084,5.739,5.8118,5.8051,5.7356,5.7356,5.7119,5.6799,5.6799,5.6799,5.6799,5.6799,5.6359,5.5699,5.5699,5.5699,5.5767,5.6105,5.624,5.6325,5.6697,5.6799,5.6799,5.6799,5.6799,5.6867,5.7239,5.734,5.7442,5.778,5.79,5.79,5.79,5.79,5.79,5.79,5.79,5.79,5.79,5.79,5.79,5.79,5.79,5.79,5.79,5.79,5.79,5.79,5.79,5.7764,5.7374,5.734,5.7205,5.6833,5.7119,5.766,5.8389,5.9539,6.0129,6.0129,6.052,6.0689,6.0689,6.0317,6.0114,6.0114,6.0114,6.0317,6.0689,5.9945,5.9573,0.0,0.0,0.0,0.0,0.0,0.0,0.0,3.7462,3.8391,4.1235,4.252,4.3987,4.6881,4.8037,4.9172,5.11,5.0726,5.0803,5.2522,5.1911,5.0728,4.9198,4.8232,4.8424,5.0276,5.1146,5.1715,5.1943,5.331,5.4086,5.3971,5.4789,5.5802,5.6968,5.7171,5.7509,5.8084,5.8407,5.8475,5.834,5.9235,5.9487,5.925,6.0013,5.9911,5.9216,5.9216,5.8795,5.8118,5.8118,5.8035,5.79,5.79,5.7171,5.6139,5.6139,5.6139,5.6206,5.6799,5.7002,5.7103,5.773,5.79,5.79,5.79,5.79,5.79,5.79,5.79,5.79,5.79,5.79,5.79,5.79,5.79,5.79,5.79,5.79,5.79,5.79,5.79,5.79,5.79,5.79,5.79,5.79,5.79,5.79,5.79,5.79,5.79,5.79,5.79,5.7967,5.8084,5.893,5.9689,6.0317,6.1061,6.1501,6.1501,6.1501,6.1501,6.1501,6.0892,6.0554,6.0554,6.0554,6.0892,6.1501,6.1501,6.1163,3.5881,3.5532,3.6456,3.8882,3.9051,4.0155,0.0,4.5438,4.4463,4.7413,4.86,4.926,4.9661,5.0338,5.1133,5.2029,5.1892,5.2294,5.4074,5.341,5.3253,5.4605,5.3549,5.272,5.2798,5.364,5.4732,5.603,5.634,5.6678,5.7315,5.7473,5.7629,5.7764,5.8423,5.8776,5.8878,6.025,6.0554,5.9877,6.1332,6.1298,6.0013,6.0791,6.0723,5.9979,5.9979,5.9573,5.8878,5.8878,5.849,5.79,5.79,5.7798,5.7645,5.7645,5.7645,5.7663,5.7764,5.7798,5.7798,5.7866,5.79,5.79,5.79,5.79,5.79,5.79,5.79,5.79,5.79,5.79,5.79,5.79,5.79,5.79,5.79,5.79,5.79,5.79,5.79,5.79,5.79,5.79,5.79,5.79,5.79,5.79,5.79,5.79,5.79,5.79,5.79,5.8152,5.881,6.0216,6.1095,6.1163,6.1873,6.2299,6.2299,6.2299,6.2299,6.2299,6.2197,6.2164,6.2164,6.2164,6.2197,6.2299,6.2299,6.2231,4.278,4.1813,4.1238,4.2929,4.345,4.4147,4.6549,4.6786,4.7124,4.9221,5.0236,5.0879,5.1285,5.1623,5.2232,5.345,5.3531,5.4031,5.5664,5.5481,5.5828,5.7421,5.7085,5.6318,5.5371,5.6433,5.7239,5.7408,5.7848,5.8201,5.8524,5.8558,5.8964,5.9844,6.0182,6.0554,6.096,6.1603,6.1772,6.1434,6.2076,6.2042,6.1434,6.1772,6.1501,6.0757,6.0317,5.9945,5.9641,5.9641,5.9471,5.9133,5.8727,5.8795,5.9066,5.8238,5.79,5.79,5.79,5.79,5.79,5.79,5.79,5.79,5.79,5.79,5.79,5.79,5.79,5.79,5.79,5.79,5.79,5.79,5.79,5.8035,5.8457,5.8558,5.866,5.9099,5.9167,5.9167,5.9167,5.9167,5.9167,5.9167,5.8441,5.79,5.79,5.79,5.8051,5.849,5.893,5.9505,6.0264,6.0926,6.1467,6.1907,6.2212,6.24,6.24,6.24,6.24,6.24,6.24,6.24,6.24,6.24,6.24,6.24,6.24,6.24,4.5824,4.5331,4.477,4.5534,4.6718,4.7564,4.7056,4.7887,4.9104,5.0168,5.098,5.1708,5.2503,5.2807,5.3382,5.4702,5.5074,5.5581,5.6664,5.7171,5.7814,5.8878,5.9385,5.9216,5.8152,5.8829,5.9167,5.8863,5.9336,5.9723,5.9945,5.9945,6.0452,6.1569,6.1603,6.1873,6.2381,6.24,6.24,6.24,6.24,6.24,6.24,6.24,6.211,6.1569,6.0994,6.0622,6.0419,6.0419,6.0317,6.0047,5.9487,5.9641,6.0013,5.9133,5.8558,5.8152,5.7967,5.79,5.79,5.79,5.8017,5.8186,5.8186,5.8355,5.849,5.849,5.849,5.849,5.849,5.849,5.849,5.849,5.849,5.8693,5.9453,5.9622,5.9859,6.0588,6.0723,6.0723,6.0723,6.0723,6.0723,6.0723,5.9829,5.9084,5.8863,5.9016,5.9167,5.9302,6.0148,6.0892,6.1264,6.1501,6.1839,6.2367,6.24,6.24,6.24,6.24,6.24,6.24,6.2584,6.2685,6.2685,6.2888,6.299,6.299,6.299,6.299,4.161,4.2976,4.477,4.5534,4.7868,4.9981,4.9981,5.0541,5.11,5.1167,5.1742,5.2503,5.3315,5.4059,5.4769,5.553,5.6274,5.6765,5.6799,5.8032,5.8945,5.8979,6.0298,6.1231,6.1163,6.0486,6.0385,6.1129,6.1231,6.1535,6.2265,6.2299,6.2333,6.2367,6.2367,6.24,6.24,6.24,6.24,6.24,6.24,6.24,6.24,6.24,6.24,6.2367,6.2347,6.1907,6.1264,6.1264,6.0791,6.0114,6.008,6.008,6.0182,6.0926,6.025,5.8844,5.8152,5.79,5.79,5.79,5.8389,5.8979,5.8979,5.9471,6.0047,6.0047,6.0047,6.0047,6.0047,6.0047,6.0047,6.0047,6.0047,6.025,6.1061,6.1231,6.1467,6.2197,6.2333,6.2333,6.2333,6.2333,6.2333,6.2333,6.2299,6.2009,6.1298,6.1806,6.1724,6.0216,6.14,6.2042,6.1366,6.1941,6.24,6.24,6.24,6.24,6.24,6.24,6.24,6.24,6.3125,6.3477,6.3477,6.4174,6.4546,6.4546,6.4546,6.4546,4.4553,4.5838,4.709,4.8308,4.9729,5.0845,5.0845,5.142,5.1928,5.1928,5.2942,5.3754,5.3551,5.4499,5.5395,5.5665,5.6308,5.7137,5.81,5.8675,5.9385,6.0419,6.0994,6.1501,6.1975,6.1772,6.1738,6.2009,6.2009,6.2144,6.24,6.24,6.24,6.24,6.24,6.24,6.24,6.24,6.24,6.24,6.24,6.24,6.24,6.24,6.2651,6.3125,6.3125,6.326,6.3497,6.3497,6.3328,6.3057,6.255,6.2651,6.299,6.2279,6.2009,6.1888,6.1129,6.0911,6.0911,6.0911,6.0723,6.052,6.052,6.0723,6.0791,6.025,6.0486,6.0757,6.025,6.0114,6.0216,6.0757,6.0892,6.1231,6.2482,6.2767,6.299,6.37,6.3869,6.3869,6.3869,6.3869,6.3869,6.3869,6.3024,6.2333,6.2042,6.2685,6.2922,6.2395,6.326,6.3768,6.3497,6.37,6.3869,6.3869,6.3869,6.3869,6.3869,6.3869,6.3869,6.3869,6.4106,6.4241,6.4241,6.4478,6.4613,6.4613,6.4613,6.4613,4.665,4.7718,4.8631,5.0135,5.1048,5.1573,5.1573,5.2198,5.2807,5.3078,5.3247,5.3484,5.3822,5.4465,5.5158,5.5969,5.6697,5.7712,5.9201,5.9404,5.9877,6.1163,6.1535,6.1873,6.2367,6.24,6.24,6.24,6.24,6.24,6.24,6.24,6.24,6.24,6.24,6.24,6.24,6.24,6.2516,6.2787,6.3057,6.3193,6.3193,6.3193,6.3429,6.3903,6.3903,6.4174,6.4613,6.4613,6.4613,6.4546,6.4086,6.4174,6.4512,6.3835,6.3869,6.4106,6.2821,6.24,6.24,6.24,6.2245,6.211,6.211,6.2279,6.2381,6.1839,6.2076,6.2347,6.1839,6.1704,6.1839,6.2347,6.2482,6.2821,6.4038,6.4309,6.4512,6.5256,6.5392,6.5392,6.5392,6.5392,6.5392,6.5392,6.458,6.3768,6.3226,6.4072,6.4458,6.3951,6.4546,6.4884,6.4613,6.4613,6.4613,6.4613,6.4613,6.4613,6.4613,6.4613,6.4613,6.4613,6.485,6.4986,6.4986,6.5256,6.5392,6.5392,6.5392,6.5392,4.7582,4.8563,4.951,5.0897,5.181,5.2367,5.2367,5.2976,5.3721,5.4329,5.2807,5.1945,5.3991,5.3957,5.4296,5.6359,5.7442,5.8543,5.9945,6.0148,6.0452,6.1264,6.1975,6.24,6.24,6.24,6.24,6.24,0.0,6.24,6.24,6.24,6.24,6.24,6.24,6.24,6.24,6.2434,6.2821,6.3545,6.4275,6.4613,6.4613,6.4613,6.4613,6.4647,6.4647,6.4681,6.4715,6.4715,6.4715,6.4715,6.4715,6.4715,6.4783,6.5493,6.5784,6.548,6.3348,6.2637,6.2637,6.2637,6.3057,6.3612,6.3612,6.4106,6.4647,6.4613,6.4613,6.4647,6.4613,6.4613,6.4613,6.4647,6.4647,6.485,6.5615,6.5784,6.5967,6.669,6.6893,6.6927,6.6927,6.6927,6.6927,6.6927,6.6859,6.6339,6.4918,6.5912,6.625,6.485,6.5324,6.5459,6.4783,6.4715,6.4715,6.4715,6.4715,6.4715,6.4715,6.4715,6.4715,6.4715,6.5392,6.5784,6.5784,6.6474,6.6825,6.6859,6.6859,6.6859,4.8462,5.0067,5.1555,5.1928,5.2604,5.3179,5.3179,5.3788,5.4059,5.3078,5.2909,5.257,5.1454,5.3382,5.5124,5.5141,5.7611,5.9877,6.0858,6.0994,6.1264,6.2009,6.2299,6.24,6.24,6.24,6.24,6.24,6.24,6.24,6.24,6.24,6.24,6.24,6.24,6.24,6.24,6.2956,6.3599,6.4343,6.4512,6.4613,6.4613,6.4613,6.4884,6.5425,6.5425,6.573,6.6216,6.6216,6.6216,6.6216,6.6216,6.6216,6.625,6.644,6.6542,6.644,6.5865,6.5696,6.5696,6.5696,6.5425,6.5121,6.5121,6.5256,6.529,6.4749,6.4986,6.529,6.4749,6.4613,6.4749,6.529,6.5425,6.5628,6.6373,6.6542,6.6745,6.7489,6.8098,6.8504,6.8504,6.8504,6.8504,6.8504,6.7996,6.7286,6.6352,6.6555,6.6677,6.6305,6.6406,6.644,6.625,6.6216,6.6216,6.6216,6.6216,6.6216,6.6216,6.6216,6.6216,6.6216,6.644,6.6542,6.6542,6.669,6.7083,6.7624,6.7624,6.7929,4.9763,5.1386,5.2841,5.2841,5.3179,5.3416,5.3044,5.3281,5.3145,5.1657,5.1183,5.066,4.9357,5.1911,5.4296,5.4583,5.7679,6.0486,6.1603,6.1501,6.1569,6.2333,6.24,6.24,6.24,6.24,6.24,6.24,6.24,6.24,6.24,6.24,6.24,6.24,6.24,6.255,6.2888,6.3937,6.4681,6.5087,6.5425,6.5561,6.5561,6.5561,6.5797,6.617,0.0,6.644,6.6791,6.6791,6.6791,6.6791,6.6791,6.6791,6.6825,6.7163,6.7286,6.7354,6.7692,6.7827,6.7726,6.6994,6.6542,6.617,6.617,6.617,6.617,6.6068,6.6339,6.6643,6.6576,6.6576,6.6677,6.7083,6.7184,6.732,6.7726,6.7827,6.7929,6.8335,6.8808,6.9113,6.9113,6.9113,6.9113,6.9113,6.8707,6.8267,6.7861,6.7523,6.7421,6.7793,6.7827,6.7827,6.7827,6.7827,6.7827,6.7827,6.7827,6.7827,6.7827,6.7827,6.7827,6.7827,6.7827,6.7827,6.7827,6.7827,6.803,6.8436,6.8436,6.8673,5.1032,5.2317,5.3518,5.3518,5.3518,5.3281,5.2367,5.2164,5.1725,5.0135,4.8714,4.7718,4.7616,5.0017,5.2536,5.4194,5.7543,6.052,6.2164,6.1839,6.167,6.2313,6.24,6.24,6.24,6.24,6.24,6.24,6.24,6.24,6.24,6.24,6.2415,6.2516,6.2637,6.3057,6.3781,6.5053,6.5751,6.5831,6.6508,6.6791,6.6791,6.6791,6.6791,6.6791,6.6791,0.0,6.6791,6.6791,6.6859,6.6927,6.6927,6.6994,6.7184,6.7827,6.8064,6.8166,6.8876,6.9113,6.8876,6.7535,6.7117,6.7117,6.7117,6.7117,6.7231,6.7895,6.8064,6.8233,6.891,6.9113,6.9113,6.9113,6.9113,6.9113,6.9113,6.918,6.9248,6.9248,6.9316,6.9383,6.9383,6.9383,6.9383,6.9383,6.9316,6.9282,6.9383,6.8605,6.8335,6.9045,6.9113,6.9113,6.9113,6.9113,6.9113,6.9113,6.9113,6.9113,6.9113,6.9113,6.9113,6.9113,6.9113,6.9113,6.9113,6.9113,6.9147,6.9248,6.9248,6.9316,5.1167,5.2317,5.3518,5.3518,5.3518,5.3145,5.1708,5.137,5.0795,4.8698,4.7597,4.6786,4.6196,4.8477,5.1183,5.3348,5.6799,5.9945,6.2096,6.2299,6.2265,6.24,6.24,6.24,6.24,6.24,6.24,6.24,6.24,6.24,6.24,6.24,6.2685,6.3274,6.3903,6.458,6.529,6.5581,6.6,6.6609,6.6724,6.6791,6.6791,6.6791,6.6791,6.6791,6.6791,0.0,6.6791,6.6791,6.7163,6.7726,6.7726,6.8132,6.8707,6.8842,6.8876,6.891,6.9045,6.9113,6.9079,6.8808,6.8707,6.8707,6.8707,6.8707,6.8741,6.8876,6.8876,6.891,6.9079,6.9113,6.9113,6.9113,6.9113,6.9113,6.9113,6.9586,6.9992,6.9992,7.05,7.0939,7.0939,7.0939,7.0939,7.0939,7.0398,7.0229,7.0838,6.9722,6.8944,6.9079,6.9113,6.9113,6.9113,6.9113,6.9113,6.9113,6.9113,6.9113,6.9113,6.9113,6.9113,6.9113,6.9113,6.9113,6.9113,6.9113,6.9417,6.9992,6.9992,7.0331,5.1201,5.2317,5.3518,5.3518,5.3518,5.301,5.1082,5.0338,4.9206,4.6196,4.5283,4.4823,4.4079,4.6989,5.0135,5.1979,5.6071,5.952,6.0994,6.1873,6.24,6.24,6.24,6.24,6.24,6.24,6.24,6.24,6.24,6.24,6.24,6.2753,6.3328,6.4072,6.4783,6.5344,6.5717,6.6068,6.644,6.6791,6.6791,6.6791,6.6791,6.6791,6.6791,6.6791,6.6791,0.0,6.6825,6.7197,6.759,6.7929,6.8368,6.8774,6.9147,6.9519,6.9654,6.9722,7.0128,7.0241,7.0241,7.0241,6.9722,6.9113,6.9113,6.9113,6.918,6.9553,6.9654,6.9755,7.0161,7.0241,7.0241,7.0241,7.0241,7.0241,7.0241,7.0534,7.077,7.077,7.1075,7.1289,7.1289,7.1289,7.1289,7.1289,7.1007,7.0906,7.1255,7.068,7.0241,7.0241,7.0241,7.0241,7.0241,7.0241,7.0241,7.0241,7.0241,7.0241,7.0241,7.0241,7.0241,7.0241,7.0241,7.0241,7.0241,7.0241,7.0432,7.077,7.077,7.0973,5.1201,5.2317,5.3518,5.3518,5.3518,5.2807,5.0202,4.9052,4.7564,4.4099,4.3152,4.2882,4.2807,4.5805,4.8935,5.0863,5.5056,5.8558,5.9911,6.1298,6.2231,6.24,6.24,6.24,6.24,6.24,6.24,6.24,6.257,0.0,6.2618,6.3497,6.4241,6.4816,6.5527,6.5933,6.5933,6.6508,6.6791,6.6791,6.6791,6.6791,6.6791,6.6791,6.6791,6.6791,6.696,0.0,0.0,6.7861,6.8233,6.847,6.9079,6.9417,6.9654,7.0229,7.0432,7.05,7.1109,7.1289,7.1289,7.1289,7.0534,6.9586,6.9586,6.9586,6.9688,7.0263,7.0432,7.0567,7.1142,7.1289,7.1289,7.1289,7.1289,7.1289,7.1289,7.1289,7.1289,7.1289,7.1289,7.1289,7.1289,7.1289,7.1289,7.1289,7.1289,7.1289,7.1289,7.1289,7.1289,7.1289,7.1289,7.1289,7.1289,7.1289,7.1289,7.1289,7.1289,7.1289,7.1289,7.1289,7.1289,7.1289,7.1289,7.1289,7.1289,7.1289,7.1289,7.1289,7.1289,7.1289,5.1201,5.2317,5.3518,5.3518,5.3518,5.2554,4.8935,4.753,4.6312,4.3896,4.2341,4.2016,4.4025,4.5263,4.7143,5.0626,5.3348,5.619,5.9607,6.0858,6.1637,6.2313,6.24,6.24,6.24,6.24,6.24,6.24,6.3024,0.0,6.3409,6.4715,6.5527,6.5615,6.6305,6.669,6.669,6.6757,6.6791,6.6791,6.6791,6.6791,6.6791,6.6791,6.6791,6.6825,6.7523,0.0,0.0,6.8673,6.9383,7.0014,7.006,7.05,7.1109,7.1154,7.1188,7.1188,7.1289,7.1289,7.1289,7.1289,7.1188,7.1086,7.1086,7.1086,7.1086,7.1188,7.1188,7.1188,7.1289,7.1289,7.1289,7.1289,7.1289,7.1289,7.1289,7.1289,7.1289,7.1289,7.1289,7.1289,7.1289,7.1289,7.1289,7.1289,7.1289,7.1289,7.1289,7.1289,7.1289,7.1289,7.1289,7.1289,7.1289,7.1289,7.1289,7.1289,7.1289,7.1289,7.1289,7.1289,7.1289,7.1289,7.1289,7.1289,7.1289,7.1289,7.1289,7.1289,7.1289,7.1289,5.1066,5.2317,5.3518,5.3518,5.3145,5.2029,4.9206,4.7293,4.5635,4.3795,4.2239,4.1732,4.3538,4.4891,4.6616,4.9424,5.2164,5.4769,5.7119,5.9268,6.0689,6.0994,6.1806,6.24,6.24,6.24,6.2584,6.3024,0.0,0.0,6.4816,6.5358,6.5899,6.6339,6.6643,6.6791,6.6791,6.6791,6.6791,6.6791,6.6791,6.6791,6.6791,6.6791,6.7028,6.7489,6.776,0.0,0.0,6.9451,6.9925,7.0229,7.0703,7.1041,7.1289,7.1289,7.1289,7.1289,7.1289,7.1289,7.1289,7.1289,7.1289,7.1289,7.1289,7.1289,7.1289,7.1289,7.1289,7.1289,7.1289,7.1289,7.1289,7.1289,7.1289,7.1289,7.1289,7.1289,7.1289,7.1289,7.1289,7.1289,7.1289,7.1289,7.1289,7.1289,7.1289,7.1289,7.1289,7.1289,7.1289,7.1289,7.1289,7.1289,7.1289,7.1289,7.1289,7.1289,7.1289,7.1289,7.1289,7.1289,7.1289,7.1289,7.1289,7.1526,7.1954,7.1954,7.2191,7.2631,7.2631,7.2631,5.0998,5.2317,5.3518,5.3518,5.2739,5.1352,4.8917,4.6989,4.5148,4.3152,4.2117,4.1982,4.3457,4.4654,4.6177,4.8612,5.115,5.3568,5.5699,5.8168,6.0013,6.0689,6.1738,6.24,6.24,6.2584,6.3024,6.3768,0.0,0.0,6.6,6.6034,6.6271,6.6757,6.6791,6.6791,6.6791,6.6791,6.6791,6.6791,6.6791,6.6791,6.6791,6.7049,6.7421,6.7929,6.8368,0.0,0.0,7.0229,7.0534,7.0567,7.1109,7.1289,7.1289,7.1289,7.1289,7.1289,7.1289,7.1289,7.1289,7.1289,7.1501,7.172,7.172,7.1546,7.1379,7.1666,7.196,7.2185,7.2185,7.2185,7.2185,7.2185,7.2185,7.2185,7.2185,7.2185,7.2185,7.2185,7.2185,7.2185,7.2185,7.2185,7.2185,7.2185,7.2185,7.2185,7.2185,7.2185,7.2185,7.2185,7.2185,7.196,7.1356,7.1556,7.16,7.1312,7.1851,7.2159,7.2105,7.2398,7.264,7.2867,7.2901,7.3002,7.3174,7.3174,7.33,7.35,7.35,7.35,5.0998,5.2317,5.3518,5.3518,5.2351,5.0423,4.7496,4.6244,4.4857,4.1847,4.1779,4.2773,4.4296,4.4615,4.5582,4.8511,5.0254,5.252,5.6258,5.8066,5.9844,6.211,6.24,6.24,6.24,6.3057,6.3781,0.0,0.0,0.0,6.6757,6.6791,6.6791,6.6791,6.6791,6.6791,6.6791,6.6791,6.6791,6.6791,6.6791,6.6791,6.6825,6.7557,6.7895,0.0,0.0,0.0,0.0,7.0973,7.1289,7.1289,7.1289,7.1289,7.1289,7.1289,7.1289,7.1289,7.1289,7.1289,7.1289,7.1289,7.1948,7.2776,7.2776,7.2099,7.1523,7.2498,7.3512,7.4253,7.4253,7.4253,7.4253,7.4253,7.4253,7.4253,7.4253,7.4253,7.4253,7.4253,7.4253,7.4253,7.4253,7.4253,7.4253,7.4253,7.4253,7.4253,7.4253,7.4253,7.4253,7.4253,7.4253,7.3452,7.1457,7.2193,7.2364,7.1379,7.3186,7.4182,7.3976,7.4917,7.5816,7.6653,7.6634,7.6137,7.5071,7.5071,7.4535,7.35,7.35,7.35,4.9357,5.0795,5.1911,5.1911,5.0795,4.9187,4.7225,4.5853,4.4519,4.3017,4.2882,4.3538,4.506,4.5751,4.724,5.0676,5.2131,5.389,5.7103,5.8829,6.0013,6.0723,6.1738,6.24,6.24,6.3531,6.4343,0.0,0.0,0.0,6.6791,6.6791,6.6791,6.6791,6.6791,6.6791,6.6791,6.6791,6.6791,6.6791,6.732,6.7557,6.759,6.8368,6.9011,0.0,0.0,0.0,0.0,7.1188,7.1289,7.1289,7.1289,7.1289,7.1289,7.1289,7.1289,7.1289,7.1289,7.1754,7.2342,7.2342,7.3003,7.3917,7.4483,7.4051,7.3412,7.3749,7.4858,7.5819,7.525,7.5517,7.5925,7.5925,7.5925,7.5925,7.5925,7.5925,7.5925,7.5925,7.5925,7.5925,7.5925,7.5925,7.5925,7.5925,7.5925,7.5925,7.5925,7.5925,7.5925,7.5925,7.5925,7.5266,7.3517,7.4146,7.4521,7.4182,7.5274,7.5896,7.5849,7.6144,7.646,7.6708,7.6708,7.6403,7.5833,7.5833,7.5566,7.5023,7.5778,7.6092,4.7462,4.9255,5.0356,5.0356,4.9037,4.7428,4.6259,4.5041,4.3842,4.278,4.3254,4.4248,4.5452,4.6075,4.7394,5.0541,5.1725,5.3348,5.6596,5.8355,5.9674,6.0825,6.1806,6.24,6.24,6.3734,0.0,0.0,0.0,0.0,6.6791,6.6791,6.6791,6.6791,6.6791,6.6791,6.6791,6.6791,6.6927,6.7218,6.7692,6.8064,6.8368,6.9147,6.9755,0.0,0.0,0.0,0.0,7.1289,7.1289,7.1289,7.1289,7.1289,7.1289,7.1289,7.1546,7.1873,7.1873,7.2726,7.3812,7.3812,7.4698,7.5958,7.6841,7.6481,7.5777,7.5777,7.6785,7.7739,7.7254,7.747,7.7883,7.7883,7.7883,7.7883,7.7883,7.7883,7.7883,7.7883,7.7883,7.7883,7.7883,7.7883,7.7883,7.7883,7.7883,7.7883,7.7883,7.7883,7.7883,7.7883,7.7883,7.747,7.6464,7.6462,7.636,7.5999,7.7159,7.7828,7.7762,7.8132,7.8477,7.8764,7.8764,7.846,7.7878,7.7446,7.7154,7.6949,7.7606,7.8089,0.0,4.7394,4.8612,4.868,4.709,4.5365,4.4668,4.3944,0.0,4.163,4.3112,4.4871,4.5703,4.579,4.6549,4.8951,4.9932,5.1725,5.5395,5.7239,5.9287,6.2164,6.2434,6.2434,6.257,6.3802,0.0,0.0,0.0,0.0,6.6791,6.6791,6.6791,6.6791,6.6791,6.6791,6.6791,6.6859,6.7218,6.7895,6.7996,6.847,6.9214,6.9925,7.0285,0.0,0.0,0.0,0.0,7.1289,7.1289,7.1289,7.1289,7.1356,7.1424,7.1424,7.2034,7.29,7.299,7.4137,7.565,7.5743,7.6964,7.861,7.9576,7.9192,7.84,7.8345,7.9125,7.9963,7.989,7.9926,7.9963,7.9963,7.9963,7.9963,7.9963,7.9963,7.9963,7.9963,7.9963,7.9963,7.9963,7.9963,7.9963,7.9963,7.9963,7.9963,7.9963,7.9963,7.9963,7.9963,7.9963,7.9963,7.9963,7.9008,7.8009,7.7048,7.8872,7.9901,7.9718,8.0602,8.1452,8.2186,8.2137,8.1613,8.0623,7.9517,7.9039,7.9074,7.9154,7.962,4.054,0.0,4.4843,4.5481,4.479,4.3896,0.0,4.3524,4.3288,4.2949,4.3809,4.5176,4.7041,4.6921,4.7834,5.1792,5.3044,5.4634,5.7762,6.0013,6.1806,6.3091,6.2753,6.2821,6.3971,6.441,0.0,0.0,0.0,6.6791,6.6791,6.6791,6.6791,6.6791,6.6791,6.6791,6.6791,6.7354,6.7726,6.7895,6.9079,6.9777,6.998,7.0703,7.1041,0.0,0.0,0.0,7.1289,7.1289,7.1289,7.1289,7.1289,7.1776,7.2435,7.2435,7.3105,7.4053,7.4636,7.5642,7.6875,7.8305,7.9493,8.0385,8.0654,8.0536,8.0206,7.9584,8.0499,8.1489,8.0865,8.1158,8.1636,8.1636,8.1636,8.1636,8.1636,8.1636,8.1636,8.1636,8.1636,8.1636,8.1636,8.1636,8.1636,8.1636,8.1636,8.1636,8.1636,8.1636,8.1636,8.1636,8.1636,8.1636,8.1636,8.0833,8.0233,7.9997,8.102,8.1591,8.1576,8.1795,8.2003,8.2186,8.1405,8.084,8.0623,7.9517,7.9322,7.9964,8.0775,8.1568,3.7799,4.0392,4.2997,4.345,4.32,4.2895,4.2895,4.2895,4.2895,4.2895,4.3822,4.5176,4.7056,4.7902,4.9221,5.1979,5.4228,5.6664,5.9641,6.1704,6.3057,6.3443,6.3159,6.3226,0.0,0.0,0.0,0.0,0.0,6.6791,6.6791,6.6791,6.6791,6.6791,6.6791,6.6791,6.6791,6.7523,6.8098,6.847,6.962,7.0364,7.0737,7.1142,7.1289,0.0,0.0,0.0,7.1334,7.1786,7.1732,7.1401,7.23,7.2728,7.2894,7.3737,7.4688,7.5655,7.646,7.7666,7.9052,8.0442,8.1195,8.1562,8.1562,8.1562,8.1452,8.1028,8.1525,8.2113,8.1672,8.1856,8.2186,8.2186,8.2186,8.2186,8.2186,8.2186,8.2186,8.2186,8.2186,8.2186,8.2186,8.2186,8.2186,8.2186,8.2186,8.2186,8.2186,8.2186,8.2186,8.2186,8.2186,8.2186,8.2186,8.1782,8.1562,8.1562,8.1966,8.2186,8.2186,8.2186,8.2186,8.2186,8.1647,8.1317,8.1353,8.0732,8.0693,8.1144,8.2105,8.2971,3.6615,3.9592,4.2083,4.186,4.1961,4.2117,4.2117,4.2232,4.2367,4.2604,4.3789,4.5345,4.7259,4.9,5.0541,5.1844,5.4921,5.8118,6.0926,6.2463,6.3308,6.3308,6.3308,0.0,6.3646,0.0,0.0,0.0,0.0,6.6791,6.6791,6.6791,6.6791,6.6791,6.6791,6.6859,6.696,6.7726,6.847,6.9282,7.0026,7.0703,7.1289,7.1289,7.1289,7.1289,0.0,0.0,7.1612,7.2435,7.2406,7.1939,7.3631,7.394,7.3637,7.5138,7.6445,7.7545,7.8341,7.9744,8.1305,8.1966,8.2186,8.2186,8.2186,8.2186,8.2186,8.2186,8.2186,8.2186,8.2186,8.2186,8.2186,8.2186,8.2186,8.2186,8.2186,8.2186,8.2186,8.2186,8.2186,8.2186,8.2186,8.2186,8.2186,8.2186,8.2186,8.2186,8.2186,8.2186,8.2186,8.2186,8.2186,8.2186,8.2186,8.2186,8.2186,8.2186,8.2186,8.2186,8.2186,8.2186,8.2186,8.2186,8.2186,8.2186,8.2186,8.2186,8.2333,8.259,8.3287,8.4078,3.7719,3.9986,4.1068,3.9817,4.046,4.1373,4.1373,4.1847,4.2672,4.3992,4.4939,4.6752,5.071,5.071,5.1386,5.531,5.7476,5.9284,6.1061,6.2042,6.255,6.255,0.0,6.3057,0.0,0.0,0.0,0.0,0.0,6.6791,6.6791,6.6791,6.6791,6.6791,6.6791,6.7117,6.7726,6.8504,6.9282,7.0048,7.077,7.1188,7.1289,7.1289,7.1289,7.1289,0.0,7.1764,7.2582,7.2735,7.3191,7.3885,7.4177,7.513,7.6374,7.6678,7.786,7.9478,8.0304,8.1192,8.2039,8.215,8.2186,8.2186,8.2186,8.2186,8.2186,8.2186,8.2186,8.2186,8.2186,8.2186,8.2186,8.2186,8.2186,8.2186,8.2186,8.2186,8.2186,8.2186,8.2186,8.2186,8.2186,8.2186,8.2186,8.2186,8.2186,8.2186,8.2186,8.2186,8.2186,8.2186,8.2186,8.2186,8.2186,8.2186,8.2186,8.2186,8.2186,8.2186,8.2186,8.2186,8.2186,8.2186,8.2186,8.2186,8.2186,8.2186,8.2884,8.4242,8.4352,8.5233,3.6366,3.8565,4.0223,4.117,4.3389,4.5399,4.5399,4.5974,4.6597,4.6921,4.7564,4.8951,5.1792,5.2739,5.46,5.9099,5.9708,6.0148,6.167,6.1839,6.1941,0.0,0.0,0.0,0.0,0.0,0.0,0.0,0.0,0.0,6.6791,6.6791,6.6791,6.6791,6.7184,6.776,6.8538,6.9316,6.9857,7.0217,7.0973,7.1289,7.1289,7.1289,7.1289,7.1289,0.0,7.1873,7.2838,7.3392,7.3869,7.444,7.6013,7.6775,7.7173,7.861,7.9991,8.1175,8.1525,8.1893,8.2186,8.2186,8.2186,8.2186,8.2186,8.2186,8.2186,8.2186,8.2186,8.2186,8.2186,8.2186,8.2186,8.2186,8.2186,8.2186,8.2186,8.2186,8.2186,8.2186,8.2186,8.2186,8.2186,8.2186,8.2186,8.2186,8.2186,8.2186,8.2186,8.2186,8.2186,8.2186,8.2186,8.2186,8.2186,8.2186,8.2186,8.2186,8.2186,8.2186,8.2186,8.2186,8.2186,8.2186,8.2186,8.2406,8.2847,8.2847,8.3471,8.4609,8.5049,8.5637,3.6389,3.8328,4.0324,4.3626,4.623,4.8139,4.8849,4.9289,4.9627,4.9763,5.0371,5.1454,5.3281,5.5327,5.7814,6.1061,6.0757,6.052,6.1724,6.1366,6.1163,6.1569,0.0,0.0,0.0,0.0,0.0,0.0,0.0,0.0,6.6791,6.6791,6.6791,6.6791,6.7523,6.8301,6.9079,6.9823,7.0297,7.0466,7.1041,7.1289,7.1289,7.1289,7.1412,7.1644,7.1644,7.2364,7.3556,7.4329,7.4936,7.555,7.775,7.8317,7.8204,8.0438,8.1672,8.2186,8.2186,8.2186,8.2186,8.2186,8.2186,8.2186,8.2186,8.2186,8.2186,8.2186,8.2186,8.2186,8.2186,8.2186,8.2186,8.2186,8.2186,8.2186,8.2186,8.2186,8.2186,8.2186,8.2186,8.2186,8.2186,8.2186,8.2186,8.2186,8.2186,8.2186,8.2186,8.2186,8.2186,8.2186,8.2186,8.2186,8.2186,8.2186,8.2186,8.2186,8.2186,8.2186,8.2186,8.2186,8.2186,8.2186,8.2186,8.259,8.3381,8.3381,8.3895,8.4903,8.571,8.6187,4.0472,4.1441,4.207,4.65,4.6244,4.5616,4.8376,4.8496,4.8834,5.1522,5.2706,5.4126,5.6986,5.8761,5.9674,5.9284,5.9742,6.0148,6.025,0.0,5.9945,0.0,0.0,0.0,0.0,0.0,0.0,0.0,0.0,0.0,6.6791,6.6791,6.6791,6.6791,6.7523,6.8301,6.9079,6.9823,7.0534,7.1222,7.1255,7.1289,7.1289,7.1289,7.1808,7.2673,7.2673,7.3792,7.5597,7.5666,7.6735,7.8322,7.8505,7.9475,8.0821,8.1766,8.215,8.2186,8.2186,8.2186,8.2186,8.2186,8.2186,8.2186,8.2186,8.2186,8.2186,8.2186,8.2186,8.2186,8.2186,8.2186,8.2186,8.2186,8.2186,8.2186,8.2186,8.2186,8.2186,8.2186,8.2186,8.2186,8.2186,8.2186,8.2186,8.2186,8.2186,8.2186,8.2186,8.2186,8.2186,8.2186,8.2186,8.2186,8.2186,8.2186,8.2186,8.2186,8.2186,8.2186,8.2186,8.2186,8.2186,8.2186,8.2186,8.259,8.3381,8.3381,8.4205,8.571,8.6554,8.7325,3.9222,4.0727,4.2214,4.6224,4.797,4.9255,5.1319,5.2283,5.3332,5.5344,5.6021,5.6731,5.8287,5.9404,6.0013,5.9742,5.9539,5.9419,5.9419,5.9032,0.0,0.0,0.0,0.0,0.0,0.0,0.0,0.0,0.0,0.0,6.6791,6.6791,6.6791,6.6791,6.7996,6.8808,6.9113,7.0297,7.135,7.2215,7.1578,7.1622,7.2215,7.2215,7.2435,7.2838,7.3472,7.4517,7.5823,7.6345,7.7357,7.8699,7.969,8.0755,8.1782,8.2076,8.2186,8.2186,8.2186,8.2186,8.2186,8.2186,8.2186,8.2186,8.2186,8.2186,8.2186,8.2186,8.2186,8.2186,8.2186,8.2186,8.2186,8.2186,8.2186,8.2186,8.2186,8.2186,8.2186,8.2186,8.2186,8.2186,8.2186,8.2186,8.2186,8.2186,8.2186,8.2186,8.2186,8.2186,8.2186,8.2186,8.2186,8.2186,8.2186,8.2186,8.2186,8.2186,8.2186,8.2186,8.2186,8.2186,8.2443,8.2957,8.3434,8.4352,8.562,8.6133,8.6958,8.8059,8.8335,8.8666,3.9778,4.1371,4.3222,4.6933,4.9187,5.11,5.3348,5.482,5.624,5.8186,5.8592,5.8761,5.925,5.937,5.9404,5.9404,5.8998,5.866,5.866,0.0,0.0,0.0,0.0,0.0,0.0,0.0,0.0,0.0,0.0,0.0,0.0,6.6791,6.6893,6.7129,6.8436,6.9214,6.9451,7.0703,7.1982,7.3252,7.2236,7.23,7.3272,7.3272,7.3452,7.3772,7.4479,7.5513,7.6733,7.7277,7.826,7.9507,8.0865,8.1709,8.2186,8.2186,8.2186,8.2186,8.2186,8.2186,8.2186,8.2186,8.2186,8.2186,8.2186,8.2186,8.2186,8.2186,8.2186,8.2186,8.2186,8.2186,8.2186,8.2186,8.2186,8.2186,8.2186,8.2406,8.259,8.259,8.2774,8.2884,8.2627,8.2774,8.2884,8.2627,8.281,8.2957,8.2957,8.2957,8.2957,8.2957,8.2737,8.2663,8.292,8.2737,8.27,8.292,8.27,8.259,8.259,8.259,8.3067,8.4132,8.4682,8.5783,8.7399,8.7949,8.861,8.94,8.9657,8.9767,4.3238,4.4016,4.55,4.9169,4.956,5.0067,5.3754,5.5209,5.6544,5.9505,6.008,6.008,6.008,5.8896,5.79,5.79,5.79,5.79,5.79,0.0,0.0,0.0,0.0,0.0,0.0,0.0,0.0,0.0,0.0,0.0,0.0,6.6791,6.7151,6.7895,6.8673,6.9451,7.0195,7.0939,7.23,7.4272,7.3292,7.3352,7.431,7.431,7.4849,7.5787,7.584,7.6888,7.8589,7.8626,7.958,8.1085,8.1893,8.2186,8.2186,8.2186,8.2186,8.2186,8.2186,8.2186,8.2186,8.2186,8.2186,8.2186,8.2186,8.2186,8.2186,8.2186,8.2186,8.2186,8.2186,8.2186,8.2186,8.2186,8.2223,8.2223,8.2223,8.2847,8.3418,8.3418,8.4042,8.4352,8.3564,8.4058,8.4352,8.3528,8.4095,8.4609,8.4609,8.4609,8.4609,8.4609,8.3895,8.3711,8.4535,8.3858,8.3748,8.4535,8.3858,8.3418,8.3418,8.3418,8.4168,8.5783,8.5837,8.6628,8.8206,8.8243,8.8647,8.9436,9.0244,9.0629,4.1097,4.3224,4.589,4.8011,5.1555,5.4769,5.5886,5.6325,5.7171,5.9607,5.9708,5.9317,5.9317,5.8524,5.79,5.79,5.79,5.79,0.0,0.0,0.0,0.0,0.0,0.0,0.0,0.0,0.0,0.0,0.0,0.0,0.0,6.6791,6.7151,6.7895,6.8673,6.9451,7.0195,7.1636,7.3023,7.4291,7.472,7.5066,7.5369,7.5369,7.5527,7.5857,7.7182,7.8075,7.8699,7.9837,8.0901,8.1856,8.2113,8.2186,8.2186,8.2186,8.2186,8.2186,8.2186,8.2186,8.2186,8.2186,8.2186,8.2186,8.2186,8.2186,8.2186,8.2186,8.2186,8.2333,8.292,8.3014,8.3014,8.3014,8.3471,8.3875,8.3875,8.4095,8.4242,8.4242,8.4462,8.4535,8.4278,8.4462,8.4535,8.4278,8.4462,8.4609,8.4609,8.4609,8.4609,8.4609,8.4389,8.4352,8.4572,8.4389,8.4352,8.4572,8.4389,8.4499,8.5049,8.5086,8.5857,8.7472,8.8059,8.8849,8.9895,9.0445,9.0849,9.1106,9.1326,9.1436,4.3814,4.6431,4.931,5.136,5.3923,5.6224,5.7408,5.7915,5.849,5.9844,5.9487,5.9013,5.9013,5.8389,5.79,5.79,5.79,0.0,0.0,0.0,0.0,0.0,0.0,0.0,0.0,0.0,0.0,0.0,0.0,0.0,0.0,6.6791,6.7265,6.8335,6.8842,6.9586,7.0635,7.2059,7.3312,7.431,7.5334,7.601,7.6379,7.6379,7.6379,7.6485,7.8295,7.925,7.9653,8.0938,8.1746,8.2186,8.2186,8.2186,8.2186,8.2186,8.2186,8.2186,8.2186,8.2186,8.2186,8.2186,8.2186,8.2186,8.2186,8.2406,8.27,8.27,8.292,8.3251,8.3748,8.4115,8.4278,8.3948,8.4242,8.4609,8.4609,8.4866,8.5086,8.5086,8.5343,8.5453,8.5123,8.5343,8.5453,8.5123,8.5343,8.5563,8.5563,8.527,8.5196,8.5527,8.527,8.5196,8.5527,8.527,8.5343,8.6004,8.5747,8.6187,8.7655,8.6775,8.7031,8.8647,8.9473,9.028,9.1069,9.1546,9.1803,9.1803,9.1803,9.1803,4.8727,5.1396,5.4075,5.69,5.6292,5.5683,5.8371,5.9539,6.0013,6.0013,5.9404,5.8912,5.8912,5.8355,5.79,5.79,0.0,0.0,0.0,0.0,0.0,0.0,0.0,0.0,0.0,0.0,0.0,0.0,0.0,0.0,0.0,6.6859,6.759,6.9045,6.918,6.9901,7.1434,7.2414,7.3452,7.4442,7.5457,7.6432,7.7289,7.7289,7.7399,7.7619,7.9213,8.0351,8.1158,8.1893,8.2186,8.2186,8.2186,8.2186,8.2186,8.2186,8.2186,8.2186,8.2186,8.2186,8.2186,8.2186,8.2186,8.2223,8.2296,8.281,8.3418,8.3491,8.4058,8.4609,8.4682,8.5233,8.5637,8.4976,8.4829,8.4829,8.4829,8.538,8.5894,8.5894,8.6518,8.6775,8.604,8.6518,8.6775,8.6004,8.6518,8.6978,8.6978,8.6371,8.6187,8.6904,8.6334,8.6224,8.7014,8.6444,8.6664,8.8206,8.7601,8.8189,9.0408,8.8445,8.8042,8.9583,9.0317,9.1069,9.1803,9.1803,9.1803,9.1803,9.1803,9.1803,4.4058,4.8248,5.3015,5.4851,5.6697,5.8201,5.8844,5.9115,5.925,5.925,5.866,5.8118,5.8118,5.8035,5.79,0.0,0.0,0.0,0.0,0.0,0.0,0.0,0.0,0.0,0.0,0.0,0.0,0.0,0.0,0.0,6.6791,6.7354,6.8098,6.9079,6.9654,7.0791,7.2456,7.3472,7.4479,0.0,7.6498,7.7082,7.7289,7.7289,7.8023,7.9323,8.0314,8.1195,8.1966,8.2113,8.2186,8.2186,8.2186,8.2186,8.2186,8.2186,8.2186,8.2186,8.2186,8.2186,8.2186,8.2186,8.2186,8.2333,8.2957,8.3271,8.3528,8.4168,8.4462,8.4756,8.538,8.5673,8.593,8.6371,8.6464,8.6464,8.6464,8.6628,8.6738,8.6738,8.6867,8.6941,8.6775,8.6885,8.6941,8.6775,8.6885,8.6978,8.6978,8.6831,8.6811,8.6978,8.6831,8.7068,8.7876,8.7766,8.8096,8.9069,8.8996,8.9106,8.9657,8.9767,9.0298,9.1253,9.1436,9.162,9.1803,9.1803,9.1803,9.1803,9.1803,9.1803,4.5375,4.937,5.3403,5.6046,5.7611,5.8558,5.8912,5.8709,5.8457,5.8457,5.8152,5.79,5.79,5.79,0.0,0.0,0.0,0.0,0.0,0.0,0.0,0.0,0.0,0.0,0.0,0.0,0.0,0.0,0.0,6.6791,6.6791,6.7489,6.8267,6.9079,6.9823,7.1036,7.2776,7.3827,7.4794,7.5804,7.6808,7.7509,7.7913,7.7913,7.8626,7.9853,8.0645,8.1452,8.2186,8.2186,8.2186,8.2186,8.2186,8.2186,8.2186,8.2186,8.2186,8.2186,8.2186,8.2186,8.226,8.2663,8.2774,8.292,8.3728,8.4242,8.4646,8.5049,8.5453,8.5857,8.6261,8.6371,8.6481,8.6904,8.6978,8.6978,8.6978,8.6978,8.6978,8.6978,8.6978,8.6978,8.6978,8.6978,8.6978,8.6978,8.6978,8.6978,8.6978,8.6978,8.6978,8.6978,8.7362,8.7729,8.8169,8.8573,8.9106,8.9913,8.995,9.0134,9.0537,9.0959,9.1179,9.1216,9.1583,9.1803,9.1803,9.1803,9.1803,9.1803,9.1803,9.1803,4.7095,5.0952,5.4295,5.8189,5.8626,5.8287,5.9013,5.8626,5.8051,5.7934,5.79,5.79,5.79,0.0,0.0,0.0,0.0,0.0,0.0,0.0,0.0,0.0,0.0,0.0,0.0,0.0,0.0,0.0,0.0,6.6791,6.6791,6.7624,6.8402,6.9079,7.0088,7.1405,7.3029,7.4043,7.5048,7.6061,7.6888,7.7766,7.8589,7.8736,7.9265,8.0036,8.0865,8.1562,8.2186,8.2186,8.2186,8.2186,8.2186,8.2186,8.2186,8.2186,8.2186,8.2223,8.237,8.2406,8.2553,8.3361,8.3601,8.3748,8.4572,8.527,8.5837,8.5967,8.6481,8.6978,8.6978,8.6978,8.6978,8.6978,8.6978,8.6978,8.6978,8.6978,8.6978,8.6978,8.6978,8.6978,8.6978,8.6978,8.6978,8.6978,8.6978,8.6978,8.6978,8.7124,8.7198,8.7198,8.7949,8.8463,8.861,8.9216,8.995,9.0776,9.0812,9.1106,9.1767,9.1803,9.1473,9.0812,9.1473,9.1803,9.1803,9.1803,9.1803,9.1803,9.1803,9.1803,4.2084,4.7851,5.4513,5.8878,5.9404,5.9066,5.9776,5.9404,5.8693,5.8035,5.79,5.79,5.79,0.0,0.0,0.0,0.0,0.0,0.0,0.0,0.0,0.0,0.0,0.0,0.0,0.0,0.0,0.0,6.6791,6.6791,6.6791,6.8166,6.8977,6.9113,7.1272,7.2965,7.4082,7.5084,7.6094,7.7082,7.7227,7.7766,7.8626,7.9339,8.0073,8.0901,8.1672,8.2113,8.2186,8.2186,8.2186,8.2186,8.2186,8.2186,8.2186,8.2186,8.2186,8.2296,8.2994,8.3234,8.3381,8.4168,8.4462,8.4609,8.538,8.571,8.593,8.6628,8.6904,8.6978,8.6978,8.6978,8.6978,8.6978,8.6978,8.6978,8.6978,8.6978,8.6978,8.6978,8.6978,8.6978,8.6978,8.6978,8.6978,8.6978,8.6978,8.6978,8.6978,8.7619,8.8059,8.8059,8.8739,8.951,9.0225,9.0372,9.0776,9.1583,9.1657,9.1693,9.1803,9.1803,9.173,9.1657,9.173,9.1803,9.1803,9.1803,9.1803,9.1803,9.1803,9.1803,4.28,4.8829,5.4566,5.8998,5.9573,5.9317,6.052,6.0182,5.9539,5.9201,5.9133,5.8863,0.0,0.0,0.0,0.0,0.0,0.0,0.0,0.0,0.0,0.0,0.0,0.0,0.0,0.0,0.0,0.0,6.6791,6.6791,6.6791,6.8267,6.9113,6.9113,7.1488,7.3272,7.4272,7.5316,7.6313,7.7289,7.7289,7.7986,7.9302,7.9633,8.0257,8.1048,8.1856,8.2186,8.2186,8.2186,8.2186,8.2186,8.2186,8.2186,8.2186,8.2186,8.2186,8.2333,8.3124,8.3381,8.3601,8.4866,8.527,8.5416,8.6224,8.6481,8.6554,8.6904,8.6978,8.6978,8.6978,8.6978,8.6978,8.6978,8.6978,8.6978,8.6978,8.6978,8.6978,8.6978,8.6978,8.6978,8.6978,8.6978,8.6978,8.6978,8.6978,8.6978,8.6978,8.7692,8.8206,8.8206,8.9344,9.0207,9.0592,9.1033,9.1436,9.1767,9.1803,9.1803,9.1803,9.1803,9.1803,9.1803,9.1803,9.1803,9.1803,9.1803,9.1803,9.1803,9.1803,9.1803,4.304,4.8349,5.2656,5.7459,5.8699,5.9167,6.0926,6.0858,6.0351,6.0148,6.0114,0.0,0.0,0.0,0.0,0.0,0.0,0.0,0.0,0.0,0.0,0.0,0.0,0.0,0.0,0.0,0.0,0.0,6.6791,6.6791,6.6791,6.8267,6.9113,6.9113,7.1746,7.3552,7.4272,7.5545,7.6563,7.7289,7.7509,7.8405,7.9816,8.0,8.0534,8.1342,8.1929,8.2186,8.2186,8.2186,8.2186,8.2186,8.2186,8.2186,8.2186,8.2186,8.2333,8.2627,8.3434,8.3821,8.4242,8.5637,8.6114,8.6224,8.6811,8.6978,8.6978,8.6978,8.6978,8.6978,8.6978,8.6978,8.6978,8.6978,8.6978,8.6978,8.6978,8.6978,8.6978,8.6978,8.6978,8.6978,8.6978,8.7161,8.7325,8.7325,8.7455,8.7601,8.7601,8.8316,8.8793,8.8793,9.0078,9.0922,9.0922,9.1473,9.1803,9.1803,9.1803,9.1803,9.1803,9.1803,9.1803,9.1803,9.1803,9.1803,9.1803,9.1803,9.1803,9.1803,9.1803,9.1803,4.0124,4.3785,4.7499,5.3341,5.6395,5.8524,6.0791,6.1264,6.1028,6.025,6.0114,0.0,0.0,0.0,0.0,0.0,0.0,0.0,0.0,0.0,0.0,0.0,0.0,0.0,0.0,0.0,0.0,0.0,6.6791,6.6791,6.6791,6.8267,6.9113,6.9113,7.2445,7.4234,7.4291,7.6231,7.7243,7.7326,7.8148,7.8993,7.9816,8.0571,8.1379,8.215,8.2186,8.2186,8.2186,8.2186,8.2186,8.2186,8.2186,8.2186,8.2186,8.2186,8.27,8.3454,8.4278,8.5049,8.582,8.6664,8.6958,8.6941,8.6978,8.6978,8.6978,8.6978,8.6978,8.6978,8.6978,8.6978,8.6978,8.6978,8.6978,8.6978,8.6978,8.6978,8.6978,8.6978,8.6978,8.6978,8.6978,8.7619,8.8133,8.8133,8.8776,8.929,8.929,8.9987,9.0482,9.0482,9.1216,9.173,9.173,9.1767,9.1803,9.1803,9.1803,9.1803,9.1803,9.1803,9.1803,9.1803,9.1803,9.1803,9.1803,9.1803,9.1803,9.1803,9.1803,9.1803,3.8798,4.204,4.543,5.049,5.4112,5.707,5.9317,6.096,6.1907,6.1637,6.1588,0.0,0.0,0.0,0.0,0.0,0.0,0.0,0.0,0.0,0.0,0.0,0.0,0.0,0.0,0.0,0.0,0.0,0.0,6.7015,6.7489,6.8538,6.9628,7.0746,7.3085,7.4903,7.6214,7.6956,7.7289,7.7326,7.8185,7.9029,7.9816,8.0645,8.1452,8.2186,8.2186,8.2186,8.2186,8.2186,8.2186,8.2186,8.2186,8.2517,8.2994,8.2994,8.3471,8.4278,8.5086,8.5563,8.593,8.6738,8.6978,8.6978,8.6978,8.6978,8.6978,8.6978,8.6978,8.6978,8.6978,8.6978,8.6978,8.6978,8.6978,8.6978,8.6978,8.6978,8.6978,8.6978,8.6978,8.6978,8.6978,8.7655,8.8206,8.8206,8.8886,8.94,8.94,9.0097,9.0592,9.0592,9.0849,9.1253,9.1767,9.1326,9.1253,9.1767,9.1803,9.1803,9.1803,9.1803,9.1803,9.1803,9.1803,9.1803,9.1803,9.1803,9.1803,9.1803,9.1803,9.1803,3.5943,3.9192,4.2987,4.7556,5.0911,5.4177,5.8404,6.0148,6.1182,6.2197,6.24,0.0,0.0,0.0,0.0,0.0,0.0,0.0,0.0,0.0,0.0,0.0,0.0,0.0,0.0,0.0,0.0,0.0,0.0,0.0,6.7861,6.8673,7.0161,7.2505,7.4008,7.5597,7.7273,7.7289,7.7436,7.7766,7.8589,7.9396,8.0241,8.1048,8.1672,8.2186,8.2186,8.2186,8.2186,8.2186,8.2186,8.2186,8.2186,8.27,8.3381,8.3381,8.4078,8.5086,8.56,8.5967,8.6297,8.6848,8.6978,8.6978,8.6978,8.6978,8.6978,8.6978,8.6978,8.6978,8.6978,8.6978,8.6978,8.6978,8.6978,8.6978,8.6978,8.6978,8.6978,8.6978,8.6978,8.7088,8.7362,8.8096,8.8683,8.8977,8.9711,9.0097,8.984,9.028,9.0501,9.0207,9.0207,9.0519,9.1326,9.0922,9.0959,9.173,9.1803,9.1803,9.1803,9.1803,9.1803,9.1803,9.1803,9.1803,9.1803,9.1803,9.1803,9.1803,9.1803,9.1803,0.0,0.0,0.0,4.4334,4.6643,4.9916,5.7949,5.8727,5.861,6.169,6.2299,0.0,0.0,0.0,0.0,0.0,0.0,0.0,0.0,0.0,0.0,0.0,0.0,0.0,0.0,0.0,0.0,0.0,0.0,6.7151,6.7895,6.8772,7.0787,7.4199,7.528,7.6313,7.7273,7.7289,7.7729,7.8589,7.9412,8.0204,8.1048,8.1819,8.2186,8.2186,8.2186,8.2186,8.2186,8.2186,8.2186,8.2186,8.2223,8.2737,8.3454,8.3454,8.4462,8.5837,8.5837,8.6334,8.6978,8.6978,8.6978,8.6978,8.6978,8.6978,8.6978,8.6978,8.6978,8.6978,8.6978,8.6978,8.6978,8.6978,8.6978,8.6978,8.6978,8.6978,8.6978,8.6978,8.6978,8.7252,8.8023,8.8849,8.9657,9.0427,9.1253,9.151,9.0739,9.0629,9.0317,8.951,8.94,8.973,9.0501,9.0537,9.0922,9.1693,9.1803,9.1803,9.1803,9.1803,9.1803,9.1803,9.1803,9.1803,9.1803,9.1803,9.1803,9.1803,9.1803,9.1803,3.2694,0.0,0.0,0.0,0.0,0.0,5.1048,5.2976,5.5006,5.9099,5.9505,0.0,0.0,0.0,0.0,0.0,0.0,0.0,0.0,0.0,0.0,0.0,0.0,0.0,0.0,0.0,0.0,0.0,6.6791,6.7387,6.8707,7.1358,7.3292,7.4272,7.5976,7.7019,7.731,7.7289,7.7729,7.8589,7.9412,8.0204,8.1048,8.1819,8.2186,8.2186,8.2186,8.2186,8.2186,8.2186,8.2186,8.226,8.2847,8.3564,8.4352,8.4903,8.5783,8.6664,8.6664,8.6811,8.6978,8.6978,8.6978,8.6978,8.6978,8.6978,8.6978,8.6978,8.6978,8.6978,8.6978,8.6978,8.6978,8.6978,8.6978,8.6978,8.6978,8.6978,8.6978,8.6978,8.6978,8.7051,8.7271,8.8482,8.9473,8.9693,9.0922,9.173,9.151,9.1473,9.1179,9.0354,8.9767,8.9473,8.9693,8.973,9.006,9.0886,9.1473,9.1803,9.1803,9.1803,9.1803,9.1803,9.1803,9.1803,9.1803,9.1803,9.1803,9.1803,9.1803,9.1803,3.2692,3.4115,3.6133,3.8281,0.0,0.0,4.9936,5.1826,5.3856,0.0,6.008,0.0,0.0,0.0,0.0,0.0,0.0,0.0,0.0,0.0,0.0,0.0,0.0,0.0,0.0,0.0,0.0,6.6791,6.6791,6.7468,6.9011,7.241,7.4291,7.4291,7.6247,7.7289,7.7289,7.7656,7.8259,7.9103,7.991,8.0718,8.1525,8.2003,8.2186,8.2186,8.2186,8.2186,8.2186,8.2186,8.2186,8.226,8.3087,8.3895,8.4682,8.549,8.6297,8.6978,8.6978,8.6978,8.6978,8.6978,8.6978,8.6978,8.6978,8.6978,8.6978,8.6978,8.6978,8.6978,8.6978,8.6978,8.6978,8.6978,8.6978,8.6978,8.6978,8.6978,8.6978,8.6978,8.6978,8.7088,8.7435,8.8556,8.951,8.984,9.0996,9.1693,9.1326,9.1289,9.0996,9.017,8.9693,8.9546,8.9877,8.9913,9.0244,9.1069,9.1546,9.1803,9.1803,9.1803,9.1803,9.1803,9.1803,9.1803,9.1803,9.1803,9.1803,9.1803,9.1803,9.1803,3.2572,3.3832,3.638,3.9138,3.9534,0.0,5.1004,5.2232,5.3247,0.0,0.0,0.0,0.0,0.0,0.0,0.0,0.0,0.0,0.0,0.0,0.0,0.0,0.0,0.0,0.0,6.6791,6.6791,6.6791,6.696,6.7658,6.9045,7.241,7.4291,7.4291,7.6247,7.7289,7.7289,7.8185,7.8993,7.9816,8.0608,8.1415,8.2186,8.2186,8.2186,8.2186,8.2186,8.2186,8.2186,8.2186,8.2186,8.2296,8.3177,8.3968,8.4719,8.56,8.6371,8.6978,8.6978,8.6978,8.6978,8.6978,8.6978,8.6978,8.6978,8.6978,8.6978,8.6978,8.6978,8.6978,8.6978,8.6978,8.6978,8.6978,8.6978,8.6978,8.6978,8.6978,8.6978,8.6978,8.6978,8.7234,8.7949,8.8812,8.9657,9.0354,9.1216,9.1546,9.0849,9.0739,9.0445,8.962,8.9546,8.9803,9.0391,9.0555,9.0922,9.162,9.173,9.1803,9.1803,9.1803,9.1803,9.1803,9.1803,9.1803,9.1803,9.1803,9.1803,9.1803,9.1803,9.1803,3.5908,3.6294,3.7282,3.7988,3.9794,0.0,4.3446,4.5007,4.7139,0.0,5.1623,0.0,0.0,0.0,0.0,0.0,0.0,0.0,0.0,0.0,0.0,0.0,0.0,0.0,0.0,6.6791,6.6791,6.6791,6.7963,6.8774,6.9079,7.241,7.4291,7.4291,7.6247,7.7289,7.7289,7.8185,7.8993,7.9816,8.0608,8.1415,8.2186,8.2186,8.2186,8.2186,8.2186,8.2186,8.2186,8.2186,8.2186,8.2333,8.3801,8.4462,8.4792,8.6224,8.6885,8.6978,8.6978,8.6978,8.6978,8.6978,8.6978,8.6978,8.6978,8.6978,8.6978,8.6978,8.6978,8.6978,8.6978,8.6978,8.6978,8.6978,8.6978,8.6978,8.6978,8.6978,8.6978,8.6978,8.6978,8.7051,8.7198,8.8445,8.9436,8.962,9.0886,9.173,9.1583,9.1583,9.1253,9.0427,9.0354,9.017,8.9693,9.0207,9.0665,9.0812,9.1436,9.1803,9.1803,9.1803,9.1803,9.1803,9.1803,9.1803,9.1803,9.1803,9.1803,9.1803,9.1803,9.1803,3.7122,3.697,3.7761,3.9024,3.9886,0.0,0.0,4.4857,4.6327,5.0405,5.0626,5.0795,0.0,0.0,0.0,0.0,0.0,0.0,0.0,0.0,0.0,0.0,0.0,0.0,0.0,6.6576,6.6791,6.6791,6.8233,6.9113,6.9113,7.241,7.4291,7.4291,7.6247,7.7289,7.7289,7.8552,7.9412,7.9816,8.1012,8.1819,8.2186,8.2186,8.2186,8.2186,8.2186,8.2186,8.2186,8.2186,8.2443,8.292,8.4132,8.4609,8.4792,8.639,8.6978,8.6978,8.6978,8.6978,8.6978,8.6978,8.6978,8.6978,8.6978,8.6978,8.6978,8.6978,8.6978,8.6978,8.6978,8.6978,8.6978,8.6978,8.6978,8.6978,8.6978,8.6978,8.7124,8.7509,8.7619,8.7619,8.7619,8.8592,8.9546,8.995,9.1033,9.1803,9.1803,9.1803,9.1657,9.1253,9.1216,9.1033,9.0629,9.0959,9.1216,9.1216,9.1583,9.1803,9.1803,9.1803,9.1803,9.1803,9.1803,9.1803,9.1803,9.1803,9.1803,9.1803,9.1803,9.1803,3.838,3.7883,3.8784,4.0499,4.0383,4.0955,0.0,0.0,0.0,0.0,0.0,0.0,0.0,0.0,0.0,0.0,0.0,0.0,0.0,0.0,0.0,0.0,0.0,0.0,0.0,6.5831,6.6385,6.696,6.7658,6.8335,6.9079,7.227,7.4149,7.4291,7.6247,7.7289,7.7289,7.8956,7.9816,7.9816,8.1432,8.2186,8.2186,8.2186,8.2186,8.2186,8.2186,8.2186,8.2186,8.2186,8.2663,8.3491,8.4278,8.4682,8.5013,8.6464,8.6978,8.6978,8.6978,8.6978,8.6978,8.6978,8.6978,8.6978,8.6978,8.6978,8.6978,8.6978,8.6978,8.6978,8.6978,8.6978,8.6978,8.6978,8.6978,8.6978,8.6978,8.6978,8.7215,8.7839,8.7986,8.8023,8.8169,8.9014,8.9767,9.017,9.1106,9.1803,9.1803,9.1803,9.1803,9.1803,9.1803,9.1803,9.1803,9.1803,9.1803,9.1803,9.1803,9.1803,9.1803,9.1803,9.1803,9.1803,9.1803,9.1803,9.1803,9.1803,9.1803,9.1803,9.1803,9.1803,4.1912,4.1313,4.1654,4.0907,4.2076,4.2993,4.1352,0.0,4.3457,4.2746,0.0,0.0,0.0,0.0,0.0,0.0,0.0,0.0,0.0,0.0,0.0,0.0,0.0,0.0,0.0,0.0,6.4965,6.759,6.5506,6.5595,6.891,7.1787,7.3621,7.4291,7.6247,7.7289,7.7289,7.8956,7.9816,7.9816,8.1432,8.2186,8.2186,8.2186,8.2186,8.2186,8.2186,8.2186,8.2186,8.2186,8.2663,8.3491,8.4278,8.5049,8.5747,8.6664,8.6978,8.6978,8.6978,8.6978,8.6978,8.6978,8.6978,8.6978,8.6978,8.6978,8.6978,8.6978,8.6978,8.6978,8.6978,8.6978,8.6978,8.6978,8.6978,8.6978,8.6978,8.6978,8.7014,8.7124,8.7124,8.7362,8.8096,8.9454,9.0097,8.8996,9.0519,9.1803,9.1803,9.1803,9.1803,9.1803,9.1803,9.1803,9.1803,9.1803,9.1803,9.1803,9.1803,9.1803,9.1803,9.1803,9.1803,9.1803,9.1803,9.1803,9.1803,9.1803,9.1803,9.1803,9.1803,9.1803,4.2152,4.2421,4.3152,4.17,4.2242,4.2714,4.1116,4.0741,4.0983,0.0,0.0,0.0,0.0,0.0,0.0,0.0,4.5331,0.0,0.0,0.0,0.0,0.0,0.0,0.0,0.0,0.0,0.0,0.0,0.0,6.5797,6.9519,7.236,7.3991,7.4291,7.6247,7.7289,7.7289,7.8956,7.9816,7.9816,8.1432,8.2186,8.2186,8.2186,8.2186,8.2186,8.2186,8.2186,8.2186,8.2186,8.2957,8.4132,8.4462,8.5086,8.5894,8.6701,8.6978,8.6978,8.6978,8.6978,8.6978,8.6978,8.6978,8.6978,8.6978,8.6978,8.6978,8.6978,8.6978,8.6978,8.6978,8.6978,8.6978,8.6978,8.6978,8.6978,8.6978,8.6978,8.7271,8.8189,8.8372,8.8629,8.9454,8.9784,9.0024,9.0408,9.1216,9.1803,9.1803,9.1803,9.1803,9.1803,9.1803,9.1803,9.1803,9.1803,9.1803,9.1803,9.1803,9.1803,9.1803,9.1803,9.1803,9.1803,9.1803,9.1803,9.1803,9.1803,9.1803,9.1803,9.1803,9.1803,4.3419,4.3778,4.4298,4.204,4.1718,4.169,4.0522,3.9884,4.0009,4.1674,0.0,0.0,0.0,0.0,4.2151,4.23,0.0,4.5331,0.0,0.0,0.0,0.0,0.0,0.0,0.0,0.0,0.0,0.0,0.0,0.0,7.0229,7.2649,7.4111,7.4591,7.6285,7.7223,7.731,7.8956,7.9816,7.9816,8.1432,8.2186,8.2186,8.2186,8.2186,8.2186,8.2186,8.2186,8.2223,8.2443,8.3361,8.4609,8.4829,8.5416,8.6187,8.6775,8.6978,8.6978,8.6978,8.6978,8.6978,8.6978,8.6978,8.6978,8.6978,8.6978,8.6978,8.6978,8.6978,8.6978,8.6978,8.6978,8.6978,8.6978,8.6978,8.7051,8.7288,8.7325,8.7748,8.9143,8.94,8.9657,9.0482,9.028,9.028,9.1033,9.151,9.1803,9.1803,9.1803,9.1803,9.1803,9.1803,9.1803,9.1803,9.1803,9.1803,9.1803,9.1803,9.1803,9.1803,9.1803,9.1803,9.1803,9.1803,9.1803,9.1803,9.1803,9.1803,9.1803,9.1803,9.1803,4.7198,0.0,4.534,4.1589,0.0,0.0,0.0,3.9581,4.1154,4.1215,4.2959,4.4465,4.4513,4.4499,4.3992,4.2536,4.2997,0.0,0.0,0.0,0.0,0.0,0.0,0.0,0.0,0.0,0.0,0.0,0.0,0.0,7.0782,7.2279,7.3641,7.5331,7.6356,7.7042,7.731,7.8956,7.9816,7.9816,8.1432,8.2186,8.2186,8.2186,8.2186,8.2186,8.2186,8.2186,8.226,8.3014,8.3858,8.4682,8.5453,8.6261,8.6941,8.6978,8.6978,8.6978,8.6978,8.6978,8.6978,8.6978,8.6978,8.6978,8.6978,8.6978,8.6978,8.6978,8.6978,8.6978,8.6978,8.6978,8.6978,8.6978,8.6978,8.7198,8.7986,8.8169,8.8426,8.9253,8.94,8.9657,9.0482,9.1216,9.1216,8.9693,9.0812,9.1803,9.1803,9.1803,9.1803,9.1803,9.1803,9.1803,9.1803,9.1803,9.1803,9.1803,9.1803,9.1803,9.1803,9.1803,9.1803,9.1803,9.1803,9.1803,9.1803,9.1803,9.1803,9.1803,9.1803,9.1803,0.0,0.0,4.9052,4.4257,0.0,0.0,0.0,0.0,0.0,4.1185,4.3399,0.0,4.4702,4.4615,4.4262,4.32,4.2828,4.2151,0.0,0.0,0.0,0.0,0.0,0.0,0.0,0.0,0.0,0.0,0.0,0.0,0.0,7.3371,7.4678,7.7181,7.7577,7.7896,7.817,7.9764,8.0314,7.9816,8.1432,8.2186,8.2186,8.2186,8.2186,8.2186,8.2186,8.2186,8.226,8.3067,8.3858,8.4682,8.549,8.6297,8.6978,8.6978,8.6978,8.6978,8.6978,8.6978,8.6978,8.6978,8.6978,8.6978,8.6978,8.6978,8.6978,8.6978,8.6978,8.6978,8.6978,8.6978,8.7124,8.7655,8.7802,8.8023,8.8812,8.8996,8.9216,9.0024,9.017,9.0427,9.1253,9.162,9.162,9.1069,9.1436,9.1803,9.1803,9.1803,9.1803,9.1803,9.1803,9.1803,9.1803,9.1803,9.1803,9.1803,9.1803,9.1803,9.1803,9.1803,9.1803,9.1803,9.1803,9.1803,9.1803,9.1803,9.1803,9.1803,9.1803,9.1803,5.0534,5.1253,0.0,4.7061,4.6336,0.0,4.1955,0.0,4.3988,0.0,0.0,0.0,0.0,4.7376,4.5669,4.5418,4.3876,4.2083,0.0,4.0087,0.0,0.0,0.0,0.0,0.0,0.0,0.0,0.0,0.0,0.0,0.0,0.0,7.5525,7.8116,7.8476,7.8748,7.9029,8.0351,8.0755,8.0257,8.1562,8.2186,8.2186,8.2186,8.2186,8.2186,8.2186,8.2186,8.226,8.3398,8.4132,8.4719,8.5783,8.6554,8.6978,8.6978,8.6978,8.6978,8.6978,8.6978,8.6978,8.6978,8.6978,8.6978,8.6978,8.6978,8.7051,8.7344,8.7215,8.7051,8.7344,8.7198,8.7198,8.8023,8.8206,8.85,8.9583,8.984,9.006,9.0886,9.1033,9.1179,9.1693,9.1803,9.1803,9.1803,9.1803,9.1803,9.1803,9.1803,9.1803,9.1803,9.1803,9.1803,9.1803,9.1803,9.1803,9.1803,9.1803,9.1803,9.1803,9.1803,9.1803,9.1803,9.1803,9.1803,9.1803,9.1803,9.1803,9.1803,9.1803,9.1803]}]]